[[{"header":{"parameterUnit":"m.s-1","parameterCategory":1,"la1":30.6,"la2":28.766,"lo1":-90.7593,"lo2":-88.6598,"dy":0.0162,"dx":0.0183,"nx":116,"ny":114,"refTime":"2024-03-17T12:00:00:Z","depth":0,"parameterNumber":2,"parameterNumberName":"U-component_of_WINDS"},"data":[0.0,0.0,0.0,0.0,0.0,0.0,0.0,0.0,0.0,0.0,0.0,0.0,0.0,0.0,0.0,0.0,0.0,0.0,0.0,0.0,0.0,0.0,0.0,0.0,0.0,0.0,0.0,0.0,0.0,0.0,0.0,0.0,0.0,0.0,0.0,0.0,0.0,0.0,0.0,0.0,0.0,0.0,0.0,0.0,0.0,0.0,0.0,0.0,0.0,0.0,0.0,0.0,0.0,0.0,0.0,0.0,0.0,0.0,0.0,0.0,0.0,0.0,0.0,0.0,0.0,0.0,0.0,0.0,0.0,0.0,0.0,0.0,0.0,0.0,0.0,0.0,0.0,0.0,0.0,0.0,0.0,0.0,0.0,0.0,0.0,0.0,0.0,0.0,0.0,0.0,0.0,0.0,0.0,0.0,0.0,0.0,0.0,0.0,0.0,0.0,0.0,0.0,0.0,0.0,0.0,0.0,0.0,0.0,0.0,0.0,0.0,0.0,0.0,0.0,0.0,0.0,0.0,0.0,0.0,0.0,0.0,0.0,0.0,0.0,0.0,0.0,0.0,0.0,0.0,0.0,0.0,0.0,0.0,0.0,0.0,0.0,0.0,0.0,0.0,0.0,0.0,0.0,0.0,0.0,0.0,0.0,0.0,0.0,0.0,0.0,0.0,0.0,0.0,0.0,0.0,0.0,0.0,0.0,0.0,0.0,0.0,0.0,0.0,0.0,0.0,0.0,0.0,0.0,0.0,0.0,0.0,0.0,0.0,0.0,0.0,0.0,0.0,0.0,0.0,0.0,0.0,0.0,0.0,0.0,0.0,0.0,0.0,0.0,0.0,0.0,0.0,0.0,0.0,0.0,0.0,0.0,0.0,0.0,0.0,0.0,0.0,0.0,0.0,0.0,0.0,0.0,0.0,0.0,0.0,0.0,0.0,0.0,0.0,0.0,0.0,0.0,0.0,0.0,0.0,0.0,0.0,0.0,0.0,0.0,0.0,0.0,0.0,0.0,0.0,0.0,0.0,0.0,0.0,0.0,0.0,0.0,0.0,0.0,0.0,0.0,0.0,0.0,0.0,0.0,0.0,0.0,0.0,0.0,0.0,0.0,0.0,0.0,0.0,0.0,0.0,0.0,0.0,0.0,0.0,0.0,0.0,0.0,0.0,0.0,0.0,0.0,0.0,0.0,0.0,0.0,0.0,0.0,0.0,0.0,0.0,0.0,0.0,0.0,0.0,0.0,0.0,0.0,0.0,0.0,0.0,0.0,0.0,0.0,0.0,0.0,0.0,0.0,0.0,0.0,0.0,0.0,0.0,0.0,0.0,0.0,0.0,0.0,0.0,0.0,0.0,0.0,0.0,0.0,0.0,0.0,0.0,0.0,0.0,0.0,0.0,0.0,0.0,0.0,0.0,0.0,0.0,0.0,0.0,0.0,0.0,0.0,0.0,0.0,0.0,0.0,0.0,0.0,0.0,0.0,0.0,0.0,0.0,0.0,0.0,0.0,0.0,0.0,0.0,0.0,0.0,0.0,0.0,0.0,0.0,0.0,0.0,0.0,0.0,0.0,0.0,0.0,0.0,0.0,0.0,0.0,0.0,0.0,0.0,0.0,0.0,0.0,0.0,0.0,0.0,0.0,0.0,0.0,0.0,0.0,0.0,0.0,0.0,0.0,0.0,0.0,0.0,0.0,0.0,0.0,0.0,0.0,0.0,0.0,0.0,0.0,0.0,0.0,0.0,0.0,0.0,0.0,0.0,0.0,0.0,0.0,0.0,0.0,0.0,0.0,0.0,0.0,0.0,0.0,0.0,0.0,0.0,0.0,0.0,0.0,0.0,0.0,0.0,0.0,0.0,0.0,0.0,0.0,0.0,0.0,0.0,0.0,0.0,0.0,0.0,0.0,0.0,0.0,0.0,0.0,0.0,0.0,0.0,0.0,0.0,0.0,0.0,0.0,0.0,0.0,0.0,0.0,0.0,0.0,0.0,0.0,0.0,0.0,0.0,0.0,0.0,0.0,0.0,0.0,0.0,0.0,0.0,0.0,0.0,0.0,0.0,0.0,0.0,0.0,0.0,0.0,0.0,0.0,0.0,0.0,0.0,0.0,0.0,0.0,0.0,0.0,0.0,0.0,0.0,0.0,0.0,0.0,0.0,0.0,0.0,0.0,0.0,0.0,0.0,0.0,0.0,0.0,0.0,0.0,0.0,0.0,0.0,0.0,0.0,0.0,0.0,0.0,0.0,0.0,0.0,0.0,0.0,0.0,0.0,0.0,0.0,0.0,0.0,0.0,0.0,0.0,0.0,0.0,0.0,0.0,0.0,0.0,0.0,0.0,0.0,0.0,0.0,0.0,0.0,0.0,0.0,0.0,0.0,0.0,0.0,0.0,0.0,0.0,0.0,0.0,0.0,0.0,0.0,0.0,0.0,0.0,0.0,0.0,0.0,0.0,0.0,0.0,0.0,0.0,0.0,0.0,0.0,0.0,0.0,0.0,0.0,0.0,0.0,0.0,0.0,0.0,0.0,0.0,0.0,0.0,0.0,0.0,0.0,0.0,0.0,0.0,0.0,0.0,0.0,0.0,0.0,0.0,0.0,0.0,0.0,0.0,0.0,0.0,0.0,0.0,0.0,0.0,0.0,0.0,0.0,0.0,0.0,0.0,0.0,0.0,0.0,0.0,0.0,0.0,0.0,0.0,0.0,0.0,0.0,0.0,0.0,0.0,0.0,0.0,0.0,0.0,0.0,0.0,0.0,0.0,0.0,0.0,0.0,0.0,0.0,0.0,0.0,0.0,0.0,0.0,0.0,0.0,0.0,0.0,0.0,0.0,0.0,0.0,0.0,0.0,0.0,0.0,0.0,0.0,0.0,0.0,0.0,0.0,0.0,0.0,0.0,0.0,0.0,0.0,0.0,0.0,0.0,0.0,0.0,0.0,0.0,0.0,0.0,0.0,0.0,0.0,0.0,0.0,0.0,0.0,0.0,0.0,0.0,0.0,0.0,0.0,0.0,0.0,0.0,0.0,0.0,0.0,0.0,0.0,0.0,0.0,0.0,0.0,0.0,0.0,0.0,0.0,0.0,0.0,0.0,0.0,0.0,0.0,0.0,0.0,0.0,0.0,0.0,0.0,0.0,0.0,0.0,0.0,0.0,0.0,0.0,0.0,0.0,0.0,0.0,0.0,0.0,0.0,0.0,0.0,0.0,0.0,0.0,0.0,0.0,0.0,0.0,0.0,0.0,0.0,0.0,0.0,0.0,0.0,0.0,0.0,0.0,0.0,0.0,0.0,0.0,0.0,0.0,0.0,0.0,0.0,0.0,0.0,0.0,0.0,0.0,0.0,0.0,0.0,0.0,0.0,0.0,0.0,0.0,0.0,0.0,0.0,0.0,0.0,0.0,0.0,0.0,0.0,0.0,0.0,0.0,0.0,0.0,0.0,0.0,0.0,0.0,0.0,0.0,0.0,0.0,0.0,0.0,0.0,0.0,0.0,0.0,0.0,0.0,0.0,0.0,0.0,0.0,0.0,0.0,0.0,0.0,0.0,0.0,0.0,0.0,0.0,0.0,0.0,0.0,0.0,0.0,0.0,0.0,0.0,0.0,0.0,0.0,0.0,0.0,0.0,0.0,0.0,0.0,0.0,0.0,0.0,0.0,0.0,0.0,0.0,0.0,0.0,0.0,0.0,0.0,0.0,0.0,0.0,0.0,0.0,0.0,0.0,0.0,0.0,0.0,0.0,0.0,0.0,0.0,0.0,0.0,0.0,0.0,0.0,0.0,0.0,0.0,0.0,0.0,0.0,0.0,0.0,0.0,0.0,0.0,0.0,0.0,0.0,0.0,0.0,0.0,0.0,0.0,0.0,0.0,0.0,0.0,0.0,0.0,0.0,0.0,0.0,0.0,0.0,0.0,0.0,0.0,0.0,0.0,0.0,0.0,0.0,0.0,0.0,0.0,0.0,0.0,0.0,0.0,0.0,0.0,0.0,0.0,0.0,0.0,0.0,0.0,0.0,0.0,0.0,0.0,0.0,0.0,0.0,0.0,0.0,0.0,0.0,0.0,0.0,0.0,0.0,0.0,0.0,0.0,0.0,0.0,0.0,0.0,0.0,0.0,0.0,0.0,0.0,0.0,0.0,0.0,0.0,0.0,0.0,0.0,0.0,0.0,0.0,0.0,0.0,0.0,0.0,0.0,0.0,0.0,0.0,0.0,0.0,0.0,0.0,0.0,0.0,0.0,0.0,0.0,0.0,0.0,0.0,0.0,0.0,0.0,0.0,0.0,0.0,0.0,0.0,0.0,0.0,0.0,0.0,0.0,0.0,0.0,0.0,0.0,0.0,0.0,0.0,0.0,0.0,0.0,0.0,0.0,0.0,0.0,0.0,0.0,0.0,0.0,0.0,0.0,0.0,0.0,0.0,0.0,0.0,0.0,0.0,0.0,0.0,0.0,0.0,0.0,0.0,0.0,0.0,0.0,0.0,0.0,0.0,0.0,0.0,0.0,0.0,0.0,0.0,0.0,0.0,0.0,0.0,0.0,0.0,0.0,0.0,0.0,0.0,0.0,0.0,0.0,0.0,0.0,0.0,0.0,0.0,0.0,0.0,0.0,0.0,0.0,0.0,0.0,0.0,0.0,0.0,0.0,0.0,0.0,0.0,0.0,0.0,0.0,0.0,0.0,0.0,0.0,0.0,0.0,0.0,0.0,0.0,0.0,0.0,0.0,0.0,0.0,0.0,0.0,0.0,0.0,0.0,0.0,0.0,0.0,0.0,0.0,0.0,0.0,0.0,0.0,0.0,0.0,0.0,0.0,0.0,0.0,0.0,0.0,0.0,0.0,0.0,0.0,0.0,0.0,0.0,0.0,0.0,0.0,0.0,0.0,0.0,0.0,0.0,0.0,0.0,0.0,0.0,0.0,0.0,0.0,0.0,0.0,0.0,0.0,0.0,0.0,0.0,0.0,0.0,0.0,0.0,0.0,0.0,0.0,0.0,0.0,0.0,0.0,0.0,0.0,0.0,0.0,0.0,0.0,0.0,0.0,0.0,0.0,0.0,0.0,0.0,0.0,0.0,0.0,0.0,0.0,0.0,0.0,0.0,0.0,0.0,0.0,0.0,0.0,0.0,0.0,0.0,0.0,0.0,0.0,0.0,0.0,0.0,0.0,0.0,0.0,0.0,0.0,0.0,0.0,0.0,0.0,0.0,0.0,0.0,0.0,0.0,0.0,0.0,0.0,0.0,0.0,0.0,0.0,0.0,0.0,0.0,0.0,0.0,0.0,0.0,0.0,0.0,0.0,0.0,0.0,0.0,0.0,0.0,0.0,0.0,0.0,0.0,0.0,0.0,0.0,0.0,0.0,0.0,0.0,0.0,0.0,0.0,0.0,0.0,0.0,0.0,0.0,0.0,0.0,0.0,0.0,0.0,0.0,0.0,0.0,0.0,0.0,0.0,0.0,0.0,0.0,0.0,0.0,0.0,0.0,0.0,0.0,0.0,0.0,0.0,0.0,0.0,0.0,0.0,0.0,0.0,0.0,0.0,0.0,0.0,0.0,0.0,0.0,0.0,0.0,0.0,0.0,0.0,0.0,0.0,0.0,0.0,0.0,0.0,0.0,0.0,0.0,0.0,0.0,0.0,0.0,0.0,0.0,0.0,0.0,0.0,0.0,0.0,0.0,0.0,0.0,0.0,0.0,0.0,0.0,0.0,0.0,0.0,0.0,0.0,0.0,0.0,0.0,0.0,0.0,0.0,0.0,0.0,0.0,0.0,0.0,0.0,0.0,0.0,0.0,0.0,0.0,0.0,0.0,0.0,0.0,0.0,0.0,0.0,0.0,0.0,0.0,0.0,0.0,0.0,0.0,0.0,0.0,0.0,0.0,0.0,0.0,0.0,0.0,0.0,0.0,0.0,0.0,0.0,0.0,0.0,0.0,0.0,0.0,0.0,0.0,0.0,0.0,0.0,0.0,0.0,0.0,0.0,0.0,0.0,0.0,0.0,0.0,0.0,0.0,0.0,0.0,0.0,0.0,0.0,0.0,0.0,0.0,0.0,0.0,0.0,0.0,0.0,0.0,0.0,0.0,0.0,0.0,0.0,-2.8957,-2.8651,0.0,0.0,0.0,0.0,0.0,0.0,0.0,0.0,0.0,0.0,0.0,0.0,0.0,0.0,0.0,0.0,0.0,0.0,0.0,0.0,0.0,0.0,0.0,0.0,0.0,0.0,0.0,0.0,0.0,0.0,0.0,0.0,0.0,0.0,-2.38,-2.3834,-2.3847,-2.3847,-2.3886,-2.4117,-2.4538,-2.504,-2.4904,-2.4275,0.0,0.0,0.0,0.0,0.0,0.0,0.0,0.0,0.0,0.0,0.0,0.0,0.0,0.0,0.0,0.0,0.0,0.0,0.0,0.0,0.0,0.0,0.0,0.0,0.0,0.0,0.0,0.0,0.0,0.0,0.0,0.0,0.0,0.0,0.0,0.0,0.0,0.0,0.0,0.0,0.0,0.0,0.0,0.0,0.0,0.0,0.0,0.0,0.0,0.0,0.0,0.0,0.0,0.0,0.0,0.0,0.0,0.0,0.0,0.0,0.0,0.0,0.0,0.0,0.0,0.0,0.0,0.0,0.0,0.0,-2.905,-2.8441,0.0,0.0,0.0,0.0,0.0,0.0,0.0,0.0,0.0,0.0,0.0,0.0,0.0,0.0,0.0,0.0,0.0,0.0,0.0,0.0,0.0,0.0,0.0,-2.3803,-2.3803,-2.3774,-2.3774,-2.3771,-2.3775,-2.3783,-2.3772,-2.37,-2.3743,-2.3837,-2.3981,-2.3959,-2.4046,-2.4201,-2.4212,-2.4588,-2.5321,-2.6056,-2.5734,0.0,0.0,0.0,0.0,0.0,0.0,0.0,0.0,0.0,0.0,0.0,0.0,0.0,0.0,0.0,0.0,0.0,0.0,0.0,0.0,0.0,0.0,0.0,0.0,0.0,0.0,0.0,0.0,0.0,0.0,0.0,0.0,0.0,0.0,0.0,0.0,0.0,0.0,0.0,0.0,0.0,0.0,0.0,0.0,0.0,0.0,0.0,0.0,0.0,0.0,0.0,0.0,0.0,0.0,0.0,0.0,0.0,0.0,0.0,0.0,0.0,0.0,0.0,0.0,0.0,-3.0419,-3.038,-3.0057,-2.9926,-2.9856,-2.9822,-2.9459,-2.8458,-2.7026,-2.6733,0.0,0.0,0.0,0.0,0.0,0.0,0.0,0.0,0.0,0.0,0.0,0.0,0.0,0.0,0.0,0.0,0.0,0.0,0.0,0.0,0.0,-2.3797,-2.3775,-2.3721,-2.3703,-2.3721,-2.3711,-2.3711,-2.3711,-2.37,-2.3711,-2.4006,-2.4655,-2.4667,-2.5043,-2.5797,-2.5873,-2.5973,-2.6139,-2.6259,-2.6238,-2.6122,-2.6289,0.0,0.0,0.0,0.0,0.0,0.0,0.0,0.0,0.0,0.0,0.0,0.0,0.0,0.0,0.0,0.0,0.0,0.0,0.0,0.0,0.0,0.0,0.0,0.0,0.0,0.0,0.0,0.0,0.0,0.0,0.0,0.0,0.0,0.0,0.0,0.0,0.0,0.0,0.0,0.0,0.0,0.0,0.0,-2.5515,-2.5492,0.0,0.0,0.0,0.0,0.0,0.0,0.0,0.0,0.0,0.0,0.0,0.0,0.0,-3.0701,-3.1456,-3.1469,-3.1828,-3.2467,-3.2395,-3.2329,-3.2256,-3.1845,-3.1628,-3.1518,-3.0553,0.0,-2.7639,-2.6898,0.0,0.0,0.0,0.0,0.0,0.0,0.0,0.0,0.0,0.0,0.0,0.0,0.0,0.0,0.0,0.0,0.0,0.0,0.0,0.0,0.0,-2.3732,-2.3721,-2.37,-2.37,-2.3678,-2.3652,-2.4064,-2.4107,-2.3614,-2.406,-2.425,-2.4131,-2.4578,-2.5298,-2.6322,-2.726,-2.7812,-2.8009,-2.8961,-2.9426,-2.9481,-2.901,-2.819,-2.7156,-2.7196,0.0,0.0,0.0,0.0,0.0,0.0,0.0,0.0,0.0,0.0,0.0,0.0,0.0,0.0,0.0,0.0,0.0,0.0,0.0,0.0,0.0,0.0,0.0,0.0,0.0,0.0,0.0,0.0,0.0,0.0,0.0,0.0,0.0,0.0,0.0,0.0,0.0,0.0,0.0,-2.5906,-2.601,-2.5546,-2.5905,-2.597,0.0,0.0,0.0,0.0,0.0,0.0,0.0,0.0,0.0,-3.1756,-3.1814,-3.1987,-3.2372,-3.2372,-3.2506,-3.2797,-3.2792,-3.2699,-3.2465,-3.2213,-3.2018,-3.1818,-3.1191,-3.0503,-2.9689,-2.797,-2.6531,-2.5356,0.0,0.0,0.0,0.0,-2.4493,-2.4879,0.0,0.0,0.0,0.0,0.0,0.0,0.0,0.0,0.0,0.0,0.0,0.0,-2.3667,-2.3864,-2.39,-2.3663,-2.3842,-2.3928,-2.3877,-2.4253,-2.4277,-2.3826,-2.423,-2.4378,-2.4164,-2.5416,-2.65,-2.7353,-2.8824,-2.9635,-2.9856,-3.1117,-3.1745,-3.1793,-3.115,-2.995,-2.8378,-2.8165,-2.8114,0.0,0.0,0.0,0.0,0.0,0.0,0.0,0.0,0.0,0.0,0.0,0.0,0.0,0.0,0.0,0.0,0.0,0.0,0.0,0.0,0.0,0.0,0.0,0.0,0.0,0.0,0.0,0.0,0.0,0.0,0.0,0.0,0.0,0.0,0.0,0.0,0.0,0.0,-2.6195,-2.6397,-2.5604,-2.6419,-2.6691,0.0,0.0,0.0,0.0,0.0,0.0,-3.0615,-3.0731,-3.1404,-3.2852,-3.3122,-3.3333,-3.3564,-3.3776,-3.3934,-3.4064,-3.4152,-3.4047,-3.3729,-3.3545,-3.3226,-3.2795,-3.2238,-3.1911,-3.1531,-2.931,-2.7714,-2.6586,-2.6164,-2.565,-2.5089,-2.4887,-2.5181,-2.5705,0.0,0.0,0.0,0.0,0.0,0.0,0.0,0.0,0.0,0.0,0.0,-2.3607,-2.3607,-2.4288,-2.4408,-2.357,-2.4212,-2.4653,-2.4641,-2.3981,-2.3891,-2.4605,-2.3951,-2.4219,-2.5658,-2.8214,-2.958,-2.9637,-3.0729,-3.1287,-3.1299,-3.1372,-3.1482,-3.1612,-3.1575,-3.1177,-3.0491,-2.9734,-2.9416,-2.9398,0.0,0.0,0.0,0.0,0.0,0.0,0.0,0.0,0.0,0.0,0.0,0.0,0.0,0.0,0.0,0.0,0.0,0.0,0.0,0.0,0.0,0.0,0.0,0.0,0.0,0.0,0.0,0.0,0.0,0.0,0.0,0.0,0.0,0.0,0.0,0.0,0.0,0.0,0.0,-2.5604,-2.694,0.0,0.0,0.0,0.0,-2.8978,-2.9737,-3.0635,-3.1583,-3.1641,-3.2025,-3.2872,-3.3699,-3.4526,-3.5365,-3.6135,-3.6923,-3.7731,-3.7738,-3.7709,-3.7594,-3.708,-3.6379,-3.5539,-3.4228,-3.3256,-3.2399,-3.076,-3.0026,-2.9806,-2.8282,-2.764,-2.7541,-2.6759,-2.6492,-2.6539,0.0,0.0,0.0,0.0,0.0,0.0,0.0,0.0,-2.3539,-2.3539,-2.3539,-2.3736,-2.4254,-2.4557,-2.4807,-2.498,-2.5247,-2.5408,-2.5408,-2.5102,-2.5054,-2.539,-2.5084,-2.5747,-2.7502,-2.8974,-3.0405,-3.1789,-3.2573,-3.3389,-3.4242,-3.4631,-3.4909,-3.504,-3.4345,-3.3761,-3.3131,-3.1024,-3.0168,-3.0161,-2.958,-2.9523,0.0,0.0,0.0,0.0,0.0,0.0,0.0,0.0,0.0,0.0,0.0,0.0,0.0,0.0,0.0,0.0,0.0,0.0,0.0,0.0,0.0,0.0,0.0,0.0,0.0,0.0,0.0,0.0,0.0,0.0,0.0,0.0,0.0,0.0,0.0,0.0,0.0,-2.7979,-2.8958,0.0,-2.9173,-2.9646,-3.0185,-3.0737,-3.1545,-3.2635,-3.4077,-3.4635,-3.5315,-3.6161,-3.6488,-3.6796,-3.7103,-3.7392,-3.77,-3.8007,-3.8007,-3.7784,-3.7385,-3.7186,-3.6745,-3.6099,-3.5625,-3.4926,-3.4105,-3.3537,-3.2069,-3.0099,-2.8998,-2.8264,-2.7695,-2.6906,-2.6924,-2.7365,0.0,0.0,0.0,0.0,0.0,0.0,0.0,0.0,-2.3505,-2.3505,-2.3505,-2.3767,-2.4515,-2.4853,-2.5209,-2.5689,-2.594,-2.5975,-2.5773,-2.5662,-2.5747,-2.6056,-2.6623,-2.7687,-2.9276,-3.0423,-3.1855,-3.3534,-3.4273,-3.514,-3.6121,-3.6415,-3.6708,-3.6929,-3.6131,-3.5657,-3.5335,-3.3208,-3.1867,-3.1135,-3.0212,-3.0011,-3.022,0.0,0.0,0.0,0.0,0.0,0.0,0.0,0.0,0.0,0.0,0.0,0.0,0.0,0.0,0.0,0.0,0.0,0.0,0.0,0.0,0.0,0.0,0.0,0.0,0.0,0.0,0.0,0.0,0.0,0.0,0.0,0.0,0.0,0.0,-2.8727,-2.9618,-3.0179,-3.0931,-3.1501,-3.1758,-3.1996,-3.248,-3.3314,-3.416,-3.5122,-3.6269,-3.6846,-3.7411,-3.7988,-3.8296,-3.843,-3.843,-3.87,-3.8834,-3.8834,-3.8834,-3.8627,-3.825,-3.813,-3.7717,-3.7104,-3.701,-3.626,-3.5132,-3.5132,-3.3679,-3.1329,-3.0528,-2.9732,-2.8906,-2.8117,-2.7989,-2.8172,0.0,0.0,0.0,0.0,0.0,0.0,0.0,-2.3505,-2.3505,-2.3505,-2.3505,-2.3762,-2.438,-2.5158,-2.5649,-2.5702,-2.6274,-2.6415,-2.5817,-2.557,-2.5809,-2.6592,-2.8475,-2.9956,-3.0934,-3.2738,-3.4094,-3.4929,-3.5899,-3.6533,-3.6822,-3.6556,-3.6638,-3.7019,-3.6727,-3.6775,-3.7007,-3.622,-3.4584,-3.2455,-3.1403,-3.1082,-3.113,0.0,0.0,0.0,0.0,0.0,0.0,0.0,0.0,0.0,0.0,0.0,0.0,0.0,0.0,0.0,0.0,0.0,0.0,0.0,0.0,0.0,0.0,0.0,0.0,0.0,0.0,0.0,0.0,0.0,0.0,0.0,0.0,0.0,-2.9599,-3.0998,-3.2048,-3.202,-3.2784,-3.3606,-3.4343,-3.5117,-3.5894,-3.668,-3.7546,-3.8046,-3.8046,-3.8084,-3.8123,-3.8123,-3.8931,-3.9381,-3.9381,-4.0131,-4.0496,-4.0496,-4.0496,-4.0503,-4.0485,-4.0148,-3.9536,-3.8706,-3.8414,-3.7205,-3.5429,-3.5398,-3.4752,-3.3715,-3.2913,-3.2118,-3.1342,-3.0522,-2.9739,-2.8968,0.0,0.0,0.0,0.0,0.0,0.0,0.0,-2.3505,-2.3505,-2.3505,-2.3578,-2.4154,-2.55,-2.5865,-2.6507,-2.7677,-2.7772,-2.7699,-2.7509,-2.6823,-2.6588,-2.7025,-3.0007,-3.1773,-3.205,-3.4316,-3.6244,-3.7761,-3.7956,-3.8655,-3.9807,-3.9536,-3.9635,-3.9978,-3.9093,-3.8663,-3.8614,-3.781,-3.6803,-3.555,-3.3475,-3.2371,-3.1911,0.0,0.0,0.0,0.0,0.0,0.0,0.0,0.0,0.0,0.0,0.0,0.0,0.0,0.0,0.0,0.0,0.0,0.0,0.0,0.0,0.0,0.0,0.0,0.0,0.0,0.0,0.0,0.0,0.0,0.0,0.0,-3.1973,-3.2148,-3.1542,-3.2351,-3.3432,-3.458,-3.545,-3.6246,-3.698,-3.7263,-3.746,-3.7623,-3.845,-3.8931,-3.8931,-4.0085,-4.0758,-4.0758,-4.0989,-4.1104,-4.1104,-4.0708,-4.0496,-4.0496,-4.0496,-4.0408,-4.0215,-4.011,-3.9768,-3.9241,-3.8377,-3.7386,-3.6272,-3.5457,-3.4591,-3.3715,-3.2913,-3.2454,-3.2173,-3.1366,-3.0925,-3.0705,0.0,0.0,0.0,0.0,0.0,0.0,0.0,-2.3505,-2.3505,-2.3505,-2.3616,-2.4275,-2.5811,-2.6081,-2.6748,-2.8174,-2.7843,-2.7538,-2.7606,-2.745,0.0,0.0,0.0,-3.3552,-3.4979,-3.6428,-3.801,-3.974,-3.9662,-4.0139,-4.1119,-4.0854,-4.0939,-4.1298,-4.0379,-4.0079,-4.0198,-3.9263,-3.8481,-3.7723,-3.5936,-3.4453,-3.3184,-3.1996,-3.1608,-3.1583,-3.0749,-3.0498,-3.0481,-3.0121,0.0,0.0,0.0,0.0,0.0,0.0,0.0,0.0,0.0,0.0,0.0,0.0,0.0,0.0,0.0,0.0,0.0,0.0,0.0,0.0,0.0,0.0,0.0,0.0,-3.3945,-3.4453,-3.4355,-3.4744,-3.5762,-3.7743,-3.7753,-3.8015,-3.9071,-3.8864,-3.8765,-3.9076,-3.9861,-4.0354,-4.0354,-4.1623,-4.2335,-4.2335,-4.1981,-4.1788,-4.1788,-4.0931,-4.0496,-4.0496,-4.0496,-4.0433,-4.0278,-4.027,-4.012,-3.9859,-3.9432,-3.8533,-3.7331,-3.6901,-3.5975,-3.4724,0.0,0.0,0.0,0.0,-3.1397,-3.1397,0.0,0.0,0.0,0.0,0.0,0.0,0.0,-2.3505,-2.3505,-2.3505,-2.3598,-2.4181,-2.5552,-2.5841,-2.6444,-2.7702,-2.6986,-2.6584,-2.6819,-2.791,0.0,-3.2092,-3.317,-3.5195,-3.8324,-3.8562,-3.944,-4.1069,-4.1069,-4.1205,-4.1509,-4.1264,-4.1348,-4.1672,-4.1003,-4.1049,-4.159,-4.0428,-3.9663,-3.9115,-3.8317,-3.6783,-3.4785,-3.3174,-3.2609,-3.2549,-3.1659,-3.137,-3.1309,-3.053,0.0,0.0,0.0,0.0,0.0,0.0,0.0,0.0,0.0,0.0,0.0,0.0,0.0,0.0,0.0,0.0,0.0,0.0,0.0,0.0,0.0,0.0,0.0,0.0,-3.5586,-3.6523,-3.7598,-3.7656,-3.8412,-4.0605,-3.9574,-3.9214,-4.0578,-3.9998,-3.9872,-4.0684,-4.1397,-4.1846,-4.1942,-4.2681,0.0,0.0,0.0,-4.1788,-4.1788,-4.0931,-4.0496,-4.0496,-4.0496,-4.0496,-4.0496,-4.0495,-4.0458,-4.0409,-4.0708,-3.9894,-3.8367,-3.8697,-3.7822,-3.6156,-3.4651,-3.3587,-3.2784,-3.2063,-3.1745,-3.1672,0.0,0.0,0.0,0.0,0.0,0.0,0.0,-2.3505,-2.3505,-2.3505,-2.3515,-2.3929,-2.4967,-2.4962,-2.5547,-2.7179,-2.6291,-2.6007,-2.6911,0.0,-3.1465,-3.156,-3.4248,-3.6351,-3.7664,-3.9029,-4.0464,-4.2014,-4.2081,-4.2361,-4.2829,-4.2776,-4.2829,-4.2914,-4.1796,-4.1614,-4.2004,-4.081,-4.0092,-3.9666,-3.8873,-3.7777,-3.6457,-3.4792,-3.4259,-3.4226,-3.271,-3.2179,-3.2169,-3.1998,-3.1514,-3.0999,-3.1053,0.0,0.0,0.0,0.0,0.0,0.0,0.0,0.0,0.0,0.0,0.0,0.0,0.0,0.0,0.0,0.0,0.0,0.0,0.0,0.0,-3.5584,-3.6484,-3.7832,-4.0137,-3.9844,-3.9568,-3.9989,-4.0301,-4.056,-4.0756,-4.0526,-4.0728,-4.1578,-4.1743,-4.2104,-4.2816,-4.3008,-4.3104,-4.3104,-4.2258,-4.1788,-4.1788,-4.0931,-4.0496,-4.0496,-4.0496,0.0,-4.0496,-4.0508,-4.0452,-4.036,-3.9586,-3.9,-3.8558,-3.758,-3.6818,-3.6266,-3.5936,-3.5293,-3.4527,-3.4362,-3.3885,-3.333,0.0,0.0,0.0,0.0,0.0,0.0,0.0,-2.3505,-2.3505,-2.3505,-2.3497,-2.3829,-2.4705,-2.4718,-2.5093,-2.62,-2.6449,-2.6692,0.0,-3.0261,-3.2465,-3.317,-3.5569,-3.7549,-3.8913,-4.0402,-4.1631,-4.2595,-4.284,-4.3094,-4.3339,-4.3339,-4.3392,-4.3425,-4.2687,-4.2468,-4.259,-4.1542,-4.0812,-4.029,-3.9577,-3.8869,-3.7959,-3.5888,-3.5246,-3.5237,-3.3554,-3.2721,-3.2341,-3.1943,-3.1526,-3.1145,-3.0774,-3.0673,-3.0628,0.0,0.0,0.0,0.0,0.0,0.0,0.0,0.0,0.0,0.0,0.0,0.0,0.0,0.0,-3.2989,-3.3886,0.0,-3.5774,-3.7086,-3.8026,-3.9062,-4.0371,-4.0547,-4.0682,-4.1015,-4.1053,-4.1,-4.0869,-4.1145,-4.1513,-4.1878,-4.266,-4.3283,-4.3682,-4.3701,-4.3701,-4.3701,-4.247,-4.1788,-4.1788,-4.0931,-4.0496,-4.0496,-4.0496,-4.0496,-4.0496,-4.0496,-4.046,-4.0398,-4.0129,-3.9742,-3.9248,-3.8432,-3.802,-3.7894,-3.7743,-3.6869,-3.5646,-3.5646,-3.5114,-3.4399,0.0,0.0,0.0,0.0,0.0,0.0,0.0,-2.3505,-2.3505,-2.3505,-2.3486,-2.37,-2.4373,-2.4379,-2.449,-2.4831,-2.663,0.0,0.0,-3.0504,-3.3273,-3.4832,-3.6861,-3.8766,-4.049,-4.1694,-4.2553,-4.3031,-4.3339,-4.3515,-4.3515,-4.3515,-4.3513,-4.3565,-4.3268,-4.3087,-4.2941,-4.2176,-4.1397,-4.061,-4.0205,-3.9608,-3.8721,-3.6603,-3.5979,-3.5991,-3.4344,-3.3252,-3.2531,-3.1905,-3.1469,-3.108,-3.0446,-3.0619,-3.0944,-3.0277,-3.0157,0.0,0.0,0.0,0.0,0.0,0.0,0.0,0.0,-3.1523,-3.2179,-3.2311,-3.3183,-3.4333,-3.5738,-3.6429,-3.7217,-3.8626,-3.9567,-4.0135,-4.0156,-4.0762,-4.1425,-4.2018,-4.1504,-4.1064,-4.0957,-4.1646,-4.2114,-4.2168,-4.3408,-4.4278,-4.4564,-4.4094,-4.3893,-4.4066,-4.2431,-4.1546,-4.1546,-4.0854,-4.0496,-4.0496,-4.0496,-4.0496,-4.0496,-4.0496,-4.0468,-4.0435,-4.0854,-4.0618,-3.9884,-3.9663,-3.9544,-3.9489,-3.9259,-3.8248,-3.6878,-3.6636,-3.5881,-3.5023,0.0,0.0,0.0,0.0,0.0,0.0,0.0,0.0,-2.3505,-2.3505,-2.3395,-2.3372,-2.3448,-2.3237,-2.3071,-2.3019,0.0,0.0,-2.6697,-3.1459,-3.4392,-3.454,-3.7817,-4.0068,-4.1009,-4.1849,-4.2673,-4.3427,-4.348,-4.3515,-4.3515,-4.3515,-4.3496,-4.3479,-4.3123,-4.2807,-4.2541,-4.2271,-4.1373,-4.0108,-4.0471,-3.9438,-3.7626,-3.6856,-3.6739,-3.6769,-3.521,-3.41,-3.3384,-3.3421,-3.2425,-3.1193,-3.1149,-3.0722,-3.0217,-3.0132,0.0,-3.0211,-3.0211,-3.0211,-3.0211,-3.0192,-3.084,-3.1482,0.0,-3.2396,-3.308,-3.3227,-3.4567,-3.5778,-3.5953,-3.7894,-3.9521,-3.972,-4.0446,-4.0995,-4.1055,-4.1133,-4.123,-4.1308,-4.1182,-4.1087,-4.1078,-4.17,-4.2391,-4.31,-4.3204,-4.392,-4.5461,-4.3341,-4.2431,-4.3201,-4.1546,-4.065,-4.065,-4.0554,-4.0496,-4.0496,-4.0496,-4.0496,-4.0496,-4.0496,-4.0503,-4.0493,-4.0503,-4.0263,-3.991,-3.9859,-3.9713,-3.9502,-3.9477,-3.9339,-3.8989,-3.7788,-3.6358,-3.5114,0.0,0.0,0.0,0.0,0.0,0.0,0.0,0.0,0.0,-2.3505,-2.3383,-2.3301,-2.3301,-2.307,-2.2855,-2.2712,0.0,0.0,-2.7285,-3.1249,-3.4086,-3.5162,-3.7765,-3.944,-3.9993,-4.1051,-4.1856,-4.2395,-4.2679,-4.3039,-4.3479,-4.3268,-4.3142,-4.3105,-4.2242,-4.1638,-4.1277,-4.0978,-4.018,-3.9182,-3.9767,-3.8988,-3.7444,-3.6904,-3.6205,-3.5394,-3.4304,-3.3446,0.0,0.0,-3.1781,-3.1118,-3.0641,-3.0641,-3.0715,-3.0243,-3.0142,0.0,-3.0211,-3.0211,-3.0319,-3.0835,-3.124,-3.1706,-3.2301,-3.3199,-3.4073,-3.4715,-3.5862,-3.7048,-3.8022,-3.91,-4.0002,-4.0516,-4.0873,-4.111,-4.1132,-4.1172,-4.1016,-4.0508,-4.0428,-4.0598,-4.1052,-4.1771,-4.2334,-4.2639,-4.3005,-4.3517,-4.4204,-4.2695,-4.1962,-4.2335,-4.1143,-4.0496,-4.0496,-4.0496,-4.0496,-4.0496,-4.0496,-4.0766,-4.1258,-4.1258,-4.1503,-4.195,-4.188,-4.178,-4.1648,-4.1589,-4.1253,-4.0701,-4.0507,-4.0155,-3.9656,-3.8932,-3.7527,-3.6046,0.0,0.0,0.0,0.0,0.0,0.0,0.0,0.0,0.0,0.0,-2.3424,-2.3336,-2.3301,-2.307,-2.2868,0.0,0.0,0.0,0.0,-3.0335,-3.2912,-3.4713,-3.6991,-3.8455,-3.8899,-4.0143,-4.0999,-4.1451,-4.1803,-4.2268,-4.2837,-4.2432,-4.2249,-4.2194,-4.122,-4.0534,-4.0084,-3.974,-3.8998,-3.8099,-3.863,-3.7987,-3.6677,-3.6192,-3.52,-3.4012,-3.3497,-3.27,0.0,0.0,-3.1033,-3.073,-3.0105,-3.0389,-3.0841,-3.0266,-3.0154,-3.0211,-3.0211,-3.0383,-3.0701,-3.1331,-3.1857,-3.2375,-3.31,-3.4226,-3.5321,-3.6089,-3.7178,-3.8355,-3.9585,-3.9995,-4.0369,-4.1,-4.1102,-4.1107,-4.1091,-4.0956,-4.0703,-4.0312,-4.0059,-4.0214,-4.1044,-4.1618,-4.2024,-4.2208,-4.2713,-4.3059,-4.3227,-4.2128,-4.1601,-4.1797,-4.095,-4.0496,-4.0496,-4.0496,-4.0631,-4.0854,-4.0854,-4.1316,-4.2162,-4.2162,-4.2473,-4.3024,-4.2989,-4.2944,-4.2916,-4.2879,-4.2479,-4.1905,-4.1661,-4.1073,-4.0281,-3.9879,-3.8576,-3.7028,0.0,0.0,0.0,0.0,0.0,0.0,0.0,0.0,0.0,0.0,0.0,0.0,0.0,-2.307,-2.2906,0.0,0.0,0.0,0.0,-2.8679,-3.0869,-3.2437,-3.5419,-3.7424,-3.8221,-3.9353,-4.0322,-4.1115,-4.1132,-4.115,-4.1168,-4.0758,-4.0564,-4.0546,-4.0125,-3.97,-3.9314,-3.8975,-3.8099,-3.6958,-3.7116,-3.6216,-3.4761,-3.4419,-3.3841,-3.3246,-3.3291,0.0,0.0,0.0,-3.0635,-2.9934,-2.9916,-2.9999,0.0,-3.0114,-3.0154,-3.0211,-3.0211,-3.0815,-3.1465,-3.1484,-3.2718,-3.3966,-3.4128,-3.5586,-3.6953,-3.7043,-3.8484,-3.9741,-3.98,-4.0483,-4.1072,-4.1098,-4.1099,-4.1102,-4.1091,-4.0428,-4.0233,-4.1055,-4.041,-4.0234,-4.1113,-4.1101,-4.1394,-4.2233,-4.2253,-4.2542,-4.3263,-4.1678,-4.1061,-4.1777,-4.095,-4.0496,-4.0496,-4.0496,-4.0912,-4.175,-4.175,-4.222,-4.3066,-4.3066,-4.3066,-4.3104,-4.3085,-4.306,-4.3007,-4.2988,-4.2907,-4.2757,-4.2747,-4.2221,-4.1351,-4.0578,-3.9244,-3.7856,0.0,0.0,0.0,0.0,0.0,0.0,0.0,0.0,0.0,0.0,0.0,0.0,0.0,0.0,0.0,0.0,0.0,0.0,0.0,-2.737,-2.9266,-3.08,-3.3263,-3.4991,-3.5786,-3.6936,-3.79,-3.8707,-3.8707,-3.8982,-3.9499,-3.8829,-3.851,-3.8456,-3.7302,-3.6774,-3.6753,-3.6276,-3.5987,-3.5812,-3.5605,-3.4958,-3.41,-3.3605,-3.2631,-3.1557,0.0,0.0,0.0,-3.0488,-3.0143,-2.9897,-2.9897,-2.998,-3.011,-3.0154,-3.0591,-3.1064,-3.1064,-3.1675,-3.2565,-3.3681,-3.4419,-3.5174,-3.6316,-3.6773,-3.7093,-3.7715,-3.7534,-3.7633,-3.8785,-3.8765,-3.8942,-4.0057,-4.0277,-4.0495,-4.1025,-4.0875,-4.0604,-4.037,-4.0078,-4.0019,-4.0312,-4.0819,-4.1246,-4.1559,-4.147,-4.1504,-4.177,-4.1097,-4.0814,-4.1061,-4.074,-4.0827,-4.1354,-4.1354,-4.1797,-4.2662,-4.3201,-4.3605,-4.3912,-4.4489,-4.4767,-4.4767,-4.4767,-4.4759,-4.4722,-4.4668,-4.4333,-4.3731,-4.3053,-4.2288,-4.1399,-3.9957,-3.9342,-3.9039,0.0,0.0,0.0,0.0,0.0,0.0,0.0,0.0,0.0,0.0,0.0,0.0,0.0,0.0,0.0,0.0,0.0,0.0,0.0,0.0,-2.7367,-2.8627,-3.0428,-3.1783,-3.2571,-3.3793,-3.4818,-3.5634,-3.6296,-3.6876,-3.7374,-3.6906,-3.6684,-3.6631,-3.537,-3.4745,-3.4646,-3.4069,-3.3882,-3.3867,-3.3571,-3.3237,-3.2884,-3.2339,-3.1565,0.0,0.0,0.0,0.0,-3.0061,-2.9897,-2.9897,-2.9897,-2.998,-3.011,-3.015,-3.0992,-3.1935,-3.1935,-3.2967,-3.4323,-3.5392,-3.5914,-3.6367,-3.7185,-3.7333,-3.7297,-3.7293,-3.682,-3.6758,-3.7925,-3.7419,-3.7399,-3.9097,-3.914,-3.9379,-4.0513,-4.0402,-4.023,-4.031,-4.0077,-4.0019,-4.0332,-4.0879,-4.1191,-4.1191,-4.1126,-4.1052,-4.0996,-4.0877,-4.0926,-4.1193,-4.1132,-4.1489,-4.2297,-4.2279,-4.2701,-4.3547,-4.4374,-4.4759,-4.4778,-4.5344,-4.5594,-4.5594,-4.5594,-4.5594,-4.5594,-4.5559,-4.5225,-4.4669,-4.3991,-4.3025,-4.1819,-4.01,-3.9309,-3.8914,0.0,0.0,0.0,0.0,0.0,0.0,0.0,0.0,0.0,0.0,0.0,0.0,0.0,0.0,0.0,0.0,0.0,0.0,0.0,0.0,0.0,-2.5939,-2.7107,-2.81,-2.8873,-3.018,-3.1266,-3.2096,-3.383,-3.4659,-3.4669,-3.4767,-3.483,-3.4813,-3.408,-3.345,-3.2891,-3.2302,-3.1788,-3.1292,-3.1142,-3.1094,-3.1091,-3.066,0.0,0.0,0.0,0.0,0.0,-2.9907,-2.9897,-2.9916,-2.9905,-3.0007,-3.0129,-3.0208,-3.1447,-3.2795,-3.2871,-3.4686,-3.6576,-3.6615,-3.7177,-3.7528,-3.6864,-3.7329,-3.7467,-3.5988,-3.6307,-3.6899,-3.7116,-3.6459,-3.6461,-3.8295,-3.7906,-3.7968,-3.9713,-3.9283,-3.9366,-4.0915,-4.0467,-4.0331,-4.1113,-4.1191,-4.1191,-4.1191,-4.1191,-4.1149,-4.1021,-4.1056,-4.1381,-4.2085,-4.2091,-4.2452,-4.3252,-4.3235,-4.3605,-4.4374,-4.521,-4.5594,-4.5594,-4.5594,-4.5594,-4.5594,-4.5594,-4.5594,-4.5594,-4.5594,-4.5568,-4.5504,-4.539,-4.4308,-4.2604,-4.096,-3.926,-3.7706,0.0,0.0,0.0,0.0,0.0,0.0,0.0,0.0,0.0,0.0,0.0,0.0,0.0,0.0,0.0,0.0,0.0,0.0,0.0,0.0,0.0,0.0,0.0,0.0,0.0,0.0,0.0,0.0,0.0,-3.0084,-3.0223,-2.9847,-2.9778,-2.9875,-2.9397,-2.9149,-2.9113,-2.9042,-2.9452,-3.0082,0.0,-2.9644,-3.0233,0.0,0.0,0.0,0.0,0.0,0.0,0.0,-2.994,-2.9972,-3.003,-3.0076,-3.0368,-3.1665,-3.2806,-3.3949,-3.5182,-3.6443,-3.7559,-3.8209,-3.8037,-3.7816,-3.8273,-3.7213,-3.6022,-3.5626,-3.4357,-3.3682,-3.498,-3.4571,-3.5028,-3.7966,-3.836,-3.8864,-4.0566,-4.1155,-4.1356,-4.1127,-4.1481,-4.1601,-4.123,-4.1191,-4.1191,-4.1191,-4.1191,-4.1191,-4.115,-4.1664,-4.2054,-4.2244,-4.2804,-4.3467,-4.4163,-4.47,-4.5075,-4.5267,-4.5498,-4.5594,-4.5594,-4.5594,-4.5594,-4.5594,-4.5594,-4.5594,-4.5594,-4.5594,-4.5586,-4.551,-4.4842,-4.3921,-4.2809,-4.1684,-4.0202,-3.8685,0.0,0.0,0.0,0.0,0.0,0.0,0.0,0.0,0.0,0.0,0.0,0.0,0.0,0.0,0.0,0.0,0.0,0.0,0.0,0.0,0.0,0.0,0.0,0.0,0.0,0.0,0.0,0.0,0.0,0.0,0.0,-2.8838,-2.9044,-2.9141,-2.8767,-2.85,-2.8314,0.0,0.0,0.0,0.0,0.0,0.0,0.0,0.0,0.0,0.0,0.0,0.0,0.0,0.0,-3.0584,-3.0613,-3.0879,-3.1463,-3.2821,-3.4105,-3.5381,-3.668,-3.7922,-3.8954,-3.9451,-3.8916,-3.8313,-3.8445,-3.6888,-3.5225,-3.4544,-3.304,-3.217,-3.3165,-3.3034,-3.3641,-3.6309,-3.7143,-3.8043,-3.9762,-4.1054,-4.1645,-4.1162,-4.1869,-4.2068,-4.125,-4.1172,-4.1191,-4.1191,-4.1191,-4.1348,-4.1719,-4.2126,-4.2687,-4.3465,-4.3875,-4.4417,-4.5115,-4.5512,-4.5725,-4.5696,-4.57,-4.5651,-4.5594,-4.5594,-4.5594,-4.5594,-4.5594,-4.5594,-4.5594,-4.5594,-4.5594,-4.5547,-4.5042,-4.4313,-4.3401,-4.2122,-4.0811,-3.9482,0.0,0.0,0.0,0.0,0.0,0.0,0.0,0.0,0.0,0.0,0.0,0.0,0.0,0.0,0.0,0.0,0.0,0.0,0.0,0.0,0.0,0.0,0.0,0.0,0.0,0.0,0.0,0.0,0.0,0.0,0.0,0.0,0.0,0.0,0.0,0.0,0.0,0.0,0.0,0.0,0.0,0.0,0.0,0.0,0.0,0.0,0.0,0.0,0.0,0.0,-3.0406,-3.1295,-3.1305,-3.1897,-3.2824,-3.3912,-3.531,-3.6729,-3.7769,-3.9145,-4.0301,-4.0301,-3.9565,-3.8619,-3.7821,-3.6241,-3.456,-3.3112,-3.2141,-3.1608,-3.1829,-3.2033,-3.2725,-3.4464,-3.5535,-3.6768,-3.8512,-4.0114,-4.1091,-4.1098,-4.1864,-4.2064,-4.1189,-4.1152,-4.123,-4.1348,-4.1367,-4.166,-4.2363,-4.2617,-4.3496,-4.5117,-4.504,-4.5279,-4.5924,-4.5909,-4.5861,-4.5815,-4.5815,-4.5745,-4.5637,-4.5629,-4.5612,-4.5594,-4.5594,-4.5594,-4.5594,-4.5594,-4.5594,-4.5586,-4.555,-4.5033,-4.414,-4.2724,-4.1449,-4.0106,0.0,0.0,0.0,0.0,0.0,0.0,0.0,0.0,0.0,0.0,-2.3336,-2.3389,0.0,0.0,0.0,0.0,0.0,0.0,0.0,0.0,0.0,0.0,0.0,0.0,0.0,0.0,0.0,0.0,0.0,0.0,0.0,0.0,0.0,0.0,0.0,0.0,0.0,0.0,0.0,0.0,0.0,0.0,0.0,0.0,0.0,0.0,0.0,0.0,0.0,0.0,-3.041,-3.1305,-3.1371,-3.1981,-3.3131,-3.5384,-3.6262,-3.6997,-3.9231,-4.0072,-4.0301,-4.0301,-3.9107,-3.7712,-3.6918,-3.4917,-3.2972,-3.2038,-3.1239,-3.0925,-3.1615,-3.241,-3.3549,-3.5231,-3.6297,-3.7537,-3.9348,-4.0464,-4.1091,-4.1098,-4.1862,-4.2061,-4.1189,-4.1112,-4.1425,-4.2148,-4.2187,-4.2246,-4.2383,-4.3769,-4.5019,-4.6035,-4.5938,-4.5948,-4.6053,-4.5959,-4.5885,-4.5886,-4.5881,-4.5844,-4.5775,-4.5759,-4.5696,-4.5594,-4.5594,-4.5594,-4.5594,-4.5594,-4.5594,-4.5594,-4.5586,-4.5058,-4.4338,-4.4716,-4.2989,-4.0504,0.0,0.0,0.0,0.0,0.0,0.0,0.0,-2.3444,-2.3271,-2.3117,-2.3067,-2.3096,-2.3283,-2.3522,0.0,0.0,0.0,0.0,0.0,0.0,0.0,0.0,0.0,0.0,0.0,0.0,0.0,0.0,0.0,0.0,0.0,0.0,0.0,0.0,0.0,0.0,0.0,0.0,0.0,0.0,0.0,0.0,0.0,0.0,0.0,0.0,0.0,0.0,0.0,0.0,-2.928,-3.0617,-3.1207,-3.231,-3.3796,-3.5889,-3.6806,-3.7597,-3.9709,-4.0301,-4.0301,-4.0301,-3.8658,-3.6967,-3.6596,-3.4205,-3.1979,-3.1613,-3.0932,-3.0512,-3.0892,-3.2167,-3.3406,-3.4225,-3.5537,-3.7088,-3.8831,-3.9848,-4.0582,-4.1055,-4.1879,-4.2058,-4.1184,-4.111,-4.1463,-4.2323,-4.2812,-4.3262,-4.373,-4.498,-4.5879,-4.6289,-4.6246,-4.6201,-4.6201,-4.614,-4.6069,-4.5998,-4.6001,-4.5946,-4.5845,-4.5856,-4.5828,-4.5757,-4.5715,-4.5688,-4.5708,-4.5629,-4.5594,-4.5594,-4.5594,-4.5344,-4.497,-4.4895,-4.3868,-4.2341,0.0,0.0,0.0,0.0,0.0,0.0,0.0,-2.3318,-2.3038,-2.2952,-2.2879,-2.2927,-2.3218,-2.3481,-2.3611,0.0,0.0,0.0,0.0,0.0,0.0,0.0,0.0,0.0,0.0,0.0,0.0,-2.3205,0.0,0.0,0.0,0.0,0.0,0.0,0.0,0.0,0.0,0.0,0.0,0.0,0.0,0.0,0.0,0.0,0.0,0.0,0.0,0.0,0.0,0.0,-2.7957,-2.945,-3.0483,-3.2168,-3.4044,-3.5736,-3.6795,-3.7827,-3.9537,-4.0148,-4.0263,-4.0072,-3.8257,-3.6405,-3.6042,-3.3616,-3.1377,-3.1247,-3.0719,-3.0286,-3.0311,-3.1661,-3.2835,-3.3049,-3.447,-3.6155,-3.7876,-3.8911,-3.9909,-4.0971,-4.1699,-4.1937,-4.1431,-4.138,-4.1735,-4.2615,-4.3652,-4.4551,-4.5234,-4.5937,-4.6308,-4.6308,-4.6308,-4.6308,-4.6308,-4.6308,-4.6244,-4.6145,-4.6134,-4.6064,-4.5936,-4.5931,-4.5929,-4.5896,-4.584,-4.5822,-4.5802,-4.57,-4.5665,-4.5665,-4.5665,-4.5668,-4.5558,-4.4875,-4.4485,-4.4008,0.0,0.0,0.0,0.0,0.0,0.0,0.0,-2.3146,-2.2876,-2.2511,-2.2914,-2.3114,-2.2803,-2.3157,-2.34,0.0,0.0,0.0,0.0,0.0,0.0,0.0,0.0,0.0,0.0,0.0,0.0,-2.3551,-2.3694,0.0,0.0,0.0,0.0,0.0,0.0,-2.3905,0.0,0.0,0.0,0.0,0.0,0.0,0.0,0.0,0.0,0.0,0.0,0.0,0.0,0.0,0.0,-2.7705,-2.8639,-3.0738,-3.3158,-3.4819,-3.5927,-3.6978,-3.8667,-3.9699,-4.011,-3.9317,-3.7799,-3.6099,-3.4579,-3.2802,-3.1262,-3.0475,-3.0252,-3.0227,-3.0286,-3.1092,-3.2011,-3.2863,-3.3819,-3.5092,-3.6965,-3.7982,-3.9175,-4.0891,-4.1168,-4.1503,-4.2212,-4.2272,-4.2648,-4.3513,-4.5117,-4.6094,-4.6172,-4.6269,-4.6308,-4.6308,-4.6308,-4.6308,-4.6308,-4.6308,-4.6289,-4.6289,-4.6287,-4.6216,-4.608,-4.6086,-4.6017,-4.5901,-4.5891,-4.589,-4.5883,-4.5872,-4.5872,-4.5872,-4.5872,-4.5841,-4.5766,-4.5689,-4.5071,-4.4259,0.0,0.0,0.0,0.0,0.0,0.0,-2.3369,-2.3164,-2.2927,-2.2777,-2.2803,-2.2764,-2.2609,-2.2889,-2.3102,-2.3132,0.0,0.0,0.0,0.0,0.0,0.0,0.0,0.0,0.0,0.0,0.0,-2.3663,-2.3689,0.0,0.0,0.0,0.0,0.0,0.0,-2.3754,-2.3754,0.0,0.0,0.0,0.0,0.0,0.0,0.0,0.0,0.0,0.0,0.0,-2.4519,-2.5067,0.0,0.0,-2.7025,-2.8679,0.0,0.0,-3.5076,-3.608,-3.7769,-3.8476,-3.8648,-3.8304,-3.6585,-3.4827,-3.4147,-3.2313,-3.0612,-3.0275,-3.02,-3.0214,-3.0234,-3.0983,-3.1885,-3.2787,0.0,0.0,-3.6647,-3.6853,-3.7808,-4.0581,-4.0992,-4.1367,-4.2203,-4.2822,-4.3544,-4.4412,-4.5604,-4.6308,-4.6308,-4.6308,-4.6308,-4.6308,-4.6308,-4.6308,-4.6308,-4.6308,-4.6308,-4.6308,-4.6308,-4.6268,-4.6223,-4.6218,-4.6186,-4.6147,-4.6063,-4.601,-4.601,-4.5935,-4.5896,-4.5899,-4.5899,-4.5872,-4.5852,-4.5852,-4.5608,-4.5176,0.0,0.0,0.0,0.0,0.0,-2.3369,-2.3318,-2.3079,-2.2889,-2.2876,-2.2699,-2.2538,-2.2501,-2.2685,-2.2829,-2.2855,-2.3163,0.0,0.0,0.0,0.0,0.0,0.0,0.0,0.0,0.0,0.0,-2.3721,-2.3725,-2.3725,0.0,0.0,-2.3725,-2.3725,0.0,0.0,0.0,0.0,0.0,0.0,0.0,0.0,0.0,0.0,0.0,0.0,0.0,0.0,0.0,0.0,0.0,0.0,0.0,0.0,0.0,0.0,-3.3815,-3.5152,-3.6585,-3.7311,-3.7578,-3.7082,-3.5458,-3.3861,-3.3356,-3.1656,-3.0211,-3.0211,-3.0206,-3.02,-3.02,-3.0733,-3.1476,0.0,0.0,-3.3702,-3.5831,-3.6091,-3.7055,-3.9746,-4.0143,-4.0623,-4.168,-4.2927,-4.4136,-4.524,-4.5931,-4.6307,-4.6308,-4.6308,-4.6308,-4.6308,-4.6308,-4.6308,-4.6308,-4.6308,-4.6308,-4.6308,-4.6308,-4.6308,-4.6308,-4.6308,-4.6307,-4.6287,-4.6209,-4.6169,-4.6155,-4.6053,-4.6022,-4.6021,-4.6021,-4.5981,-4.5969,-4.5969,-4.5775,-4.5384,0.0,0.0,0.0,0.0,0.0,0.0,-2.3139,-2.2881,-2.2672,-2.2605,-2.2659,-2.2646,-2.2515,-2.2569,-2.2582,-2.2515,-2.2927,0.0,0.0,0.0,0.0,0.0,0.0,0.0,0.0,0.0,0.0,-2.3804,-2.3792,-2.3795,-2.3795,-2.3795,-2.3795,-2.3795,0.0,0.0,0.0,0.0,0.0,0.0,0.0,0.0,0.0,0.0,0.0,0.0,0.0,0.0,0.0,0.0,0.0,0.0,0.0,-2.6613,-2.7785,0.0,-3.2026,-3.4186,-3.4999,-3.6432,-3.7292,-3.5649,-3.4617,-3.3547,-3.1828,-3.0796,-3.0211,-3.0211,-3.0211,-3.0211,-3.0211,-3.0213,-3.0514,-3.1462,-3.2339,0.0,-3.4199,-3.5817,-3.7244,-3.822,-3.833,-3.8987,-4.0658,-4.2503,-4.4281,-4.5952,-4.6223,-4.6304,-4.6307,-4.6307,-4.6308,-4.6308,-4.6308,-4.6308,-4.6308,-4.6308,-4.6308,-4.6308,-4.6308,-4.6308,-4.6308,-4.6308,-4.6308,-4.6307,-4.6307,-4.6305,-4.6301,-4.6301,-4.6297,-4.6293,-4.6293,-4.6204,-4.6098,-4.6098,-4.5479,-4.451,0.0,0.0,0.0,0.0,0.0,0.0,0.0,-2.2881,-2.2685,-2.2672,-2.2685,-2.2685,-2.2632,-2.2659,-2.2632,-2.2565,-2.2829,0.0,0.0,0.0,0.0,0.0,0.0,0.0,0.0,0.0,0.0,-2.3792,-2.3795,-2.3742,-2.3682,-2.3803,-2.3792,-2.3682,-2.3813,-2.3837,0.0,0.0,0.0,0.0,0.0,0.0,0.0,0.0,0.0,0.0,0.0,0.0,0.0,0.0,0.0,0.0,0.0,0.0,0.0,-2.7746,-3.0087,-3.2477,-3.3272,-3.3883,-3.4151,-3.3616,-3.2898,-3.2153,-3.1599,-3.0815,-3.0211,-3.0211,-3.0211,-3.0211,-3.0211,-3.0194,-3.0514,-3.1443,-3.2339,0.0,-3.4102,-3.5213,-3.691,-3.9502,-4.0893,-4.1892,-4.2529,-4.3106,-4.3929,-4.5059,-4.569,-4.6066,-4.6156,-4.6163,-4.6218,-4.6308,-4.6308,-4.6308,-4.6308,-4.6308,-4.6308,-4.6308,-4.6308,-4.6308,-4.6308,-4.6308,-4.6308,-4.6308,-4.6308,-4.6307,-4.6306,-4.6306,-4.6303,-4.6299,-4.6295,-4.6266,-4.6232,-4.6245,-4.6036,-4.5624,0.0,0.0,0.0,0.0,0.0,0.0,0.0,-2.2803,-2.2699,-2.2699,-2.2699,-2.2699,-2.2699,-2.2699,-2.2685,-2.2632,-2.2751,0.0,0.0,0.0,0.0,0.0,0.0,0.0,0.0,0.0,-2.3732,-2.3728,-2.3653,-2.3565,-2.3499,-2.3627,-2.3616,-2.3481,-2.3609,0.0,0.0,0.0,0.0,0.0,0.0,0.0,-2.3886,0.0,0.0,0.0,0.0,0.0,0.0,0.0,0.0,0.0,0.0,0.0,0.0,0.0,-2.8404,-3.0573,-3.1705,-3.2237,-3.2408,-3.2096,-3.164,-3.12,-3.0959,-3.0479,-3.0113,-3.0178,-3.0211,-3.0211,-3.0211,-3.0206,-3.0379,-3.0975,-3.2075,-3.3049,-3.3641,-3.4717,-3.6351,-3.8777,-4.0636,-4.1885,-4.2265,-4.2654,-4.3361,-4.4547,-4.5133,-4.5618,-4.6001,-4.6078,-4.6136,-4.6223,-4.6269,-4.6308,-4.6308,-4.6308,-4.6308,-4.6308,-4.6308,-4.6308,-4.6308,-4.6308,-4.6113,-4.5801,-4.5801,-4.5625,0.0,-4.5312,-4.533,-4.5344,-4.5673,-4.5806,-4.582,-4.5814,-4.5812,-4.5574,0.0,0.0,0.0,0.0,0.0,0.0,0.0,-2.2699,-2.2699,-2.2699,-2.2699,-2.2699,-2.2699,-2.2699,-2.2699,-2.2699,0.0,0.0,0.0,0.0,0.0,0.0,0.0,0.0,0.0,-2.3671,-2.358,-2.3571,-2.3448,-2.3377,-2.3365,-2.343,-2.343,-2.3365,-2.3377,0.0,0.0,0.0,0.0,0.0,-2.3896,-2.3937,0.0,0.0,0.0,0.0,0.0,0.0,0.0,0.0,0.0,0.0,0.0,0.0,0.0,0.0,0.0,0.0,0.0,-3.1288,-3.1731,-3.0997,-3.081,-3.0641,-3.0009,0.0,0.0,-3.0142,-3.0164,-3.0164,-3.0185,-3.0197,-3.0204,-3.0284,-3.1701,-3.284,-3.2967,-3.4548,-3.5926,-3.6615,-3.8334,-3.9727,-4.0342,-4.1368,-4.2621,-4.4188,-4.4482,-4.4909,-4.5672,-4.5839,-4.5894,-4.5906,-4.6026,-4.6152,-4.6308,-4.6308,-4.6308,-4.6308,-4.6308,-4.6269,-4.6211,-4.6211,-4.5723,-4.4902,-4.4902,-4.4453,-4.3691,-4.3691,-4.369,-4.3782,-4.4583,-4.4909,-4.4896,-4.4836,-4.4855,-4.4524,0.0,0.0,0.0,0.0,0.0,0.0,0.0,0.0,0.0,0.0,-2.2699,-2.2699,-2.2699,-2.2699,-2.2699,0.0,0.0,0.0,0.0,0.0,0.0,0.0,0.0,0.0,0.0,-2.3417,-2.3365,-2.3372,-2.3897,-2.4068,-2.3933,-2.4706,-2.464,-2.3928,-2.4131,0.0,0.0,0.0,0.0,0.0,-2.3896,-2.3986,0.0,0.0,0.0,0.0,-2.3966,-2.3986,0.0,0.0,0.0,0.0,0.0,0.0,0.0,0.0,-2.5799,-2.6465,-2.8081,0.0,-3.0143,-2.9945,-2.9908,-2.9861,0.0,0.0,0.0,0.0,0.0,0.0,0.0,0.0,-3.0243,-3.1054,-3.2103,-3.3032,-3.3716,-3.644,-3.7962,-3.6827,-3.9373,-4.0777,-3.9688,-4.097,-4.2013,-4.2399,-4.3073,-4.3578,-4.3814,-4.3854,-4.3928,-4.4036,-4.4075,-4.4805,-4.6289,-4.6308,-4.6308,-4.6308,-4.6308,-4.5957,-4.5312,-4.5312,-4.4824,-4.4004,-4.4004,-4.3887,-4.3691,-4.3691,-4.3691,-4.371,-4.3924,-4.402,-4.392,-4.3268,-4.3439,-4.3633,0.0,0.0,0.0,0.0,0.0,0.0,0.0,0.0,0.0,0.0,0.0,0.0,0.0,0.0,0.0,0.0,0.0,0.0,0.0,0.0,0.0,0.0,0.0,0.0,0.0,-2.3613,-2.3691,-2.3666,-2.4336,-2.4613,-2.4521,-2.5073,-2.4832,-2.3962,-2.3887,0.0,0.0,0.0,0.0,-2.366,-2.3806,0.0,0.0,0.0,0.0,0.0,-2.4026,-2.4054,0.0,-2.4084,-2.4133,-2.419,0.0,0.0,0.0,0.0,-2.5079,-2.5668,-2.6906,-2.7999,-2.8859,-2.9221,-2.9314,-2.9363,-2.9445,0.0,0.0,0.0,0.0,0.0,0.0,0.0,-3.0137,-3.1305,-3.213,-3.3226,-3.4963,-3.7203,-3.8435,-3.7871,-3.9815,-4.0841,-3.9946,-4.0673,-4.1373,-4.1769,-4.2239,-4.2683,-4.3122,-4.3182,-4.3232,-4.3315,-4.3378,-4.3919,-4.4995,-4.5015,-4.5238,-4.5659,-4.5249,-4.5037,-4.498,-4.459,-4.3926,-4.3105,-4.3105,-4.2891,-4.2558,-4.2558,-4.2324,-4.1992,-4.2362,-4.2283,-4.191,-4.1436,-4.1785,-4.2195,0.0,0.0,0.0,0.0,0.0,0.0,0.0,0.0,0.0,0.0,0.0,0.0,0.0,0.0,0.0,0.0,0.0,0.0,0.0,0.0,0.0,0.0,0.0,-2.3114,-2.3289,-2.3852,-2.4112,-2.4059,-2.4801,-2.5178,-2.5178,-2.5298,-2.4853,-2.3971,-2.3328,0.0,0.0,0.0,-2.3445,-2.3606,-2.3639,0.0,0.0,0.0,0.0,0.0,0.0,0.0,0.0,-2.4103,-2.4151,-2.417,-2.4113,0.0,0.0,0.0,0.0,0.0,-2.6355,-2.7079,-2.7831,-2.8767,-2.9005,-2.9044,-2.9217,0.0,0.0,0.0,0.0,0.0,0.0,-2.9689,0.0,-3.1249,-3.2124,-3.3543,-3.6097,-3.728,-3.8145,-3.8843,-3.9835,-4.0436,-4.0301,-4.0419,-4.0808,-4.155,-4.1596,-4.1931,-4.2662,-4.2628,-4.2602,-4.2596,-4.259,-4.2606,-4.2673,-4.307,-4.3685,-4.446,-4.3603,-4.3537,-4.4157,-4.3436,-4.2616,-4.1796,-4.1816,-4.1426,-4.0801,-4.0801,-4.0371,-3.9764,-4.0448,-4.031,-3.9681,-3.9544,-4.0013,-4.052,0.0,0.0,0.0,0.0,0.0,0.0,0.0,0.0,0.0,0.0,0.0,0.0,0.0,0.0,0.0,0.0,0.0,0.0,0.0,0.0,0.0,0.0,0.0,-2.2777,-2.2816,-2.3504,-2.3857,-2.3843,-2.5247,-2.5921,-2.5939,-2.6626,-2.6178,-2.4764,-2.3377,-2.2764,-2.2764,-2.3028,-2.3163,-2.3211,-2.3375,0.0,0.0,0.0,0.0,0.0,0.0,0.0,0.0,-2.417,-2.4161,-2.4103,-2.4103,0.0,0.0,0.0,0.0,0.0,-2.6209,-2.6654,-2.7061,-2.8608,-2.9005,-2.9017,0.0,0.0,0.0,0.0,0.0,0.0,0.0,-2.9484,-2.9756,-3.1042,-3.2656,-3.4345,-3.6016,-3.7205,-3.7953,-3.8068,-3.9457,-4.0136,-3.9388,-4.0024,-4.0548,-4.0683,-4.0704,-4.0766,-4.09,-4.025,-3.9906,-3.9887,-3.9203,-3.8852,-3.8923,-4.1178,-4.2399,-4.251,-4.1707,-4.0992,-4.0424,-4.0411,-3.9899,-3.9021,-3.9137,-3.9101,-3.9004,-3.9004,-3.8926,-3.8808,-3.8945,-3.8906,-3.8711,-3.7967,-3.824,-3.8942,0.0,0.0,0.0,0.0,0.0,0.0,0.0,0.0,0.0,0.0,0.0,0.0,0.0,0.0,0.0,0.0,0.0,0.0,0.0,0.0,0.0,0.0,-2.2699,-2.2699,-2.2699,-2.3853,-2.4439,-2.4439,-2.5988,-2.6747,-2.6747,-2.6264,-2.5678,-2.4936,-2.3388,-2.2699,-2.2712,-2.2829,-2.2982,-2.3119,0.0,0.0,0.0,0.0,0.0,0.0,0.0,0.0,0.0,0.0,-2.4044,-2.4094,-2.4064,0.0,0.0,0.0,0.0,0.0,-2.6112,-2.6551,-2.6936,-2.8549,-2.8917,-2.8881,0.0,0.0,0.0,0.0,0.0,0.0,0.0,0.0,-3.0313,-3.1921,-3.3355,-3.4822,-3.6405,-3.7204,-3.7975,-3.888,-3.9803,-4.018,-3.9787,-4.0166,-4.0257,-3.9821,-3.9807,-3.96,-3.9161,-3.8796,-3.8604,-3.8604,-3.82,-3.8015,-3.8055,-3.8806,-3.9684,-4.0682,-3.9835,-3.949,-3.9588,-3.9171,-3.8753,-3.8344,-3.8406,-3.8468,-3.8486,-3.8486,-3.8258,-3.7891,-3.7891,-3.7617,-3.7148,-3.6758,-3.6855,-3.7265,0.0,0.0,0.0,0.0,0.0,0.0,0.0,0.0,0.0,0.0,0.0,0.0,0.0,0.0,0.0,0.0,0.0,0.0,0.0,0.0,-2.2699,-2.2699,-2.2699,-2.2785,-2.2957,-2.4301,-2.5092,-2.5264,-2.6626,-2.7299,-2.728,-2.573,-2.5005,-2.4936,-2.3388,-2.2699,-2.2699,-2.2699,-2.2829,-2.3008,0.0,0.0,0.0,0.0,0.0,0.0,0.0,0.0,0.0,0.0,0.0,0.0,0.0,0.0,0.0,-2.3917,-2.4113,-2.4659,-2.6085,-2.6637,-2.7142,-2.8504,0.0,0.0,0.0,0.0,0.0,0.0,0.0,0.0,0.0,-2.9783,-3.0782,-3.2376,-3.3683,-3.5075,-3.671,-3.7321,-3.8142,-3.9626,-4.004,-4.0205,-4.0205,-4.0135,-3.9832,-3.9221,-3.8999,-3.862,-3.8012,-3.78,-3.7712,-3.77,-3.7507,-3.7411,-3.7411,-3.675,-3.7237,-3.8836,-3.7978,-3.7933,-3.8617,-3.7957,-3.7673,-3.7673,-3.7672,-3.7714,-3.7763,-3.7763,-3.7434,-3.6947,-3.6947,-3.6559,-3.5975,-3.5996,-3.6133,-3.6426,0.0,0.0,0.0,0.0,0.0,0.0,0.0,0.0,0.0,0.0,0.0,0.0,0.0,0.0,0.0,0.0,0.0,0.0,0.0,0.0,-2.2699,-2.2699,-2.2699,-2.3026,-2.3715,-2.456,-2.535,-2.6008,-2.6885,-2.7299,-2.728,-2.573,-2.5005,-2.4936,-2.3388,-2.2699,-2.2699,-2.2699,-2.2712,-2.2725,-2.2725,0.0,0.0,0.0,0.0,0.0,0.0,0.0,0.0,0.0,0.0,0.0,0.0,0.0,-2.3907,-2.3907,-2.4483,-2.5309,-2.6177,-2.6916,-2.764,-2.8506,-2.8791,0.0,-2.881,-2.8798,0.0,-2.8798,0.0,0.0,0.0,-2.9772,-3.0705,-3.1403,-3.3204,-3.5015,-3.6515,-3.7542,-3.8493,-3.9426,-3.9762,-3.9935,-3.9935,-3.9481,-3.9176,-3.9099,-3.8413,-3.7974,-3.7917,-3.7206,-3.6798,-3.6788,-3.6077,-3.5673,-3.5673,-3.5615,-3.6033,-3.6901,-3.6087,-3.5727,-3.5804,-3.58,-3.5781,-3.5805,-3.5861,-3.5891,-3.5892,-3.5892,-3.5905,-3.5903,-3.5903,-3.5919,-3.5901,-3.5975,-3.6504,-3.7324,0.0,0.0,0.0,0.0,0.0,0.0,0.0,0.0,0.0,0.0,0.0,0.0,0.0,0.0,0.0,0.0,0.0,0.0,0.0,0.0,-2.2515,-2.2515,-2.2515,-2.2925,-2.377,-2.4591,-2.5367,-2.6094,-2.6902,-2.7299,-2.728,-2.573,-2.5005,-2.4936,-2.3388,-2.2699,-2.2699,-2.2699,-2.2699,-2.2699,-2.2699,-2.2699,0.0,0.0,0.0,0.0,0.0,0.0,0.0,0.0,-2.3342,-2.3422,-2.3432,-2.354,-2.3653,-2.3653,-2.436,-2.531,-2.6122,-2.6941,-2.7748,-2.8506,-2.8731,0.0,0.0,-2.9056,-2.9299,-2.8828,-2.9799,0.0,0.0,-3.0723,-3.1262,-3.2008,-3.3652,-3.5182,-3.6297,-3.7342,-3.8313,-3.9152,-3.9051,-3.8916,-3.8916,-3.8369,-3.7842,-3.7327,-3.7126,-3.6814,-3.6316,-3.599,-3.5817,-3.5832,-3.5525,-3.5372,-3.5372,-3.5412,-3.558,-3.5888,-3.5622,-3.5494,-3.55,-3.5534,-3.554,-3.5547,-3.5556,-3.56,-3.5644,-3.5644,-3.5671,-3.5791,-3.6336,-3.6563,-3.6649,-3.7213,-3.7673,-3.8106,0.0,0.0,0.0,0.0,0.0,0.0,0.0,0.0,0.0,0.0,0.0,0.0,0.0,0.0,0.0,0.0,0.0,0.0,0.0,-2.2276,-2.2304,-2.2391,-2.2391,-2.2842,-2.377,-2.4336,-2.5111,-2.6094,-2.6902,-2.7299,-2.728,-2.573,-2.5126,-2.5281,-2.3491,-2.2836,-2.3026,-2.2802,-2.2699,-2.2699,-2.2699,-2.2699,0.0,0.0,0.0,0.0,0.0,0.0,0.0,0.0,-2.3065,-2.3145,0.0,-2.3224,-2.3436,-2.3749,-2.4536,-2.5518,-2.6413,-2.7258,-2.8046,0.0,0.0,0.0,-2.892,-2.9391,-2.9725,-2.9473,-3.0122,-3.0919,-3.1529,0.0,-3.155,-3.2394,-3.411,-3.5534,-3.6149,-3.7311,-3.8302,-3.8905,-3.8721,-3.8546,-3.8546,-3.7789,-3.7053,-3.6487,-3.6093,-3.5642,-3.5105,-3.5144,-3.5176,-3.5192,-3.5266,-3.5308,-3.5308,-3.5357,-3.5372,-3.5372,-3.5446,-3.5486,-3.55,-3.55,-3.55,-3.55,-3.55,-3.5534,-3.5579,-3.5579,-3.576,-3.6084,-3.6429,-3.6884,-3.7424,-3.7759,-3.8277,-3.8867,0.0,0.0,0.0,0.0,0.0,0.0,0.0,0.0,0.0,0.0,0.0,0.0,0.0,0.0,0.0,0.0,0.0,0.0,0.0,-2.2013,-2.2115,-2.2391,-2.2391,-2.2842,-2.377,-2.3788,-2.456,-2.6094,-2.6902,-2.7297,-2.7247,-2.573,-2.5402,-2.5973,-2.3715,-2.3112,-2.375,-2.3009,-2.2699,-2.2699,-2.2699,-2.2699,-2.2699,0.0,0.0,0.0,0.0,0.0,0.0,0.0,-2.2906,-2.2838,-2.3026,0.0,0.0,-2.4296,-2.5165,-2.6018,-2.7109,-2.7972,-2.8587,0.0,0.0,0.0,-2.9639,-2.9802,-3.0038,-3.0853,-3.0422,-3.0415,-3.2088,-3.175,-3.1459,-3.2265,-3.4426,-3.6024,-3.608,-3.7485,-3.8559,-3.8673,-3.8935,-3.9082,-3.9064,-3.7804,-3.6967,-3.6967,-3.5446,-3.4529,-3.4612,-3.4794,-3.4925,-3.4988,-3.5195,-3.5281,-3.5281,-3.5281,-3.5281,-3.5308,-3.5364,-3.5427,-3.55,-3.55,-3.55,-3.55,-3.55,-3.55,-3.55,-3.55,-3.6001,-3.6703,-3.5919,-3.6668,-3.8088,-3.7311,-3.8101,-3.9603,0.0,0.0,0.0,0.0,0.0,0.0,0.0,0.0,0.0,0.0,0.0,0.0,0.0,0.0,0.0,0.0,0.0,0.0,0.0,-2.2013,-2.2115,-2.2391,-2.2391,-2.2521,-2.2811,-2.3306,-2.4401,-2.6094,-2.635,-2.6471,-2.6454,-2.5988,0.0,-2.4456,0.0,-2.3319,-2.3009,-2.2785,-2.2699,-2.2699,-2.2699,-2.2699,-2.2699,0.0,0.0,0.0,0.0,0.0,0.0,0.0,0.0,0.0,-2.2535,0.0,-2.2994,-2.3802,-2.4743,-2.5689,-2.6534,-2.7491,-2.8242,-2.8242,0.0,0.0,0.0,-3.0219,0.0,0.0,-3.1229,-3.1021,-3.2128,-3.2138,-3.2074,-3.2356,-3.4426,-3.6009,-3.6024,-3.7408,-3.8462,-3.8559,-3.7624,-3.7032,-3.7127,-3.5868,-3.5025,-3.5025,-3.469,-3.4518,-3.4529,-3.4593,-3.4634,-3.4655,-3.4715,-3.4745,-3.4745,-3.4784,-3.487,-3.5024,-3.5094,-3.5239,-3.5427,-3.5486,-3.55,-3.55,-3.55,-3.55,-3.55,-3.55,-3.5641,-3.5925,-3.6247,-3.6691,-3.7199,-3.7565,-3.8448,-3.9441,0.0,0.0,0.0,0.0,0.0,0.0,0.0,0.0,0.0,0.0,-2.2231,-2.2189,0.0,0.0,0.0,-2.1911,-2.1794,0.0,-2.1764,-2.1735,-2.184,-2.2106,-2.212,-2.2163,-2.2231,-2.2773,-2.3718,-2.5079,-2.5478,-2.5661,-2.5661,0.0,-2.5102,-2.4104,0.0,-2.3505,-2.3007,-2.2779,-2.2699,-2.2699,-2.2699,-2.2699,-2.2699,0.0,0.0,0.0,0.0,0.0,0.0,0.0,0.0,0.0,-2.231,0.0,0.0,-2.406,-2.489,-2.568,-2.6992,-2.7808,0.0,-2.8313,-2.9057,-3.002,-3.0817,0.0,0.0,0.0,-3.2035,-3.1723,-3.2585,-3.2472,-3.2264,-3.231,-3.3811,-3.4863,-3.4564,-3.5654,-3.6486,-3.6544,-3.5714,-3.5176,-3.527,-3.4234,-3.3555,-3.3555,-3.338,-3.3268,-3.3268,-3.3359,-3.3432,-3.3432,-3.35,-3.3552,-3.3552,-3.3583,-3.3674,-3.38,-3.3866,-3.3964,-3.4165,-3.5028,-3.5446,-3.5441,-3.5115,-3.4988,-3.4968,-3.4615,-3.4673,-3.5007,-3.5141,-3.5615,-3.6231,-3.6411,-3.7064,-3.7841,0.0,0.0,-2.2013,-2.2013,0.0,0.0,0.0,0.0,0.0,-2.1984,-2.1969,-2.1969,0.0,0.0,0.0,-2.1753,-2.148,-2.134,-2.1417,-2.1371,-2.1449,-2.1708,-2.1724,-2.1797,-2.1969,-2.222,-2.2657,-2.335,-2.4362,-2.4873,0.0,0.0,-2.4741,-2.4375,0.0,-2.363,-2.3371,-2.2884,-2.2672,-2.2672,-2.2699,-2.2699,-2.2699,-2.2699,0.0,0.0,0.0,0.0,0.0,0.0,0.0,0.0,-2.2296,-2.2296,-2.2694,-2.4718,-2.5318,-2.576,-2.7874,-2.8453,-2.8466,-2.8466,-2.9155,0.0,-3.0822,-3.2166,-3.324,-3.327,-3.2705,-3.2415,-3.3158,-3.2632,-3.2089,-3.2089,-3.2777,-3.306,-3.2387,-3.2968,-3.352,-3.3569,-3.3584,-3.3575,-3.3575,-3.2915,-3.2478,-3.2478,-3.1794,-3.1384,-3.1384,-3.1626,-3.1764,-3.1764,-3.1944,-3.2038,-3.2038,-3.2038,-3.2048,-3.2068,-3.2127,-3.2175,-3.227,-3.4168,-3.5085,-3.5117,-3.439,-3.4058,-3.4,-3.3212,-3.3365,-3.3981,-3.3212,-3.3865,-3.5173,-3.4372,-3.4622,-3.5385,0.0,0.0,-2.2013,-2.2013,0.0,0.0,0.0,0.0,-2.194,-2.1797,-2.1768,-2.1693,-2.1463,-2.1418,0.0,-2.1402,-2.134,-2.1387,-2.1617,-2.1617,-2.1708,-2.1943,-2.1766,-2.1708,-2.1768,-2.1812,-2.1925,-2.2091,-2.3257,0.0,0.0,0.0,0.0,-2.2884,0.0,-2.3069,-2.2629,-2.2514,-2.246,-2.2487,-2.2632,-2.2699,-2.2699,-2.2699,-2.2699,0.0,0.0,0.0,0.0,0.0,0.0,0.0,-2.2296,-2.2296,-2.2626,-2.423,-2.4684,-2.5056,-2.6671,-2.7288,0.0,-2.7489,-2.8734,-3.0145,-3.0834,-3.1506,-3.2071,-3.239,-3.2325,-3.2252,-3.2433,-3.1799,-3.127,-3.127,-3.1926,-3.2397,-3.2244,-3.2915,-3.3452,-3.3506,-3.297,-3.263,-3.2666,-3.1963,-3.1501,-3.1501,-3.1336,-3.1258,-3.1327,-3.139,-3.1421,-3.1483,-3.1525,-3.156,-3.156,-3.156,-3.1665,-3.1867,-3.1877,-3.1965,-3.2127,-3.2797,-3.3207,-3.3343,-3.3184,-3.3107,-3.3088,-3.2896,-3.2934,-3.3094,-3.2961,-3.314,-3.3448,-3.325,-3.3737,-3.4468,0.0,0.0,0.0,0.0,0.0,0.0,0.0,0.0,-2.1631,-2.151,-2.1511,-2.1465,-2.1325,-2.1293,0.0,0.0,-2.1324,-2.1371,-2.1556,-2.1526,-2.1556,-2.166,-2.1572,-2.1511,-2.1511,-2.1617,-2.1709,0.0,0.0,0.0,0.0,0.0,0.0,-2.2097,0.0,-2.2822,-2.2217,-2.2349,-2.246,-2.2538,-2.2659,-2.2699,-2.2699,-2.2699,-2.2672,-2.2646,-2.2582,0.0,0.0,0.0,0.0,0.0,0.0,0.0,-2.3083,-2.4364,-2.499,-2.5548,-2.6838,0.0,0.0,-2.7914,0.0,-2.9669,-3.0407,-3.0739,-3.0993,-3.1326,-3.1516,-3.1618,-3.1618,-3.1274,-3.0871,-3.0491,-3.0781,-3.0912,-3.0532,-3.0826,-3.1111,-3.1152,-3.0807,-3.0592,-3.0631,-3.0274,-3.005,-3.005,-3.005,-3.0062,-3.01,-3.01,-3.0112,-3.0149,-3.0149,-3.0149,-3.0149,-3.0186,-3.0264,-3.0404,-3.0438,-3.0553,-3.0804,-3.1863,-3.2471,-3.2623,-3.2244,-3.2087,-3.2048,-3.162,-3.1405,-3.131,-3.1352,-3.1424,-3.1508,-3.151,-3.1871,-3.2327,0.0,0.0,0.0,0.0,0.0,0.0,0.0,0.0,0.0,-2.1293,-2.1293,-2.1293,-2.1293,-2.1293,-2.1324,0.0,0.0,0.0,-2.1371,-2.1324,-2.1293,-2.1293,-2.1293,-2.1293,-2.1293,-2.151,0.0,0.0,0.0,0.0,0.0,0.0,0.0,-2.1726,0.0,-2.2542,-2.1955,-2.2192,-2.2388,-2.2575,-2.2632,-2.2672,-2.2699,-2.2685,-2.2646,-2.2579,-2.2515,-2.2446,-2.2377,-2.2324,0.0,0.0,0.0,0.0,-2.3621,-2.4771,-2.5532,-2.6247,-2.725,0.0,-2.7692,-2.8415,-2.8662,0.0,-2.954,-2.9736,-2.9836,-2.9982,-3.0377,-3.0713,-3.0785,-3.0677,-3.0382,-2.9712,-2.9603,-2.9355,-2.869,-2.86,-2.86,-2.86,-2.865,-2.8682,-2.8682,-2.8737,-2.8779,-2.8779,-2.8779,-2.8761,-2.8773,-2.8785,-2.8785,-2.8798,-2.8798,-2.8798,-2.8798,-2.8858,-2.8893,-2.8893,-2.8929,-2.9048,-2.9275,-3.0868,-3.1751,-3.1967,-3.1306,-3.1018,-3.0961,-3.0223,-2.9823,-2.9678,-2.9687,-2.979,-2.9946,-2.9954,-3.0056,-3.02,0.0,0.0,0.0,0.0,0.0,0.0,0.0,0.0,0.0,0.0,-2.1293,-2.1293,-2.1293,-2.1293,-2.1293,-2.1309,-2.1325,-2.1293,-2.1309,0.0,0.0,-2.1293,-2.1293,-2.1293,-2.1293,-2.1341,0.0,0.0,0.0,0.0,0.0,0.0,0.0,-2.1694,0.0,0.0,-2.1738,-2.1784,-2.1899,-2.2113,-2.2346,-2.2538,-2.2699,-2.2632,-2.2605,-2.2579,-2.246,-2.2405,-2.2377,-2.2324,-2.2296,0.0,0.0,0.0,-2.3678,-2.5098,-2.5588,-2.5842,-2.6621,0.0,-2.6924,0.0,-2.7705,-2.7947,0.0,0.0,-2.8444,-2.814,-2.8848,-2.9613,-2.9908,-2.9391,-2.8889,-2.8781,-2.8763,-2.8726,-2.8618,-2.86,-2.86,-2.86,-2.86,-2.8612,-2.8612,-2.8625,-2.8625,-2.8625,-2.8625,-2.865,-2.8706,-2.8706,-2.8749,-2.8798,-2.8798,-2.8798,-2.8798,-2.881,-2.881,-2.881,-2.8822,-2.8846,-2.8881,-2.913,-2.9513,-2.9982,-2.9878,-2.9822,-2.9822,-2.97,-2.9644,-2.9626,-2.9681,-2.9716,-2.9742,-2.9731,-2.9756,-2.9782,0.0,0.0,0.0,0.0,0.0,0.0,0.0,0.0,0.0,0.0,0.0,-2.1293,-2.1293,-2.1293,-2.1293,-2.1293,-2.1293,-2.1293,-2.1293,-2.1293,-2.1293,-2.1293,-2.1293,-2.1293,-2.1293,0.0,0.0,0.0,0.0,0.0,0.0,-2.1199,-2.1246,0.0,0.0,0.0,0.0,-2.1967,-2.2426,-2.2859,-2.3255,-2.3467,-2.3517,-2.3341,-2.319,-2.3066,-2.3237,-2.3268,-2.3269,-2.3484,-2.3528,-2.3594,-2.3915,0.0,0.0,0.0,-2.5896,-2.6285,-2.6607,-2.6691,-2.6741,0.0,-2.7063,-2.7182,-2.7154,-2.7277,-2.7415,-2.7423,-2.7796,-2.8262,-2.8761,-2.8559,-2.8378,-2.8574,-2.86,-2.86,-2.86,-2.86,-2.86,-2.86,-2.86,-2.86,-2.86,-2.86,-2.86,-2.86,-2.86,-2.8612,-2.865,-2.865,-2.8662,-2.8687,-2.8687,-2.8687,-2.8687,-2.8724,-2.8761,-2.8798,-2.8798,-2.8798,-2.8798,-2.8798,-2.8996,-2.9307,-2.9357,-2.9385,-2.9385,-2.9425,-2.9345,-2.9209,-2.9241,-2.9324,-2.9425,-2.9426,-2.9504,-2.9653,0.0,0.0,0.0,0.0,0.0,0.0,0.0,0.0,0.0,0.0,0.0,-2.1293,-2.1293,0.0,0.0,0.0,-2.1293,-2.1293,-2.1293,-2.1293,-2.1293,-2.1293,-2.1293,-2.1293,-2.1293,0.0,0.0,0.0,0.0,0.0,-2.1103,-2.1006,-2.0942,0.0,-2.0893,-2.1135,0.0,0.0,-2.2815,-2.3531,-2.3833,-2.3967,0.0,0.0,-2.3569,-2.3434,-2.372,-2.3786,-2.3786,-2.408,-2.4192,-2.4226,-2.441,-2.4927,0.0,0.0,0.0,-2.6691,0.0,0.0,-2.6691,-2.6691,-2.6691,-2.6691,0.0,-2.6691,-2.6775,-2.7021,-2.7069,-2.7227,-2.7751,-2.7936,-2.8106,-2.8422,-2.8461,-2.8492,-2.8562,-2.8518,-2.8466,-2.8453,-2.8466,-2.8461,-2.8461,-2.8562,-2.86,-2.86,-2.86,-2.86,-2.86,-2.86,-2.86,-2.86,-2.86,-2.86,-2.86,-2.865,-2.87,-2.8749,-2.8749,-2.8749,-2.8749,-2.8749,-2.8839,-2.8971,-2.9056,-2.9108,-2.909,-2.9144,-2.9052,-2.8881,-2.8881,-2.8968,-2.9108,-2.9108,-2.9241,-2.9435,0.0,0.0,0.0,0.0,0.0,0.0,0.0,0.0,0.0,0.0,0.0,-2.1293,-2.1293,-2.1293,-2.1293,-2.1293,-2.1293,-2.1293,-2.1293,-2.1293,-2.1293,-2.1293,-2.1293,0.0,-2.1293,-2.1293,0.0,0.0,0.0,0.0,-2.1103,-2.0712,-2.0527,-2.0544,-2.0909,-2.1455,-2.2079,0.0,0.0,-2.3501,-2.3311,-2.3364,-2.3536,0.0,-2.3417,-2.34,-2.3347,-2.333,-2.333,-2.3347,-2.3364,-2.3477,-2.4173,-2.47,-2.5176,0.0,0.0,0.0,0.0,-2.6691,0.0,-2.6691,-2.6691,-2.6691,-2.6691,-2.6691,-2.6708,-2.6725,-2.6725,-2.6808,-2.7101,-2.7459,-2.7815,-2.8075,-2.8129,-2.8215,-2.8466,-2.8299,-2.8102,-2.8037,-2.8093,-2.8129,-2.8129,-2.8409,-2.86,-2.86,-2.86,-2.86,-2.86,-2.86,-2.86,-2.86,-2.86,-2.86,-2.86,-2.86,-2.86,-2.8612,-2.8612,-2.8612,-2.8612,-2.8612,-2.8612,-2.8637,-2.8761,-2.8822,-2.8822,-2.8822,-2.8822,-2.8798,-2.8798,-2.881,-2.8822,-2.8822,-2.8881,-2.8934,0.0,0.0,0.0,0.0,0.0,0.0,0.0,0.0,0.0,0.0,0.0,0.0,0.0,-2.1293,-2.1293,-2.1293,-2.1293,-2.1293,-2.1293,-2.1293,-2.1293,-2.1293,-2.1293,-2.1293,-2.1293,-2.1293,0.0,0.0,0.0,-2.0974,-2.0712,-2.0578,-2.0676,-2.1023,-2.1163,-2.141,-2.1762,-2.2676,0.0,-2.4037,-2.4263,-2.4419,-2.45,0.0,-2.4099,-2.4006,-2.4255,-2.4331,-2.4369,-2.4632,-2.4705,-2.4754,-2.5031,-2.5204,-2.5417,0.0,0.0,0.0,0.0,0.0,0.0,-2.6691,-2.6657,-2.664,-2.664,-2.6589,-2.6572,-2.6572,-2.6572,-2.6606,-2.6708,-2.7054,-2.7382,-2.7619,-2.7663,-2.7692,-2.7783,-2.7707,-2.7648,-2.7619,-2.7634,-2.7663,-2.7663,-2.7751,-2.7855,-2.7894,-2.7876,-2.7922,-2.8031,-2.794,-2.8006,-2.8268,-2.8233,-2.8344,-2.8587,-2.86,-2.86,-2.86,-2.86,-2.86,-2.86,-2.86,-2.86,-2.86,-2.865,-2.87,-2.8749,-2.8773,-2.8773,-2.8749,-2.8749,-2.8749,-2.8749,-2.8749,-2.8785,-2.8834,0.0,0.0,0.0,0.0,0.0,0.0,0.0,0.0,0.0,0.0,0.0,0.0,0.0,0.0,-2.1293,-2.1293,-2.1293,-2.1293,-2.1293,-2.1293,-2.1293,-2.1293,-2.1293,-2.1277,-2.123,-2.123,0.0,0.0,0.0,0.0,0.0,-2.0443,-2.0746,-2.1304,-2.1535,-2.1842,0.0,0.0,-2.3919,-2.4408,-2.4662,-2.4791,-2.4795,-2.4589,-2.4426,-2.4343,-2.4599,-2.4699,-2.4739,-2.4981,-2.5059,-2.5059,-2.5059,-2.516,0.0,0.0,0.0,0.0,-2.6298,0.0,0.0,0.0,-2.6521,-2.6571,-2.6571,-2.6537,-2.6502,-2.6502,-2.6502,-2.6485,-2.6434,-2.664,-2.6906,-2.7192,-2.7239,-2.7255,-2.7348,-2.7286,-2.7224,-2.721,-2.7224,-2.7239,-2.7239,-2.7332,-2.7424,-2.7467,-2.7467,-2.7515,-2.7577,-2.7515,-2.7587,-2.7865,-2.7823,-2.7926,-2.8192,-2.8331,-2.8401,-2.8375,-2.8383,-2.8401,-2.8357,-2.8273,-2.8286,-2.8414,-2.8414,-2.8505,-2.8675,-2.8712,-2.8712,-2.8675,-2.8675,-2.8675,-2.8675,-2.8675,-2.8712,-2.8761,0.0,0.0,0.0,0.0,0.0,0.0,0.0,0.0,0.0,0.0,0.0,0.0,0.0,0.0,0.0,-2.1293,-2.1293,-2.1293,-2.1293,-2.1293,-2.1293,-2.1293,-2.1293,-2.123,-2.1103,-2.1103,-2.099,0.0,0.0,0.0,0.0,0.0,-2.0705,-2.1365,-2.2028,-2.2802,-2.3628,-2.3628,-2.4002,-2.4569,-2.4364,-2.4302,-2.4302,-2.4302,-2.4302,-2.4302,-2.4302,-2.4302,-2.4297,-2.4229,-2.4202,-2.4187,-2.4202,0.0,0.0,0.0,0.0,0.0,0.0,0.0,0.0,0.0,-2.6206,-2.6468,-2.6468,-2.6468,-2.6468,-2.6485,-2.6485,-2.6451,-2.6313,-2.6295,-2.6419,-2.6823,-2.6888,-2.697,-2.7224,-2.705,-2.6873,-2.6791,-2.684,-2.6888,-2.6888,-2.7177,-2.738,-2.7363,-2.7363,-2.7363,-2.7363,-2.7378,-2.7378,-2.7378,-2.7394,-2.7394,-2.7394,-2.7797,-2.7954,-2.7883,-2.7954,-2.7954,-2.7883,-2.7616,-2.7675,-2.7982,-2.7982,-2.8206,-2.8574,-2.8587,-2.8587,-2.8587,-2.86,-2.8587,-2.8587,-2.8587,-2.8637,-2.8669,0.0,0.0,0.0,0.0,0.0,0.0,0.0,0.0,0.0,0.0,0.0,0.0,0.0,0.0,0.0,-2.1167,-2.123,-2.1293,-2.1293,-2.1293,-2.1246,-2.1167,-2.1167,-2.1071,-2.0893,-2.0876,-2.0778,0.0,0.0,0.0,0.0,0.0,0.0,0.0,-2.2717,-2.3434,-2.4107,-2.4107,-2.4215,-2.4364,-2.4323,-2.4302,-2.4302,-2.4302,-2.4302,-2.4302,-2.4302,-2.4302,-2.4297,-2.4229,-2.4229,-2.4255,-2.4208,0.0,0.0,0.0,0.0,0.0,-2.5297,0.0,0.0,0.0,0.0,0.0,-2.5848,-2.5848,-2.5868,-2.6205,-2.6274,-2.6274,-2.6222,-2.6239,-2.6258,-2.6382,-2.6399,-2.6417,-2.6487,-2.6452,-2.6382,-2.6381,-2.6382,-2.6399,-2.6399,-2.6486,-2.6555,-2.6607,-2.6607,-2.6657,-2.6742,-2.6922,-2.7018,-2.6971,-2.7257,-2.7394,-2.7394,-2.75,-2.7562,-2.753,-2.7562,-2.7562,-2.7547,-2.7454,-2.7485,-2.7577,-2.7577,-2.7768,-2.8124,-2.8414,-2.8536,-2.8536,-2.8574,-2.8448,-2.8268,-2.8505,-2.8349,-2.8,0.0,0.0,0.0,0.0,0.0,0.0,0.0,0.0,0.0,0.0,0.0,0.0,0.0,0.0,0.0,-2.1817,-2.1884,-2.1807,-2.1535,-2.1519,-2.1342,-2.099,-2.0974,-2.0876,-2.0678,-2.0678,-2.0595,0.0,0.0,0.0,0.0,0.0,0.0,0.0,-2.3117,-2.3671,-2.4302,-2.4302,-2.4302,-2.4302,-2.4276,-2.4255,-2.4255,-2.4193,-2.4156,-2.4156,-2.4156,-2.4213,-2.4234,-2.4088,-2.4067,-2.4094,-2.4046,-2.4177,0.0,0.0,0.0,0.0,0.0,0.0,0.0,-2.4887,0.0,0.0,-2.5519,-2.5556,-2.5631,-2.6097,-2.6202,-2.6202,-2.6202,-2.6202,-2.6202,-2.6202,-2.6202,-2.6202,-2.6202,-2.6202,-2.6202,-2.6202,-2.6202,-2.6202,-2.6202,-2.6202,-2.6221,-2.6276,-2.6276,-2.6293,-2.6363,-2.6521,-2.659,-2.6538,-2.6775,-2.6906,-2.6906,-2.7067,-2.7131,-2.7115,-2.7131,-2.7131,-2.7099,-2.6987,-2.7019,-2.7147,-2.7147,-2.7332,-2.7663,-2.7911,-2.8183,-2.8458,-2.8362,-2.8206,-2.8061,-2.8079,-2.7897,-2.7619,0.0,0.0,-1.9413,-1.945,-2.0158,0.0,0.0,0.0,0.0,0.0,0.0,0.0,0.0,0.0,0.0,0.0,-2.2791,-2.2557,-2.1944,-2.1913,-2.1645,-2.1029,-2.0998,-2.0914,-2.071,-2.071,0.0,0.0,0.0,0.0,0.0,0.0,0.0,0.0,-2.3379,-2.3748,-2.4302,-2.4302,-2.4297,-2.4281,-2.4229,-2.4202,-2.4202,-2.4046,-2.4003,-2.4003,-2.4003,-2.4082,-2.4145,-2.3903,-2.3797,-2.3782,-2.3797,-2.3861,-2.3961,-2.3961,-2.3982,0.0,0.0,0.0,0.0,0.0,-2.4538,0.0,-2.5275,-2.537,-2.55,-2.5954,-2.6059,-2.6078,-2.6097,-2.6132,-2.615,-2.6185,-2.6202,-2.6202,-2.6202,-2.6202,-2.6202,-2.6202,-2.6202,-2.6202,-2.6202,-2.6202,-2.6202,-2.6202,-2.6202,-2.6202,-2.6202,-2.6202,-2.6202,-2.6202,-2.6202,-2.6202,-2.6202,-2.6555,-2.6708,-2.6657,-2.6708,-2.6691,-2.664,-2.64,-2.6452,-2.6741,-2.6741,-2.6923,-2.7224,-2.7224,-2.7651,-2.8242,-2.7957,-2.7869,-2.7855,-2.7515,-2.7394,-2.7391,-1.9068,-1.925,-1.9468,-1.9678,0.0,0.0,0.0,0.0,0.0,0.0,0.0,0.0,0.0,0.0,0.0,0.0,0.0,-2.2728,-2.2621,-2.2605,-2.2503,-2.2264,-2.2246,-2.2157,-2.1942,-2.1942,-2.1938,0.0,0.0,0.0,0.0,0.0,0.0,0.0,-2.3871,-2.4179,-2.4302,-2.4302,-2.4276,-2.4208,-2.4223,-2.4202,-2.4202,-2.4046,-2.4003,-2.4003,-2.4003,-2.4024,-2.4024,-2.3982,-2.3818,-2.3674,-2.376,-2.3739,-2.3674,-2.3674,-2.3739,-2.3818,0.0,0.0,0.0,-2.3788,-2.3809,0.0,-2.4415,-2.4533,-2.4639,-2.5075,-2.5153,-2.5234,-2.5575,-2.5631,-2.5758,-2.615,-2.6202,-2.6202,-2.6202,-2.6202,-2.6202,-2.6202,-2.6202,-2.6202,-2.6202,-2.6202,-2.6202,-2.6202,-2.6202,-2.6202,-2.6202,-2.6202,-2.6202,-2.6202,-2.6202,-2.6202,-2.6202,-2.6292,-2.6311,-2.631,-2.6311,-2.6311,-2.631,-2.6239,-2.6257,-2.6328,-2.6328,-2.6521,-2.6825,-2.6825,-2.7083,-2.7517,-2.75,-2.7348,-2.7128,-2.7332,-2.71,-2.6725,-1.8572,-1.8702,-1.8936,-1.9378,0.0,0.0,0.0,0.0,0.0,0.0,0.0,0.0,0.0,0.0,0.0,0.0,0.0,0.0,0.0,0.0,-2.2869,-2.2483,-2.2449,-2.2396,-2.2305,-2.2305,-2.2305,0.0,0.0,0.0,0.0,0.0,0.0,0.0,0.0,-2.4213,-2.4151,-2.4151,-2.4328,-2.4606,-2.4606,-2.435,-2.4013,-2.4217,-2.4098,-2.3797,-2.3797,-2.3797,-2.3818,-2.3882,-2.376,-2.3595,-2.3674,-2.3653,-2.3595,-2.3595,-2.3653,-2.3696,-2.3616,-2.3653,-2.3674,-2.3616,-2.3595,0.0,0.0,-2.4302,-2.441,-2.4803,-2.4902,-2.4962,-2.516,-2.537,-2.5594,-2.5811,-2.6061,-2.6202,-2.6202,-2.6202,-2.6202,-2.6202,-2.6202,-2.6202,-2.6202,-2.6202,-2.6202,-2.6202,-2.6202,-2.6202,-2.6202,-2.6202,-2.6202,-2.6202,-2.6202,-2.6202,-2.6202,-2.6202,-2.6202,-2.6202,-2.6202,-2.6202,-2.6202,-2.6202,-2.6202,-2.6202,-2.6202,-2.631,-2.6452,-2.6452,-2.6572,-2.6775,-2.6971,-2.6971,-2.684,-2.6808,-2.664,-2.6399,-1.8486,-1.8514,-1.8638,-1.9183,0.0,0.0,0.0,0.0,0.0,0.0,0.0,0.0,0.0,0.0,0.0,0.0,0.0,0.0,0.0,0.0,-2.3236,-2.2701,-2.2686,-2.2686,-2.2686,-2.2686,-2.2686,-2.2686,0.0,0.0,0.0,0.0,0.0,0.0,0.0,0.0,0.0,-2.4049,-2.4362,-2.4962,-2.4962,-2.4638,-2.4234,-2.4485,-2.4261,-2.3789,-2.3655,-2.3595,-2.3616,-2.3717,-2.3696,-2.3595,-2.3595,-2.3595,-2.3595,-2.3595,-2.3595,-2.3595,-2.3595,-2.3595,-2.3595,-2.3595,-2.3595,-2.3696,0.0,0.0,0.0,-2.4583,-2.4643,-2.4684,-2.4764,-2.5059,-2.5246,-2.5212,-2.5619,-2.5903,-2.5737,-2.5835,-2.5972,-2.6184,-2.6202,-2.6202,-2.6202,-2.6202,-2.6202,-2.6202,-2.6202,-2.6202,-2.6202,-2.6202,-2.6202,-2.6202,-2.6202,-2.6202,-2.6202,-2.6202,-2.6185,-2.6168,-2.6168,-2.6168,-2.6168,-2.6168,-2.6168,-2.6168,-2.6168,-2.615,-2.6132,-2.6132,-2.615,-2.6203,-2.6487,-2.664,-2.6657,-2.6311,-2.6222,-2.6277,-1.9376,-1.9456,-1.9557,-1.9846,0.0,0.0,0.0,0.0,0.0,0.0,0.0,0.0,0.0,0.0,-2.3754,0.0,0.0,0.0,-2.4869,-2.4386,0.0,-2.4066,-2.4071,-2.4071,-2.4071,-2.4071,-2.4071,-2.4071,0.0,0.0,0.0,0.0,0.0,0.0,-2.4024,0.0,0.0,-2.4246,-2.4312,-2.4822,-2.4822,-2.5123,-2.5507,-2.4844,-2.456,-2.441,-2.3819,-2.3595,-2.3595,-2.3616,-2.3595,-2.3595,-2.3595,-2.3595,-2.3595,-2.3595,-2.3595,-2.3595,-2.3595,-2.3595,-2.3595,-2.3595,-2.3595,-2.3616,-2.3659,0.0,-2.3681,-2.3745,0.0,-2.3873,-2.4302,0.0,0.0,-2.4119,-2.4623,-2.4798,-2.4087,-2.4492,-2.5195,-2.6079,-2.6202,-2.6202,-2.6202,-2.6202,-2.6202,-2.6202,-2.6202,-2.6202,-2.6202,-2.6202,-2.6202,-2.6202,-2.6202,-2.6202,-2.6202,-2.6202,-2.615,-2.6026,-2.6026,-2.6026,-2.6026,-2.6026,-2.6026,-2.6026,-2.6026,-2.599,-2.5934,-2.5934,-2.5972,-2.6045,-2.6187,-2.6257,-2.6274,-2.622,-2.6203,-2.6203,-1.9294,-1.9333,-1.9575,-2.0048,0.0,0.0,0.0,0.0,0.0,0.0,0.0,0.0,-2.4626,-2.4852,-2.498,-2.5044,-2.4874,-2.4852,-2.5075,-2.4866,0.0,-2.4704,-2.471,-2.4527,-2.413,-2.413,-2.413,-2.413,-2.413,0.0,0.0,0.0,0.0,0.0,-2.4465,-2.4572,-2.4747,-2.4461,-2.4484,-2.4717,-2.5115,-2.5445,-2.561,-2.4881,-2.435,-2.3984,-2.3699,-2.3595,-2.3595,-2.3595,-2.3595,-2.3595,-2.3595,-2.3595,-2.3595,-2.3595,-2.3595,-2.3595,-2.3595,-2.3595,-2.3595,-2.3595,-2.3595,-2.3595,-2.3595,-2.3595,-2.3595,-2.3595,0.0,0.0,0.0,0.0,0.0,0.0,-2.4456,-2.4638,-2.4276,-2.446,-2.4902,-2.5532,-2.5698,-2.5862,-2.6168,-2.6202,-2.6202,-2.6202,-2.6202,-2.6202,-2.6202,-2.6202,-2.6202,-2.6202,-2.6202,-2.6168,-2.6079,-2.6079,-2.6043,-2.5936,-2.5936,-2.5936,-2.5936,-2.5936,-2.5936,-2.5936,-2.5936,-2.5934,-2.5897,-2.5897,-2.5934,-2.5954,-2.6007,-2.6043,-2.6079,-2.6079,-2.6079,-2.6079,-1.9575,-1.9558,-1.982,-2.0269,0.0,0.0,0.0,0.0,0.0,0.0,0.0,-2.3976,-2.4733,-2.5291,-2.5442,-2.5077,-2.5087,-2.5136,-2.5077,-2.4902,-2.4789,-2.4775,-2.4935,-2.4814,-2.431,-2.4463,-2.4544,-2.4544,-2.4544,0.0,0.0,0.0,0.0,0.0,0.0,-2.507,-2.5113,-2.4754,-2.4641,-2.472,-2.4978,-2.5012,-2.4882,-2.4655,-2.4104,-2.3399,-2.3399,-2.3297,-2.3187,-2.3187,-2.315,-2.3143,-2.3187,-2.315,-2.3128,-2.3128,-2.3128,-2.3128,-2.3128,-2.3128,-2.3187,-2.3355,-2.3399,-2.3443,-2.3573,-2.3595,-2.3595,-2.3595,-2.3588,0.0,0.0,0.0,0.0,0.0,0.0,-2.4205,-2.3953,-2.4071,-2.44,-2.4962,-2.5214,-2.5497,-2.5881,-2.5862,-2.5816,-2.5816,-2.5816,-2.5816,-2.5816,-2.5998,-2.6114,-2.6114,-2.6114,-2.6061,-2.5956,-2.5956,-2.5936,-2.5844,-2.5844,-2.5844,-2.5844,-2.5844,-2.5844,-2.5844,-2.5844,-2.5826,-2.5824,-2.5824,-2.5826,-2.5844,-2.5824,-2.5862,-2.5919,-2.5972,-2.5956,-2.5956,-2.066,-2.0646,0.0,-2.0673,-2.0698,0.0,0.0,-2.1511,-2.1929,-2.313,-2.2804,-2.287,-2.3904,-2.4047,-2.4312,-2.487,-2.4791,-2.4803,-2.4984,-2.4394,-2.408,-2.4216,-2.4786,-2.5099,-2.5061,-2.5648,-2.5932,-2.5932,-2.5932,0.0,0.0,0.0,0.0,0.0,-2.557,-2.5929,-2.6437,-2.5143,-2.471,-2.4835,-2.4128,-2.356,-2.3191,-2.421,-2.3903,-2.2912,-2.2912,-2.2581,-2.2151,-2.2151,-2.2058,-2.1988,-2.2105,-2.2058,-2.1964,-2.1964,-2.1964,-2.1964,-2.1964,-2.1964,-2.2105,-2.2777,-2.2912,-2.3046,-2.3486,-2.3595,-2.3595,-2.3595,-2.356,-2.3516,-2.3588,0.0,0.0,0.0,0.0,0.0,0.0,-2.2739,-2.3516,-2.4502,-2.4962,-2.5211,-2.523,-2.5009,-2.485,-2.485,-2.485,-2.485,-2.485,-2.5522,-2.5915,-2.5915,-2.5915,-2.5915,-2.5899,-2.5899,-2.5844,-2.5719,-2.5719,-2.5719,-2.5719,-2.5719,-2.5719,-2.5719,-2.5719,-2.5661,-2.5616,-2.5616,-2.564,-2.5701,-2.5637,-2.564,-2.5719,-2.5862,-2.5899,-2.5899,-2.1839,-2.1839,-2.1695,-2.1315,-2.1564,-2.1904,-2.2074,-2.21,-2.2495,-2.369,-2.4019,-2.4553,-2.5653,-2.6228,-2.641,-2.6121,-2.5766,-2.5547,-2.5534,-2.4998,-2.4651,-2.4667,-2.4873,-2.475,-2.4312,-2.4511,-2.4609,-2.4609,-2.4975,0.0,0.0,0.0,0.0,0.0,0.0,-2.6169,-2.5971,-2.5507,-2.4684,-2.3591,-2.2942,-2.2569,-2.2437,-2.2803,-2.2721,-2.236,-2.2267,-2.2128,-2.1964,-2.1866,-2.1819,-2.1795,-2.1805,-2.1805,-2.1771,-2.1771,-2.1771,-2.1771,-2.1771,-2.1771,-2.1842,-2.2151,-2.2512,-2.283,-2.3091,-2.3348,-2.3538,-2.3538,-2.3451,-2.3363,-2.3392,0.0,0.0,0.0,0.0,0.0,0.0,-2.2825,-2.309,-2.3436,-2.4178,-2.454,-2.4181,-2.4303,-2.4216,-2.3766,-2.3992,-2.4325,-2.4767,-2.5029,-2.5389,-2.5864,-2.5897,-2.5862,-2.5772,-2.5511,-2.5304,-2.5157,-2.4899,-2.4759,-2.4795,-2.5056,-2.5157,-2.5192,-2.5492,-2.5619,-2.5578,-2.5262,-2.5153,-2.5157,-2.515,-2.5153,-2.5214,-2.5626,-2.5772,-2.5772,-2.2211,-2.2394,-2.2382,-2.189,-2.2152,-2.2467,-2.2663,-2.2872,-2.3356,-2.4295,-2.4908,-2.5544,-2.6306,-2.7006,-2.7124,-2.643,-2.6304,-2.6133,-2.5812,-2.5494,-2.5185,-2.4942,-2.5122,-2.4913,-2.4292,-2.4488,-2.4683,-2.4904,-2.5247,-2.5523,0.0,0.0,0.0,0.0,0.0,-2.651,-2.5774,-2.5709,-2.4533,-2.2647,-2.1783,-2.1675,-2.1977,-2.158,-2.1561,-2.1752,-2.1633,-2.1465,-2.1272,-2.121,-2.1124,-2.1099,-2.1148,-2.1124,-2.1099,-2.1099,-2.1099,-2.1099,-2.1099,-2.1099,-2.1172,-2.1513,-2.1846,-2.2151,-2.2429,-2.268,-2.2875,-2.2875,-2.2762,-2.2694,-2.2725,0.0,0.0,0.0,0.0,0.0,0.0,-2.2888,-2.2888,-2.2888,-2.3623,-2.3882,-2.331,-2.3396,-2.323,-2.257,-2.2749,-2.3192,-2.3831,-2.412,-2.4585,-2.5323,-2.5339,-2.5285,-2.5192,-2.4954,-2.4775,-2.4679,-2.441,-2.4302,-2.4302,-2.4574,-2.4679,-2.4699,-2.5009,-2.5143,-2.5123,-2.4815,-2.4679,-2.4679,-2.4679,-2.4679,-2.4759,-2.5419,-2.5551,-2.5422,-2.1971,-2.246,-2.2807,-2.2528,-2.2492,-2.2647,-2.3195,-2.3757,-2.4374,-2.5005,-2.5524,-2.5845,-2.5871,-2.6399,-2.6504,-2.5923,-2.6373,-2.6452,-2.5871,-2.5806,-2.5576,-2.507,-2.5531,-2.5542,-2.5003,-2.5495,-2.6015,-2.6563,-2.659,0.0,0.0,0.0,0.0,0.0,-2.7509,-2.6874,-2.5778,-2.5702,-2.434,-2.2117,-2.0822,-2.0924,-2.1783,-2.0694,-2.065,-2.1166,-2.1006,-2.061,-2.0182,-2.0182,-2.0105,-2.0016,-2.0131,-2.008,-1.999,-1.999,-1.999,-1.999,-1.999,-1.999,-2.0131,-2.0795,-2.0968,-2.1102,-2.1568,-2.1673,-2.171,-2.171,-2.1629,-2.1619,-2.1687,-2.1941,0.0,0.0,0.0,0.0,0.0,-2.2888,-2.2888,-2.2888,-2.3282,-2.3304,-2.2592,-2.2302,-2.191,-2.1275,-2.1232,-2.1522,0.0,-2.2859,-2.3573,-2.4287,-2.4302,-2.4302,-2.4302,-2.4261,-2.4261,-2.4261,-2.4219,-2.4219,-2.4219,-2.424,-2.424,-2.424,-2.4261,-2.4281,-2.4281,-2.4261,-2.424,-2.424,-2.424,-2.4261,-2.4385,-2.522,-2.5243,-2.4843,-2.3164,-2.3624,-2.3957,-2.3893,-2.3563,-2.3531,-2.4192,-2.4442,-2.4971,-2.6099,-2.6392,-2.6621,-2.7007,-2.719,-2.7216,-2.7072,-2.6831,-2.6641,-2.6465,-2.6059,-2.5728,-2.5615,-2.5744,-2.5559,-2.5021,-2.5143,-2.5063,-2.4778,-2.5216,0.0,-2.5674,0.0,0.0,0.0,0.0,-2.558,-2.4447,-2.4806,-2.4079,-2.2574,-2.1786,-2.1626,-2.1856,-2.1468,-2.1179,-2.09,-2.0438,-2.0182,-2.0042,-1.9939,-1.9888,-1.9862,-1.9875,-1.9888,-1.9862,-1.9862,-1.9862,-1.9862,-1.9862,-1.9862,-1.9914,-2.0207,-2.056,-2.0919,-2.1126,-2.1403,-2.1619,-2.1619,-2.1537,-2.1465,-2.1476,-2.1537,-2.1742,0.0,0.0,0.0,0.0,-2.2888,-2.2888,-2.2888,-2.3,-2.2637,-2.1524,-2.1625,-2.1291,-2.0201,-2.0345,-2.0993,-2.2144,-2.2375,-2.3055,-2.4271,-2.4302,-2.4302,-2.4302,-2.3852,-2.3623,-2.3638,-2.3238,-2.3053,-2.3038,-2.3341,-2.3493,-2.3515,-2.3837,-2.4,-2.3979,-2.3623,-2.3493,-2.3493,-2.3493,-2.3687,-2.4042,-2.4369,-2.4354,-2.4152,-2.4126,-2.438,-2.4564,-2.4564,-2.4342,-2.432,-2.4875,-2.5257,-2.5708,-2.6466,-2.6798,-2.7176,-2.7702,-2.7767,-2.7837,-2.7967,-2.7577,-2.7319,-2.7319,-2.6752,-2.6368,-2.6203,-2.6108,-2.5686,-2.4884,-2.4767,-2.4584,-2.4261,-2.4622,0.0,-2.5175,0.0,0.0,0.0,0.0,-2.4916,-2.3755,-2.3487,-2.3249,-2.2974,-2.2074,-2.1868,0.0,-2.1736,-2.1443,-2.1113,-2.0784,-2.0343,-1.9901,-1.9837,-1.9798,-1.9798,-1.9798,-1.9798,-1.9798,-1.9798,-1.9798,-1.9798,-1.9798,-1.9798,-1.9837,-1.9888,-2.0144,-2.0371,-2.0446,-2.0633,-2.0794,-2.0794,-2.0708,-2.0608,-2.0608,-2.0795,-2.1164,0.0,0.0,0.0,-2.2273,-2.2394,-2.2509,-2.2509,-2.244,-2.2124,-2.1334,-2.1307,-2.0823,-1.9524,-1.9606,-2.0302,-2.1604,-2.1679,-2.2274,-2.3595,-2.364,-2.3625,-2.3566,-2.3224,-2.3046,-2.3046,-2.2737,-2.2615,-2.2615,-2.2822,-2.2934,-2.2957,-2.3224,-2.3334,-2.3312,-2.3046,-2.2934,-2.2934,-2.2934,-2.3054,-2.3253,-2.3334,-2.345,-2.3601,-2.4788,-2.4838,-2.4888,-2.4888,-2.5046,-2.5232,-2.5511,-2.6064,-2.6471,-2.6568,-2.7105,-2.7648,-2.8105,-2.8156,-2.828,-2.8577,-2.8322,-2.8156,-2.8156,-2.7661,-2.7219,-2.6844,-2.6615,-2.5936,-2.4805,-2.4595,-2.4494,-2.4485,-2.4419,0.0,0.0,0.0,0.0,0.0,0.0,0.0,-2.3489,-2.2272,-2.2398,-2.3242,-2.2153,-2.1995,-2.2343,-2.1882,-2.1656,-2.1594,-2.1594,-2.0916,-2.0024,-2.0024,-1.9974,-1.9911,-1.9911,-1.9861,-1.9798,-1.9798,-1.9798,-1.9798,-1.9798,-1.9798,-1.9798,-1.9798,-1.9798,-1.9798,-1.9798,-1.9798,-1.9773,-1.9773,-1.9656,-1.9565,-1.9565,-2.0016,-2.0585,-2.1175,-2.1694,-2.1874,-2.1393,-2.166,-2.1864,-2.1864,-2.1769,0.0,-2.1506,-2.124,-2.0556,-1.93,-1.9266,-1.9788,-2.0944,-2.1054,-2.1614,-2.2766,-2.2772,-2.2712,-2.2615,-2.2578,-2.2555,-2.2555,-2.2555,-2.2555,-2.2555,-2.2555,-2.2555,-2.2555,-2.2555,-2.2555,-2.2555,-2.2555,-2.2555,-2.2555,-2.2555,-2.2486,-2.237,-2.237,-2.2663,-2.3061,-2.4788,-2.5172,-2.546,-2.546,-2.6239,-2.6889,-2.6946,-2.6781,-2.6875,-2.746,-2.8011,-2.8395,-2.8497,-2.851,-2.8549,-2.8602,-2.8562,-2.851,-2.851,-2.802,-2.7695,-2.7593,-2.7135,-2.6365,-2.521,-2.5153,-2.4902,-2.4429,-2.3953,0.0,0.0,0.0,0.0,0.0,0.0,0.0,-2.3377,-2.2542,-2.2577,-2.3125,-2.2924,-2.2882,-2.2945,-2.2857,-2.2543,-2.2171,-2.2171,-2.1744,-2.1192,-2.1192,-2.0918,-2.0541,-2.0541,-2.0188,-1.9798,-1.9798,-1.9798,-1.9798,-1.9798,-1.9798,-1.9798,-1.9798,-1.9798,-1.9798,-1.9798,-1.9708,-1.963,-1.963,-1.9539,-1.9447,-1.9447,-1.9875,-2.0321,-2.0535,-2.0919,-2.1188,-2.1091,-2.114,-2.1188,-2.1188,-2.1164,-2.108,-2.0955,-2.1278,-2.1004,-1.9857,-2.0171,-2.06,-2.0988,-2.1319,-2.1915,0.0,-2.2698,-2.2615,0.0,-2.2486,-2.244,-2.2417,-2.2324,-2.2278,-2.2278,-2.2278,-2.2278,-2.2278,-2.2278,-2.2278,-2.2278,-2.2278,-2.2278,-2.2278,-2.2278,-2.2254,-2.2254,-2.2254,-2.2287,-2.2379,-2.6038,-2.6302,-2.6565,-2.6854,-2.7344,-2.7708,-2.7708,-2.7805,-2.7913,-2.8102,-2.8344,-2.8598,-2.8879,-2.8904,-2.8994,-2.92,-2.9008,-2.8904,-2.8904,-2.8163,-2.7726,-2.7806,-2.719,-2.634,-2.5237,-2.5084,-2.4754,-2.4196,-2.393,0.0,0.0,0.0,0.0,-2.3348,0.0,-2.3288,0.0,-2.2862,-2.2857,-2.3108,-2.3108,-2.3108,-2.3108,-2.3108,-2.2945,-2.2706,-2.2706,-2.2543,-2.2246,-2.1681,-2.1345,-2.1119,-2.1119,-2.0688,-2.0145,-2.0145,-1.9893,-1.9591,-1.9591,-1.9591,-1.9591,-1.9591,-1.9591,-1.9591,-1.9591,-1.9539,-1.9486,-1.9486,-1.9394,-1.9302,-1.9302,-1.9512,-1.9734,-1.9862,-2.0283,-2.0497,-2.0207,-2.0346,-2.0497,-2.0497,-2.0421,-2.0454,-2.0665,-2.0938,-2.0877,-2.0341,-2.0547,-2.0883,-2.1291,0.0,-2.189,0.0,0.0,0.0,-2.2394,0.0,-2.2301,-2.2301,-2.2231,-2.2208,-2.2208,-2.2208,-2.2208,-2.2208,-2.2208,-2.2208,-2.2208,-2.2208,-2.2208,-2.2208,-2.2208,-2.2208,-2.2208,-2.2208,-2.2208,-2.2208,-2.7369,-2.7457,-2.7595,-2.8034,-2.8197,-2.8285,-2.8285,-2.875,-2.895,-2.8557,-2.8632,-2.8859,-2.9277,-2.9328,-2.9479,-2.9754,-2.9517,-2.9264,-2.9138,-2.8227,-2.769,-2.7678,-2.7018,-2.619,-2.5223,-2.4935,-2.4575,-2.4167,-2.4054,-2.4004,0.0,0.0,0.0,0.0,0.0,0.0,0.0,-2.3108,-2.3108,-2.3108,-2.3108,-2.3108,-2.3108,-2.3108,-2.3108,-2.3108,-2.3078,-2.3047,-2.2922,-2.2047,-2.1713,-2.1656,-2.1656,-2.1209,-2.0663,-2.0663,-2.013,-1.9566,-1.9566,-1.948,-1.9394,-1.9394,-1.9394,-1.9394,-1.9394,-1.9368,-1.9368,-1.9368,-1.9249,-1.917,-1.9196,-1.917,-1.9196,-1.9354,-1.9708,-1.9786,-1.9382,-1.9604,-1.9798,-1.9798,-1.9695,-1.985,-2.0384,-2.0434,-2.0499,-2.0662,-2.0781,-2.1067,-2.1568,0.0,0.0,0.0,-2.237,-2.2301,-2.2208,0.0,-2.2208,-2.2208,-2.2208,-2.2208,-2.2208,-2.2208,-2.2208,-2.2208,-2.2208,-2.2208,-2.2208,-2.2208,-2.2208,-2.2208,-2.2208,-2.2184,-2.2114,-2.2114,-2.2091,-2.2044,-2.8021,-2.8034,-2.8047,-2.8097,-2.8511,-2.8813,-2.8813,-2.934,-2.9503,-2.8925,-2.9315,-2.9692,-2.9742,-2.9742,-2.9767,-2.9792,-2.978,-2.9529,-2.8963,-2.836,-2.7844,-2.7377,-2.6823,-2.6231,-2.5569,-2.5059,-2.4763,-2.4713,-2.4243,-2.4004,0.0,0.0,0.0,0.0,0.0,0.0,0.0,-2.3108,-2.3108,-2.3108,-2.3108,-2.3108,-2.3108,-2.3108,-2.3108,-2.3078,-2.2969,-2.2909,-2.2896,-2.2658,-2.2424,-2.2234,-2.2234,-2.1731,-2.1141,-2.1141,-2.0659,-2.0131,-2.0131,-1.9762,-1.9394,-1.9394,-1.9394,-1.9394,-1.9394,-1.9302,-1.9223,-1.9223,-1.9105,-1.9052,-1.917,-1.9105,-1.9052,-1.9196,-1.9158,-1.9093,-1.904,-1.9066,-1.9093,-1.9093,-1.9093,-1.9303,-1.9824,-1.9875,-2.008,-2.0576,-2.1054,-2.142,-2.1589,0.0,0.0,-2.2394,-2.2278,-2.2208,-2.2208,-2.2208,-2.2208,-2.2208,-2.2208,-2.2208,-2.2208,-2.2208,-2.2208,-2.2208,-2.2208,-2.2208,-2.2208,-2.2208,-2.2208,-2.2208,-2.2208,-2.2067,-2.1841,-2.1841,-2.1688,-2.152,-2.8536,-2.8562,-2.8675,-2.9063,-2.9302,-2.9453,-2.9453,-2.9641,-2.9704,-2.9478,-2.9641,-2.9792,-2.9792,-2.9792,-2.9792,-2.9792,-2.9792,-2.9553,-2.8925,-2.8411,-2.7858,-2.7306,-2.6788,-2.6223,-2.5598,-2.5385,-2.5134,-2.4788,-2.4908,-2.4808,-2.4494,0.0,0.0,0.0,0.0,-2.3321,-2.3108,-2.3108,-2.3108,-2.3108,-2.3108,-2.3047,-2.3,-2.3,-2.2939,-2.2848,-2.28,-2.2769,-2.2769,-2.2708,-2.2621,-2.2526,-2.2526,-2.2024,-2.1435,-2.1435,-2.0982,-2.0455,-2.0455,-2.0055,-1.9631,-1.9631,-1.9388,-1.9158,-1.9158,-1.9131,-1.9078,-1.9078,-1.9052,-1.9025,-1.9078,-1.8735,-1.8602,-1.9025,-1.8747,-1.8602,-1.896,-1.8987,-1.8987,-1.8987,-1.8987,-1.904,-1.9198,-1.9277,-1.95,-1.9965,-2.056,-2.0937,-2.1009,0.0,0.0,-2.1323,0.0,-2.1151,-2.1251,-2.1251,-2.1251,-2.1251,-2.1578,-2.165,-2.1479,-2.1817,-2.1973,-2.1973,-2.1973,-2.2067,-2.2208,-2.2208,-2.2208,-2.2184,-2.202,-2.1902,-2.1769,-2.1616,-2.1496,-2.1423,-2.9101,-2.9176,-2.9315,-2.9729,-2.9792,-2.9792,-2.9792,-2.9792,-2.9792,-2.9792,-2.9792,-2.9792,-2.9792,-2.9792,-2.9792,-2.9792,-2.9792,-2.9553,-2.8925,-2.8561,-2.8034,-2.7318,-2.6952,-2.6474,-2.5862,-2.5686,-2.541,-2.5046,-2.541,-2.5247,-2.455,0.0,0.0,0.0,-2.3223,-2.318,-2.3,-2.3,-2.3,-2.3,-2.3,-2.2939,-2.286,-2.286,-2.2769,-2.269,-2.2616,-2.2616,-2.2616,-2.2555,-2.2567,-2.2555,-2.2678,-2.2298,-2.1831,-2.1831,-2.1366,-2.0851,-2.0851,-2.0287,-1.9757,-1.9965,-1.9475,-1.9,-1.92,-1.9095,-1.9035,-1.9191,-1.9081,-1.8961,-1.8961,-1.8624,-1.8347,-1.8452,-1.812,-1.8038,-1.8614,-1.8709,-1.8801,-1.8919,-1.8946,-1.8893,-1.8798,-1.8839,-1.9013,-1.9265,-1.9747,-2.0169,-2.0522,0.0,0.0,0.0,0.0,0.0,-2.0472,-2.0472,-2.0472,-2.0497,-2.0883,-2.0957,-2.0782,-2.1275,-2.1506,-2.1506,-2.1506,-2.1541,-2.1599,-2.1599,-2.1684,-2.1756,-2.1565,-2.153,-2.1544,-2.135,-2.1166,-2.1006,-2.9779,-2.9779,-2.9779,-2.9792,-2.9792,-2.9792,-2.9792,-2.9792,-2.9792,-2.9792,-2.9792,-2.9792,-2.9792,-2.9792,-2.9792,-2.9792,-2.9792,-2.9553,-2.8925,-2.8888,-2.8423,-2.7331,-2.7268,-2.7052,-2.6499,-2.5921,-2.5598,-2.5586,-2.5598,-2.5046,-2.4004,0.0,-2.361,-2.2934,-2.348,-2.3325,-2.272,-2.272,-2.272,-2.272,-2.272,-2.272,-2.272,-2.272,-2.272,-2.2678,-2.2482,-2.2389,-2.2389,-2.2247,-2.2197,-2.2247,-2.2598,-2.2555,-2.2377,-2.2377,-2.1922,-2.1392,-2.1392,-2.0481,-1.9678,-2.0425,-1.9683,-1.8963,-1.9646,-1.9372,-1.9143,-1.9688,-1.9328,-1.8895,-1.8895,-1.8895,-1.8526,-1.739,-1.723,-1.7379,-1.7843,-1.8023,-1.8267,-1.8744,-1.8798,-1.8798,-1.8798,-1.8679,-1.8614,-1.8614,-1.8614,-1.9148,-2.0345,0.0,0.0,-2.0207,-2.0207,0.0,-2.0207,-2.0207,-2.0207,-2.0207,-2.0207,-2.0207,-2.0232,-2.0622,-2.0795,-2.0795,-2.0795,-2.0597,-2.0232,-2.0232,-2.0459,-2.082,-2.0795,-2.0896,-2.1021,-2.1021,-2.0598,-2.0042,-2.9792,-2.9792,-2.9792,-2.9792,-2.9792,-2.9792,-2.9792,-2.9792,-2.9792,-2.9792,-2.9792,-2.9792,-2.9792,-2.9792,-2.9792,-2.9792,-2.9792,-2.9553,-2.8925,-2.8888,-2.8436,-2.7331,-2.7281,-2.7065,-2.6499,-2.6311,-2.6021,-2.5598,-2.6021,-2.5845,-2.5084,-2.4933,-2.4581,-2.3995,-2.4028,-2.3907,-2.3727,-2.3727,-2.3727,-2.3727,-2.3727,-2.3443,-2.303,-2.303,-2.2748,-2.2352,-2.2278,-2.2247,-2.2247,-2.2228,-2.2197,-2.2228,-2.2321,-2.2309,-2.2247,-2.2247,-2.2108,-2.1945,-2.1945,-2.1009,-2.0106,-2.0329,-1.9817,-1.932,-1.9564,-1.9466,-1.9252,-1.8965,-1.8762,-1.8762,-1.9233,-1.8386,-1.7781,-1.8284,-1.729,-1.6634,-1.7207,-1.7213,-1.7368,-1.7968,-1.8061,-1.8182,-1.8503,-1.8572,-1.856,-1.8464,-1.8545,-1.8762,0.0,0.0,0.0,0.0,-1.9028,0.0,-1.9095,-1.9121,-1.9121,-1.9121,-1.9475,-1.976,-1.9927,-1.9862,-1.9939,-2.0131,-2.0131,-2.0144,-2.0207,-2.0207,-2.0283,-2.0358,-2.0194,-2.0308,-2.0573,-2.0384,-2.0169,-2.0016,-2.965,-2.974,-2.9753,-2.9663,-2.965,-2.9611,-2.9546,-2.9546,-2.9546,-2.9546,-2.9546,-2.9546,-2.9546,-2.9546,-2.9624,-2.9792,-2.9792,-2.9641,-2.9277,-2.9252,-2.8762,-2.7645,-2.7595,-2.7266,-2.6512,-2.643,-2.6186,-2.5836,-2.5974,-2.5827,-2.5411,-2.5145,-2.476,-2.4308,-2.4165,-2.4099,-2.4046,-2.4046,-2.4046,-2.4046,-2.4046,-2.361,-2.3016,-2.332,-2.2987,-2.2379,-2.2679,-2.2787,-2.2782,-2.2558,-2.2486,-2.2419,-2.1922,-2.1987,-2.2197,-2.2197,-2.2197,-2.2197,-2.2197,-2.123,-2.029,-2.054,-1.9815,-1.9077,-1.91,-1.8936,-1.878,-1.8814,-1.86,-1.8569,-1.8916,-1.8011,-1.7281,-1.7595,-1.6554,-1.5884,-1.6389,-1.6425,-1.6613,-1.7185,-1.724,-1.7446,-1.7963,-1.8061,-1.8143,-1.8286,-1.8356,-1.8398,0.0,0.0,-1.841,-1.8398,-1.8329,-1.8329,-1.8398,-1.8398,-1.8398,-1.8437,-1.8762,-1.9095,-1.9422,-1.9263,-1.9263,-1.9422,-1.9422,-1.941,-1.9423,-1.9423,-1.9527,-1.9669,-1.95,-1.9656,-1.9991,-1.9837,-1.9682,-1.954,-2.938,-2.9573,-2.9663,-2.9431,-2.938,-2.9302,-2.9131,-2.9091,-2.9091,-2.9091,-2.9091,-2.9091,-2.9091,-2.9091,-2.93,-2.9702,-2.9753,-2.9753,-2.9792,-2.9753,-2.9264,-2.8173,-2.8085,-2.7571,-2.654,-2.6283,-2.6166,-2.6166,-2.5611,-2.5283,-2.5148,-2.4764,-2.4386,-2.4023,-2.4056,-2.399,-2.3836,-2.3869,-2.3914,-2.3914,-2.3914,-2.3398,-2.273,-2.3475,-2.3238,-2.2616,-2.3416,-2.3661,-2.3556,-2.3131,-2.2931,-2.2674,-2.1484,-2.1599,-2.2157,-2.2116,-2.2166,-2.2197,-2.2123,-2.1146,-2.0226,-2.0805,-1.964,-1.8362,-1.8474,-1.8101,-1.7978,-1.8965,-1.8733,-1.8316,-1.8167,-1.7777,-1.706,-1.5896,-1.5313,-1.5146,-1.5488,-1.5681,-1.596,-1.6379,-1.6436,-1.6652,-1.7268,-1.7257,-1.7435,-1.8002,-1.8084,-1.8084,0.0,0.0,-1.8286,-1.8123,-1.8084,-1.8084,-1.8084,-1.8084,-1.8084,-1.8084,-1.8084,-1.834,-1.8744,-1.8744,-1.8744,-1.8744,-1.8744,-1.8491,-1.8084,-1.8084,-1.8367,-1.8744,-1.8744,-1.9011,-1.9368,-1.9368,-1.9105,-1.8798,-2.917,-2.9209,-2.926,-2.9157,-2.917,-2.917,-2.9091,-2.9091,-2.9091,-2.9091,-2.9091,-2.9091,-2.9091,-2.9091,-2.9131,-2.926,-2.926,-2.9326,-2.947,-2.9365,-2.8952,-2.8273,-2.7854,-2.7311,-2.668,-2.619,-2.598,-2.598,-2.5844,-2.5748,-2.5714,-2.5475,-2.4962,-2.4343,-2.4788,-2.4636,-2.406,-2.4683,-2.4939,-2.4939,-2.4939,-2.4236,-2.3224,-2.3433,-2.273,-2.1804,-2.2605,-2.2503,-2.2035,-2.2546,-2.2298,-2.1719,-2.1426,-2.1461,-2.1554,-2.1397,-2.1757,-2.2092,-2.1494,-2.0741,-1.9998,-1.9595,-1.9083,-1.8682,-1.8711,-1.8615,-1.8415,-1.8128,-1.7957,-1.799,-1.8348,-1.7603,-1.6912,-1.6832,-1.5936,-1.5149,-1.494,-1.4872,-1.5049,-1.5584,-1.5661,-1.5892,-1.65,-1.695,-1.7257,-1.7407,-1.7843,-1.8084,-1.8084,-1.815,-1.815,-1.8084,-1.8084,-1.8084,-1.8084,-1.8084,-1.8084,-1.8084,-1.8084,-1.8166,-1.8275,-1.8275,-1.8275,-1.8275,-1.8275,-1.8193,-1.8084,-1.8084,-1.8166,-1.8275,-1.8275,-1.8545,-1.8931,-1.8931,-1.8878,-1.8798,-2.8961,-2.9052,-2.9052,-2.8961,-2.8961,-2.8922,-2.8855,-2.8828,-2.8828,-2.8828,-2.8828,-2.8828,-2.8828,-2.8828,-2.8685,-2.8383,-2.8843,-2.917,-2.9275,-2.917,-2.8846,-2.8306,-2.7778,-2.7238,-2.6721,-2.6075,-2.5723,-2.5641,-2.5723,-2.5535,-2.5087,-2.5052,-2.46,-2.3756,-2.4095,-2.4022,-2.3647,-2.4047,-2.424,-2.424,-2.424,-2.3598,-2.271,-2.3084,-2.2556,-2.1677,-2.2504,-2.2504,-2.2149,-2.2355,-2.2136,-2.1669,-2.1066,-2.1142,-2.1313,-2.0859,-2.1358,-2.1829,-2.0905,-2.0387,-1.9835,-1.8677,-1.8307,-1.8216,-1.8216,-1.8216,-1.808,-1.7691,-1.7623,-1.7691,-1.7867,-1.7235,-1.6661,-1.6558,-1.5779,-1.5087,-1.4671,-1.4565,-1.4625,-1.4961,-1.499,-1.5216,-1.5825,-1.6169,-1.6613,-1.7174,-1.724,0.0,-1.8057,-1.7854,-1.7826,-1.8084,-1.8084,-1.8084,-1.8084,-1.8341,-1.8455,-1.8455,-1.8455,-1.8455,-1.8455,-1.8215,-1.8084,-1.8084,-1.8084,-1.8084,-1.8084,-1.8084,-1.8084,-1.8084,-1.8084,-1.8259,-1.8476,-1.8476,-1.8476,-1.8476,-2.8885,-2.8943,-2.8973,-2.8764,-2.8764,-2.8685,-2.855,-2.851,-2.851,-2.851,-2.851,-2.851,-2.851,-2.8379,-2.8075,-2.7516,-2.8143,-2.8673,-2.8843,-2.8973,-2.878,-2.8229,-2.7776,-2.7238,-2.6613,-2.5921,-2.5465,-2.5312,-2.5465,-2.5052,-2.4108,-2.4264,-2.3793,-2.2809,-2.2957,-2.2909,-2.2846,-2.2957,-2.2995,-2.2995,-2.2995,-2.251,-2.1869,-2.2547,-2.2322,-2.1718,-2.2547,-2.2734,-2.2595,-2.2269,-2.2056,-2.1773,-2.0659,-2.075,-2.1087,-2.038,-2.082,-2.1353,-2.0325,-1.9889,-1.9408,-1.7969,-1.7554,-1.747,-1.747,-1.747,-1.747,-1.747,-1.747,-1.7392,-1.7176,-1.684,-1.6392,-1.5868,-1.5395,-1.4983,-1.4643,-1.4552,-1.4515,-1.4515,-1.4515,-1.4714,-1.5216,-1.5362,-1.5835,-1.6866,-1.6528,-1.6736,-1.7772,-1.7435,-1.7435,-1.7936,-1.8057,-1.8084,-1.8084,-1.8563,-1.8782,-1.8782,-1.885,-1.8896,-1.8873,-1.8421,-1.8226,-1.8226,-1.8146,-1.8084,-1.8084,-1.8084,-1.8084,-1.8084,-1.8084,-1.8084,-1.8084,-1.8084,-1.8084,-1.8084,-2.9212,-2.8891,-2.859,-2.855,-2.855,-2.855,-2.851,-2.851,-2.851,-2.851,-2.851,-2.851,-2.851,-2.7846,-2.7348,-2.7255,-2.6659,-2.673,-2.7678,-2.8287,-2.8349,-2.7818,-2.7722,-2.7203,-2.6202,-2.566,-2.5347,-2.5312,-2.5347,-2.4933,-2.4108,-2.412,-2.3379,-2.2021,-2.2697,-2.2622,-2.2021,-2.2697,-2.2995,-2.2995,-2.2995,-2.251,-2.1794,-2.1945,-2.1499,-2.0905,-2.169,-2.1538,-2.1039,-2.1645,-2.1397,-2.0786,-2.0429,-2.0371,-2.0331,-1.9677,-1.9979,-2.0426,-1.992,-1.8937,-1.7935,-1.7398,-1.727,-1.7235,-1.7235,-1.7235,-1.7235,-1.7235,-1.7235,-1.7176,-1.6968,-1.6621,-1.6327,-1.623,-1.5588,-1.5084,-1.5019,-1.4717,-1.4515,-1.4515,-1.4515,-1.4545,-1.4625,-1.5098,-1.5468,-1.5661,-1.6054,-1.6397,-1.6567,-1.6978,-1.723,-1.7341,-1.7815,-1.8084,-1.8084,-1.8192,-1.8226,-1.8237,-1.869,-1.8896,-1.8896,-1.8804,-1.8782,-1.8747,-1.8306,-1.8084,-1.8084,-1.8084,-1.8084,-1.8084,-1.8084,-1.8084,-1.8084,-1.8084,-1.8084,-1.8084,-2.9725,-2.9376,-2.9136,-2.9328,-2.9196,-2.9136,-2.9328,-2.9364,-2.9364,-2.9364,-2.9364,-2.9147,-2.8627,-2.7997,-2.7201,-2.617,-2.5888,-2.5819,-2.5902,-2.7092,-2.7782,-2.7702,-2.7402,-2.6554,-2.5059,-2.4391,-2.4059,-2.4059,-2.4059,-2.3647,-2.2861,-2.2861,-2.2237,-2.1165,-2.1538,-2.1499,-2.1165,-2.1538,-2.1728,-2.1728,-2.1728,-2.1461,-2.1165,-2.1165,-2.0934,-2.0644,-2.1011,-2.0905,-2.0644,-2.1011,-2.0905,-2.0566,-2.0342,-2.0303,-2.0226,-1.9753,-1.9535,-1.9434,-1.9379,-1.8571,-1.7665,-1.7292,-1.7132,-1.7038,-1.7038,-1.7204,-1.7296,-1.7084,-1.7204,-1.7261,-1.6945,-1.6762,-1.6486,-1.6056,-1.5661,-1.534,-1.5129,-1.4946,-1.4909,-1.512,-1.4955,-1.4827,-1.4827,-1.4865,-1.5049,-1.5391,-1.5352,-1.5604,-1.6283,-1.6255,-1.6397,-1.6698,-1.7623,-1.8072,-1.8064,-1.8657,-1.9074,-1.9338,-1.9597,-1.9574,-1.931,-1.9023,-1.8747,-1.8444,-1.8215,-1.8084,-1.8084,-1.8084,-1.8084,-1.8084,-1.8084,-1.8084,-1.8084,-1.8084,-1.8084,-1.8084,-2.9605,-2.9287,-2.911,-2.9369,-2.9204,-2.9194,-2.9689,-2.9725,-2.9821,-3.0086,-3.0086,-2.9737,-2.8709,-2.8151,-2.7145,-2.5404,-2.5387,-2.522,-2.4664,-2.5963,-2.6826,-2.7054,-2.6576,-2.5605,-2.4192,-2.3501,-2.3093,-2.2995,-2.2995,-2.2585,-2.1794,-2.1794,-2.1357,-2.0605,-2.0605,-2.0605,-2.0605,-2.0605,-2.0605,-2.0605,-2.0605,-2.0605,-2.0605,-2.0605,-2.0605,-2.0605,-2.0605,-2.0605,-2.0605,-2.0605,-2.0566,-2.0489,-2.0264,-2.0186,-2.0069,-1.9824,-1.9304,-1.8863,-1.9023,-1.8526,-1.7847,-1.7383,-1.7215,-1.7165,-1.7064,-1.7358,-1.7559,-1.7248,-1.7431,-1.7523,-1.711,-1.6972,-1.6697,-1.6074,-1.5808,-1.5615,-1.5414,-1.5294,-1.5349,-1.5652,-1.5423,-1.5239,-1.5239,-1.4964,-1.4953,-1.5445,-1.496,-1.5043,-1.5985,-1.5634,-1.5613,-1.6026,-1.7112,-1.7729,-1.7809,-1.867,-1.9358,-1.9884,-1.9998,-1.9861,-1.9493,-1.908,-1.869,-1.8283,-1.8141,-1.8084,-1.8084,-1.8084,-1.8084,-1.8084,-1.8084,-1.8084,-1.8084,-1.803,-1.8002,-1.7986,-2.8051,-2.7623,-2.7305,-2.7338,-2.7316,-2.7623,-2.8568,-2.8709,-2.9064,-3.0001,-3.0086,-2.9737,-2.8709,-2.7841,-2.6908,-2.5847,-2.5012,-2.4686,-2.5052,-2.5197,-2.5231,-2.5193,-2.469,-2.4406,-2.4379,-2.3842,-2.3383,-2.2995,-2.2995,-2.2585,-2.1794,-2.1794,-2.1357,-2.0605,-2.0605,-2.0605,-2.0605,-2.0605,-2.0605,-2.0605,-2.0605,-2.0605,-2.0605,-2.0605,-2.0605,-2.0605,-2.0605,-2.0605,-2.0605,-2.0605,-2.0489,-2.0264,-2.002,-1.9794,-1.9597,-1.939,-1.9295,-1.9206,-1.9059,-1.8676,-1.822,-1.7622,-1.7743,-1.7898,-1.7541,-1.7779,-1.8036,-1.7999,-1.8054,-1.7917,-1.7532,-1.7156,-1.689,-1.6826,-1.6184,-1.5817,-1.6175,-1.589,-1.5661,-1.5689,-1.5661,-1.5643,-1.5643,-1.5615,-1.5638,-1.5661,-1.5298,-1.5087,-1.517,-1.5309,-1.5352,-1.5284,-1.6026,-1.6691,-1.7256,-1.7356,-1.7679,-1.8295,-1.8782,-1.8988,-1.8954,-1.8908,-1.8873,-1.8804,-1.8318,-1.8084,-1.8084,-1.8084,-1.8084,-1.8084,-1.8084,-1.8084,-1.8057,-1.7822,-1.7739,-1.7684,-2.8407,-2.7899,-2.7597,-2.7998,-2.7734,-2.7734,-2.8542,-2.8678,-2.8824,-2.9183,-2.9228,-2.8869,-2.7861,-2.7203,-2.6451,-2.5458,-2.4756,-2.4484,-2.466,-2.4446,-2.4508,-2.499,-2.407,-2.3408,-2.3163,-2.2463,-2.192,-2.1499,-2.1499,-2.1357,-2.1059,-2.1059,-2.0905,-2.0605,-2.0605,-2.0605,-2.0605,-2.0605,-2.0605,-2.0605,-2.0605,-2.0605,-2.0605,-2.0605,-2.0605,-2.0605,-2.0605,-2.0605,-2.0566,-2.0459,-2.0342,-2.0225,-1.9833,-1.9676,-1.9557,-1.9341,-1.9301,-1.9265,-1.9196,-1.9079,-1.8828,-1.8348,-1.8559,-1.8742,-1.8339,-1.8568,-1.8715,-1.8191,-1.832,-1.8366,-1.7963,-1.755,-1.7193,-1.6945,-1.6642,-1.6413,-1.6297,-1.6386,-1.6441,-1.6441,-1.623,-1.6074,-1.6074,-1.5845,-1.5689,-1.5689,-1.5551,-1.5359,-1.5111,-1.4868,-1.4704,-1.4636,-1.4795,-1.5537,-1.6958,-1.7096,-1.7806,-1.9074,-1.8875,-1.8825,-1.8896,-1.8896,-1.8724,-1.8387,-1.8203,-1.8084,-1.8084,-1.8084,-1.8084,-1.8084,-1.7931,-1.7849,-1.781,-1.7507,-1.7396,-1.7368,-2.7757,-2.7389,-2.721,-2.7673,-2.74,-2.7342,-2.8121,-2.8215,-2.8355,-2.868,-2.868,-2.8308,-2.7332,-2.6957,-2.637,-2.5369,-2.5,-2.4766,-2.4629,-2.4102,-2.3977,-2.4388,-2.3567,-2.2818,-2.227,-2.1708,-2.1152,-2.0605,-2.0605,-2.0674,-2.0781,-2.0781,-2.0889,-2.1016,-2.084,-2.0781,-2.0762,-2.0664,-2.0605,-2.0605,-2.0605,-2.0566,-2.0489,-2.0489,-2.0489,-2.0489,-2.0411,-2.0411,-2.045,-2.0264,-2.0147,-2.0029,-1.9715,-1.9557,-1.9478,-1.9341,-1.9301,-1.9301,-1.9301,-1.9393,-1.9375,-1.8843,-1.9109,-1.9393,-1.899,-1.921,-1.9347,-1.8768,-1.8759,-1.8779,-1.8347,-1.8073,-1.7752,-1.7348,-1.7284,-1.7147,-1.6743,-1.6917,-1.7046,-1.6927,-1.667,-1.6505,-1.6505,-1.6239,-1.6074,-1.6074,-1.5955,-1.5675,-1.5218,-1.475,-1.4483,-1.4483,-1.4343,-1.4974,-1.6465,-1.6487,-1.7307,-1.8923,-1.8441,-1.8458,-1.8896,-1.8896,-1.8645,-1.8241,-1.8241,-1.8068,-1.781,-1.781,-1.79,-1.8019,-1.7823,-1.7767,-1.7711,-1.7401,-1.7207,-1.7032,-2.5693,-2.5693,-2.5693,-2.5693,-2.5693,-2.6052,-2.7057,-2.7189,-2.7558,-2.8541,-2.868,-2.8308,-2.7284,-2.7189,-2.6781,-2.5781,-2.5693,-2.5547,-2.5145,-2.4268,-2.3603,-2.312,-2.3091,-2.2701,-2.1904,-2.1894,-2.1465,-2.0615,-2.0615,-2.0801,-2.12,-2.12,-2.1434,-2.1865,-2.1395,-2.12,-2.1171,-2.0762,-2.0615,-2.0605,-2.0605,-2.0498,-2.0303,-2.0303,-2.0303,-2.0264,-1.9981,-2.0059,-2.0264,-1.999,-1.9754,-1.9606,-1.9606,-1.9478,-1.9301,-1.9301,-1.9301,-1.9301,-1.9301,-1.9613,-1.9692,-1.8926,-1.9289,-1.9783,-1.9402,-1.9641,-1.9893,-1.9893,-1.9595,-1.9191,-1.8788,-1.8715,-1.8586,-1.8155,-1.8091,-1.7944,-1.7559,-1.7495,-1.7358,-1.6963,-1.6908,-1.6908,-1.6908,-1.6908,-1.6908,-1.6908,-1.6541,-1.6039,-1.5434,-1.5074,-1.4902,-1.4902,-1.4902,-1.5195,-1.5799,-1.5389,-1.5864,-1.7213,-1.7185,-1.7784,-1.8896,-1.8896,-1.8754,-1.8497,-1.8497,-1.8018,-1.72,-1.72,-1.7483,-1.7901,-1.789,-1.789,-1.7872,-1.7619,-1.7193,-1.6761,-2.5693,-2.5693,-2.5693,-2.5693,-2.5693,-2.5781,-2.61,-2.6149,-2.6235,-2.6562,-2.661,-2.6466,-2.6187,-2.6149,-2.6004,-2.5732,-2.5693,-2.5547,-2.5145,-2.4881,-2.4355,-2.3633,-2.3257,-2.2838,-2.2334,-2.2324,-2.2051,-2.1494,-2.1494,-2.1562,-2.1689,-2.1689,-2.1768,-2.1875,-2.1748,-2.1689,-2.168,-2.1553,-2.1318,-2.0995,-2.0857,-2.0603,-2.0264,-2.0098,-2.002,-2.0029,-1.9942,-1.9942,-1.999,-1.9754,-1.9645,-1.9566,-1.9429,-1.9341,-1.9356,-1.9659,-1.9531,-1.9366,-1.9619,-1.9793,-1.9829,-1.9591,-1.9921,-2.031,-2.0182,-2.0214,-2.0296,-2.0296,-1.9985,-1.9664,-1.9546,-1.91,-1.8678,-1.8559,-1.854,-1.8394,-1.799,-1.7935,-1.7779,-1.7367,-1.7073,-1.6908,-1.6908,-1.6908,-1.6908,-1.6908,-1.6397,-1.5938,-1.5646,-1.5149,-1.4902,-1.4902,-1.483,-1.4887,-1.5163,-1.5155,-1.5763,-1.7052,-1.6647,-1.7022,-1.8126,-1.8028,-1.8013,-1.8093,-1.8336,-1.816,-1.7723,-1.8042,-1.8259,-1.8371,-1.819,-1.8111,-1.808,-1.7777,-1.7323,-1.6969,-2.5693,-2.5693,-2.5693,-2.5693,-2.5693,-2.5693,-2.5693,-2.5693,-2.5693,-2.5693,-2.5693,-2.5693,-2.5693,-2.5693,-2.5693,-2.5693,-2.5693,-2.5625,-2.5352,-2.5166,-2.4881,-2.4316,-2.3877,-2.3247,-2.2529,-2.251,-2.2305,-2.1885,-2.1885,-2.1973,-2.2139,-2.2139,-2.2217,-2.2373,-2.2207,-2.2139,-2.2119,-2.187,-2.1564,-2.1281,-2.1108,-2.0824,-2.0474,-2.0313,-2.017,-2.0029,-1.9909,-1.9846,-1.9773,-1.9752,-1.9728,-1.9688,-1.9589,-1.9549,-1.9567,-1.9659,-1.9732,-1.9806,-1.9866,-2.0003,-2.0122,-2.0122,-2.0457,-2.0714,-2.0558,-2.064,-2.0704,-2.0549,-2.0287,-2.0076,-1.9921,-1.9491,-1.9097,-1.8971,-1.8944,-1.8806,-1.8374,-1.8282,-1.8034,-1.7568,-1.7213,-1.6977,-1.6917,-1.6908,-1.6874,-1.6795,-1.6327,-1.5987,-1.5876,-1.5495,-1.5272,-1.5272,-1.5188,-1.5188,-1.5272,-1.5339,-1.5794,-1.6638,-1.6259,-1.6694,-1.7759,-1.7677,-1.7645,-1.7696,-1.8112,-1.7976,-1.7557,-1.8033,-1.8348,-1.8508,-1.8332,-1.827,-1.8239,-1.8051,-1.7678,-1.7327,-2.5801,-2.5771,-2.5742,-2.5742,-2.5713,-2.5693,-2.5693,-2.5693,-2.5693,-2.5693,-2.5693,-2.5693,-2.5693,-2.5693,-2.5693,-2.5693,-2.5693,-2.5693,-2.5693,-2.5352,-2.5165,-2.5116,-2.4687,-2.3906,-2.2705,-2.2646,-2.2422,-2.2002,-2.2002,-2.2197,-2.2526,-2.2526,-2.273,-2.3038,-2.274,-2.2584,-2.2512,-2.1951,-2.1704,-2.1623,-2.1423,-2.1175,-2.0908,-2.0908,-2.0643,-2.0318,-2.0085,-1.9878,-1.9771,-1.9911,-1.9939,-1.9939,-1.9939,-1.9939,-1.9875,-1.9567,-1.9962,-2.0448,-2.0085,-2.0259,-2.0525,-2.0525,-2.0869,-2.1062,-2.0668,-2.0824,-2.097,-2.0686,-2.0525,-2.042,-2.0058,-1.9966,-1.9802,-1.943,-1.9356,-1.9219,-1.8786,-1.855,-1.8183,-1.7615,-1.7361,-1.7171,-1.7011,-1.6974,-1.6904,-1.6676,-1.6369,-1.6184,-1.6114,-1.598,-1.5882,-1.5848,-1.5882,-1.5882,-1.5848,-1.5848,-1.5911,-1.6062,-1.6062,-1.6596,-1.7605,-1.7631,-1.75,-1.7291,-1.7855,-1.7666,-1.701,-1.7542,-1.8018,-1.8476,-1.8476,-1.8476,-1.8476,-1.8476,-1.8164,-1.775,-2.6738,-2.6475,-2.625,-2.625,-2.5967,-2.5693,-2.5693,-2.5693,-2.5693,-2.5693,-2.5693,-2.5693,-2.5693,-2.5693,-2.5693,-2.5693,-2.5693,-2.5693,-2.5693,-2.5596,-2.5439,-2.5135,-2.498,-2.4639,-2.4014,-2.3682,-2.3301,-2.2818,-2.2818,-2.279,-2.2746,-2.2746,-2.2663,-2.2583,-2.2999,-2.3105,-2.2936,-2.33,-2.3169,-2.265,-2.2481,-2.215,-2.1782,-2.1597,-2.1464,-2.1344,-2.097,-2.0796,-2.0728,-2.0466,-2.0393,-2.0393,-2.0393,-2.0393,-2.0387,-2.0649,-2.0622,-2.0567,-2.0796,-2.0915,-2.0979,-2.0979,-2.1248,-2.1449,-2.1071,-2.0805,-2.0763,-2.1321,-2.0918,-2.0585,-2.0814,-2.0594,-2.0223,-1.9861,-1.9756,-1.9569,-1.9,-1.8614,-1.8276,-1.8011,-1.765,-1.7464,-1.7596,-1.7587,-1.7476,-1.7098,-1.6987,-1.6746,-1.627,-1.6507,-1.6542,-1.6278,-1.6516,-1.6533,-1.627,-1.627,-1.6145,-1.5861,-1.5861,-1.6198,-1.6862,-1.7173,-1.717,-1.6959,-1.7693,-1.7795,-1.7496,-1.7975,-1.8474,-1.8953,-1.8953,-1.8953,-1.8953,-1.8953,-1.8662,-1.8195,-2.7012,-2.6836,-2.6689,-2.6689,-2.6328,-2.6045,-2.6045,-2.582,-2.5693,-2.5693,-2.5693,-2.5693,-2.5693,-2.5693,-2.5693,-2.5693,-2.5693,-2.5693,-2.5693,-2.5693,-2.5635,-2.54,-2.5237,-2.5033,-2.4736,-2.4382,-2.3965,-2.3447,-2.3198,-2.3013,-2.2803,-2.2803,-2.2662,-2.2407,-2.2758,-2.2853,-2.2737,-2.3199,-2.3155,-2.2839,-2.2824,-2.2686,-2.2455,-2.2318,-2.2144,-2.1943,-2.1768,-2.1566,-2.1302,-2.0934,-2.0796,-2.0796,-2.0796,-2.0796,-2.0805,-2.0824,-2.0952,-2.1055,-2.1108,-2.1255,-2.141,-2.141,-2.1531,-2.1577,-2.12,-2.1108,-2.1119,-2.1392,-2.1211,-2.1055,-2.1108,-2.0934,-2.0625,-2.0116,-2.0052,-1.9824,-1.9164,-1.882,-1.8483,-1.8133,-1.7843,-1.7649,-1.7643,-1.7578,-1.7428,-1.7241,-1.709,-1.6937,-1.6582,-1.6807,-1.6833,-1.6627,-1.6816,-1.6824,-1.6627,-1.6619,-1.6439,-1.6098,-1.5882,-1.5938,-1.6237,-1.6439,-1.6612,-1.6748,-1.7403,-1.7813,-1.7975,-1.8472,-1.8841,-1.9108,-1.9108,-1.9108,-1.9108,-1.9108,-1.8953,-1.8673,-2.7236,-2.7178,-2.7129,-2.7129,-2.6777,-2.6494,-2.6494,-2.6123,-2.5801,-2.5801,-2.5732,-2.5693,-2.5693,-2.5693,-2.5693,-2.5693,-2.5693,-2.5693,-2.5693,-2.5693,-2.5684,-2.5635,-2.544,-2.5218,-2.509,-2.4794,-2.437,-2.3896,-2.3467,-2.3076,-2.2865,-2.2788,-2.2574,-2.2309,-2.2384,-2.2412,-2.2396,-2.2673,-2.2805,-2.275,-2.2934,-2.3004,-2.3014,-2.3087,-2.2942,-2.2621,-2.251,-2.219,-2.1742,-2.1438,-2.1273,-2.1218,-2.1218,-2.1218,-2.1145,-2.0824,-2.1165,-2.1614,-2.131,-2.1475,-2.1696,-2.1696,-2.1696,-2.1604,-2.1291,-2.1385,-2.1459,-2.1229,-2.1394,-2.1459,-2.1273,-2.1218,-2.1003,-2.0406,-2.0301,-2.0072,-1.9359,-1.9108,-1.883,-1.8351,-1.811,-1.7878,-1.7608,-1.748,-1.7395,-1.7327,-1.7183,-1.7043,-1.7021,-1.7072,-1.7043,-1.7013,-1.7072,-1.7043,-1.7013,-1.7013,-1.6824,-1.6484,-1.6139,-1.5959,-1.5899,-1.6066,-1.6298,-1.6571,-1.7234,-1.7749,-1.8202,-1.8731,-1.9008,-1.9108,-1.9108,-1.9108,-1.9108,-1.9108,-1.9108,-1.9046,-2.8115,-2.7822,-2.763,-2.763,-2.7217,-2.6934,-2.6934,-2.6572,-2.6299,-2.6299,-2.5977,-2.5693,-2.5693,-2.5693,-2.5693,-2.5693,-2.5693,-2.5693,-2.5693,-2.5693,-2.5586,-2.5333,-2.5333,-2.5206,-2.4944,-2.4554,-2.4326,-2.4336,-2.3906,-2.3477,-2.3071,-2.2656,-2.222,-2.1839,-2.2415,-2.2518,-2.2364,-2.2945,-2.3084,-2.2905,-2.3251,-2.3416,-2.3453,-2.3859,-2.3999,-2.3908,-2.3453,-2.2849,-2.219,-2.2181,-2.1888,-2.1604,-2.1604,-2.1604,-2.1595,-2.154,-2.1604,-2.1678,-2.1623,-2.165,-2.1696,-2.1696,-2.1696,-2.1678,-2.1623,-2.1244,-2.1029,-2.1496,-2.1235,-2.1082,-2.1549,-2.1604,-2.1432,-2.0804,-2.0697,-2.0424,-1.9597,-1.9417,-1.9339,-1.9083,-1.8865,-1.8551,-1.8009,-1.8125,-1.8125,-1.7926,-1.7886,-1.7701,-1.7415,-1.7706,-1.7732,-1.7445,-1.7715,-1.7723,-1.7437,-1.7437,-1.7209,-1.6841,-1.679,-1.6593,-1.6358,-1.7111,-1.7039,-1.6396,-1.7475,-1.7773,-1.7588,-1.8168,-1.8674,-1.9108,-1.9108,-1.9108,-1.9108,-1.9108,-1.9108,-1.9098,-2.8291,-2.8144,-2.8018,-2.8018,-2.7666,-2.7373,-2.7373,-2.6816,-2.6387,-2.6387,-2.6006,-2.5693,-2.5693,-2.5693,-2.5693,-2.5693,-2.5693,-2.5693,-2.5693,-2.5693,-2.5586,-2.5333,-2.5137,-2.503,-2.4883,-2.4557,-2.4523,-2.467,-2.4065,-2.3564,-2.3195,-2.3008,-2.261,-2.2025,-2.2336,-2.2299,-2.1989,-2.276,-2.2989,-2.294,-2.3334,-2.3684,-2.3877,-2.3831,-2.395,-2.4146,-2.3684,-2.3261,-2.2885,-2.2428,-2.2163,-2.198,-2.176,-2.1696,-2.1696,-2.1696,-2.1696,-2.1696,-2.1696,-2.1696,-2.1696,-2.1696,-2.1696,-2.1696,-2.1696,-2.1274,-2.1024,-2.1436,-2.1416,-2.1344,-2.149,-2.1607,-2.1543,-2.0997,-2.0926,-2.0607,-1.9748,-1.9609,-1.9497,-1.9239,-1.911,-1.8938,-1.8691,-1.8799,-1.8704,-1.8357,-1.834,-1.8177,-1.7809,-1.7906,-1.7923,-1.7792,-1.7906,-1.7914,-1.7783,-1.7783,-1.7595,-1.7227,-1.7402,-1.7235,-1.6679,-1.7096,-1.7182,-1.7118,-1.7596,-1.7803,-1.7748,-1.8027,-1.8134,-1.8192,-1.8529,-1.8831,-1.9108,-1.9108,-1.9108,-1.9108]},{"header":{"parameterUnit":"m.s-1","parameterCategory":1,"la1":30.6,"la2":28.766,"lo1":-90.7593,"lo2":-88.6598,"dy":0.0162,"dx":0.0183,"nx":116,"ny":114,"refTime":"2024-03-17T12:00:00:Z","depth":0,"parameterNumber":3,"parameterNumberName":"V-component_of_WINDS"},"data":[0.0,0.0,0.0,0.0,0.0,0.0,0.0,0.0,0.0,0.0,0.0,0.0,0.0,0.0,0.0,0.0,0.0,0.0,0.0,0.0,0.0,0.0,0.0,0.0,0.0,0.0,0.0,0.0,0.0,0.0,0.0,0.0,0.0,0.0,0.0,0.0,0.0,0.0,0.0,0.0,0.0,0.0,0.0,0.0,0.0,0.0,0.0,0.0,0.0,0.0,0.0,0.0,0.0,0.0,0.0,0.0,0.0,0.0,0.0,0.0,0.0,0.0,0.0,0.0,0.0,0.0,0.0,0.0,0.0,0.0,0.0,0.0,0.0,0.0,0.0,0.0,0.0,0.0,0.0,0.0,0.0,0.0,0.0,0.0,0.0,0.0,0.0,0.0,0.0,0.0,0.0,0.0,0.0,0.0,0.0,0.0,0.0,0.0,0.0,0.0,0.0,0.0,0.0,0.0,0.0,0.0,0.0,0.0,0.0,0.0,0.0,0.0,0.0,0.0,0.0,0.0,0.0,0.0,0.0,0.0,0.0,0.0,0.0,0.0,0.0,0.0,0.0,0.0,0.0,0.0,0.0,0.0,0.0,0.0,0.0,0.0,0.0,0.0,0.0,0.0,0.0,0.0,0.0,0.0,0.0,0.0,0.0,0.0,0.0,0.0,0.0,0.0,0.0,0.0,0.0,0.0,0.0,0.0,0.0,0.0,0.0,0.0,0.0,0.0,0.0,0.0,0.0,0.0,0.0,0.0,0.0,0.0,0.0,0.0,0.0,0.0,0.0,0.0,0.0,0.0,0.0,0.0,0.0,0.0,0.0,0.0,0.0,0.0,0.0,0.0,0.0,0.0,0.0,0.0,0.0,0.0,0.0,0.0,0.0,0.0,0.0,0.0,0.0,0.0,0.0,0.0,0.0,0.0,0.0,0.0,0.0,0.0,0.0,0.0,0.0,0.0,0.0,0.0,0.0,0.0,0.0,0.0,0.0,0.0,0.0,0.0,0.0,0.0,0.0,0.0,0.0,0.0,0.0,0.0,0.0,0.0,0.0,0.0,0.0,0.0,0.0,0.0,0.0,0.0,0.0,0.0,0.0,0.0,0.0,0.0,0.0,0.0,0.0,0.0,0.0,0.0,0.0,0.0,0.0,0.0,0.0,0.0,0.0,0.0,0.0,0.0,0.0,0.0,0.0,0.0,0.0,0.0,0.0,0.0,0.0,0.0,0.0,0.0,0.0,0.0,0.0,0.0,0.0,0.0,0.0,0.0,0.0,0.0,0.0,0.0,0.0,0.0,0.0,0.0,0.0,0.0,0.0,0.0,0.0,0.0,0.0,0.0,0.0,0.0,0.0,0.0,0.0,0.0,0.0,0.0,0.0,0.0,0.0,0.0,0.0,0.0,0.0,0.0,0.0,0.0,0.0,0.0,0.0,0.0,0.0,0.0,0.0,0.0,0.0,0.0,0.0,0.0,0.0,0.0,0.0,0.0,0.0,0.0,0.0,0.0,0.0,0.0,0.0,0.0,0.0,0.0,0.0,0.0,0.0,0.0,0.0,0.0,0.0,0.0,0.0,0.0,0.0,0.0,0.0,0.0,0.0,0.0,0.0,0.0,0.0,0.0,0.0,0.0,0.0,0.0,0.0,0.0,0.0,0.0,0.0,0.0,0.0,0.0,0.0,0.0,0.0,0.0,0.0,0.0,0.0,0.0,0.0,0.0,0.0,0.0,0.0,0.0,0.0,0.0,0.0,0.0,0.0,0.0,0.0,0.0,0.0,0.0,0.0,0.0,0.0,0.0,0.0,0.0,0.0,0.0,0.0,0.0,0.0,0.0,0.0,0.0,0.0,0.0,0.0,0.0,0.0,0.0,0.0,0.0,0.0,0.0,0.0,0.0,0.0,0.0,0.0,0.0,0.0,0.0,0.0,0.0,0.0,0.0,0.0,0.0,0.0,0.0,0.0,0.0,0.0,0.0,0.0,0.0,0.0,0.0,0.0,0.0,0.0,0.0,0.0,0.0,0.0,0.0,0.0,0.0,0.0,0.0,0.0,0.0,0.0,0.0,0.0,0.0,0.0,0.0,0.0,0.0,0.0,0.0,0.0,0.0,0.0,0.0,0.0,0.0,0.0,0.0,0.0,0.0,0.0,0.0,0.0,0.0,0.0,0.0,0.0,0.0,0.0,0.0,0.0,0.0,0.0,0.0,0.0,0.0,0.0,0.0,0.0,0.0,0.0,0.0,0.0,0.0,0.0,0.0,0.0,0.0,0.0,0.0,0.0,0.0,0.0,0.0,0.0,0.0,0.0,0.0,0.0,0.0,0.0,0.0,0.0,0.0,0.0,0.0,0.0,0.0,0.0,0.0,0.0,0.0,0.0,0.0,0.0,0.0,0.0,0.0,0.0,0.0,0.0,0.0,0.0,0.0,0.0,0.0,0.0,0.0,0.0,0.0,0.0,0.0,0.0,0.0,0.0,0.0,0.0,0.0,0.0,0.0,0.0,0.0,0.0,0.0,0.0,0.0,0.0,0.0,0.0,0.0,0.0,0.0,0.0,0.0,0.0,0.0,0.0,0.0,0.0,0.0,0.0,0.0,0.0,0.0,0.0,0.0,0.0,0.0,0.0,0.0,0.0,0.0,0.0,0.0,0.0,0.0,0.0,0.0,0.0,0.0,0.0,0.0,0.0,0.0,0.0,0.0,0.0,0.0,0.0,0.0,0.0,0.0,0.0,0.0,0.0,0.0,0.0,0.0,0.0,0.0,0.0,0.0,0.0,0.0,0.0,0.0,0.0,0.0,0.0,0.0,0.0,0.0,0.0,0.0,0.0,0.0,0.0,0.0,0.0,0.0,0.0,0.0,0.0,0.0,0.0,0.0,0.0,0.0,0.0,0.0,0.0,0.0,0.0,0.0,0.0,0.0,0.0,0.0,0.0,0.0,0.0,0.0,0.0,0.0,0.0,0.0,0.0,0.0,0.0,0.0,0.0,0.0,0.0,0.0,0.0,0.0,0.0,0.0,0.0,0.0,0.0,0.0,0.0,0.0,0.0,0.0,0.0,0.0,0.0,0.0,0.0,0.0,0.0,0.0,0.0,0.0,0.0,0.0,0.0,0.0,0.0,0.0,0.0,0.0,0.0,0.0,0.0,0.0,0.0,0.0,0.0,0.0,0.0,0.0,0.0,0.0,0.0,0.0,0.0,0.0,0.0,0.0,0.0,0.0,0.0,0.0,0.0,0.0,0.0,0.0,0.0,0.0,0.0,0.0,0.0,0.0,0.0,0.0,0.0,0.0,0.0,0.0,0.0,0.0,0.0,0.0,0.0,0.0,0.0,0.0,0.0,0.0,0.0,0.0,0.0,0.0,0.0,0.0,0.0,0.0,0.0,0.0,0.0,0.0,0.0,0.0,0.0,0.0,0.0,0.0,0.0,0.0,0.0,0.0,0.0,0.0,0.0,0.0,0.0,0.0,0.0,0.0,0.0,0.0,0.0,0.0,0.0,0.0,0.0,0.0,0.0,0.0,0.0,0.0,0.0,0.0,0.0,0.0,0.0,0.0,0.0,0.0,0.0,0.0,0.0,0.0,0.0,0.0,0.0,0.0,0.0,0.0,0.0,0.0,0.0,0.0,0.0,0.0,0.0,0.0,0.0,0.0,0.0,0.0,0.0,0.0,0.0,0.0,0.0,0.0,0.0,0.0,0.0,0.0,0.0,0.0,0.0,0.0,0.0,0.0,0.0,0.0,0.0,0.0,0.0,0.0,0.0,0.0,0.0,0.0,0.0,0.0,0.0,0.0,0.0,0.0,0.0,0.0,0.0,0.0,0.0,0.0,0.0,0.0,0.0,0.0,0.0,0.0,0.0,0.0,0.0,0.0,0.0,0.0,0.0,0.0,0.0,0.0,0.0,0.0,0.0,0.0,0.0,0.0,0.0,0.0,0.0,0.0,0.0,0.0,0.0,0.0,0.0,0.0,0.0,0.0,0.0,0.0,0.0,0.0,0.0,0.0,0.0,0.0,0.0,0.0,0.0,0.0,0.0,0.0,0.0,0.0,0.0,0.0,0.0,0.0,0.0,0.0,0.0,0.0,0.0,0.0,0.0,0.0,0.0,0.0,0.0,0.0,0.0,0.0,0.0,0.0,0.0,0.0,0.0,0.0,0.0,0.0,0.0,0.0,0.0,0.0,0.0,0.0,0.0,0.0,0.0,0.0,0.0,0.0,0.0,0.0,0.0,0.0,0.0,0.0,0.0,0.0,0.0,0.0,0.0,0.0,0.0,0.0,0.0,0.0,0.0,0.0,0.0,0.0,0.0,0.0,0.0,0.0,0.0,0.0,0.0,0.0,0.0,0.0,0.0,0.0,0.0,0.0,0.0,0.0,0.0,0.0,0.0,0.0,0.0,0.0,0.0,0.0,0.0,0.0,0.0,0.0,0.0,0.0,0.0,0.0,0.0,0.0,0.0,0.0,0.0,0.0,0.0,0.0,0.0,0.0,0.0,0.0,0.0,0.0,0.0,0.0,0.0,0.0,0.0,0.0,0.0,0.0,0.0,0.0,0.0,0.0,0.0,0.0,0.0,0.0,0.0,0.0,0.0,0.0,0.0,0.0,0.0,0.0,0.0,0.0,0.0,0.0,0.0,0.0,0.0,0.0,0.0,0.0,0.0,0.0,0.0,0.0,0.0,0.0,0.0,0.0,0.0,0.0,0.0,0.0,0.0,0.0,0.0,0.0,0.0,0.0,0.0,0.0,0.0,0.0,0.0,0.0,0.0,0.0,0.0,0.0,0.0,0.0,0.0,0.0,0.0,0.0,0.0,0.0,0.0,0.0,0.0,0.0,0.0,0.0,0.0,0.0,0.0,0.0,0.0,0.0,0.0,0.0,0.0,0.0,0.0,0.0,0.0,0.0,0.0,0.0,0.0,0.0,0.0,0.0,0.0,0.0,0.0,0.0,0.0,0.0,0.0,0.0,0.0,0.0,0.0,0.0,0.0,0.0,0.0,0.0,0.0,0.0,0.0,0.0,0.0,0.0,0.0,0.0,0.0,0.0,0.0,0.0,0.0,0.0,0.0,0.0,0.0,0.0,0.0,0.0,0.0,0.0,0.0,0.0,0.0,0.0,0.0,0.0,0.0,0.0,0.0,0.0,0.0,0.0,0.0,0.0,0.0,0.0,0.0,0.0,0.0,0.0,0.0,0.0,0.0,0.0,0.0,0.0,0.0,0.0,0.0,0.0,0.0,0.0,0.0,0.0,0.0,0.0,0.0,0.0,0.0,0.0,0.0,0.0,0.0,0.0,0.0,0.0,0.0,0.0,0.0,0.0,0.0,0.0,0.0,0.0,0.0,0.0,0.0,0.0,0.0,0.0,0.0,0.0,0.0,0.0,0.0,0.0,0.0,0.0,0.0,0.0,0.0,0.0,0.0,0.0,0.0,0.0,0.0,0.0,0.0,0.0,0.0,0.0,0.0,0.0,0.0,0.0,0.0,0.0,0.0,0.0,0.0,0.0,0.0,0.0,0.0,0.0,0.0,0.0,0.0,0.0,0.0,0.0,0.0,0.0,0.0,0.0,0.0,0.0,0.0,0.0,0.0,0.0,0.0,0.0,0.0,0.0,0.0,0.0,0.0,0.0,0.0,0.0,0.0,0.0,0.0,0.0,0.0,0.0,0.0,0.0,0.0,0.0,0.0,0.0,0.0,0.0,0.0,0.0,0.0,0.0,0.0,0.0,0.0,0.0,0.0,0.0,0.0,0.0,0.0,0.0,0.0,0.0,0.0,0.0,0.0,0.0,0.0,0.0,0.0,0.0,0.0,0.0,0.0,0.0,0.0,0.0,0.0,0.0,0.0,0.0,0.0,0.0,0.0,0.0,0.0,0.0,0.0,0.0,0.0,0.0,0.0,0.0,0.0,0.0,0.0,0.0,0.0,0.0,0.0,0.0,0.0,0.0,0.0,0.0,0.0,0.0,0.0,0.0,0.0,0.0,0.0,0.0,0.0,0.0,0.0,0.0,0.0,0.0,0.0,0.0,0.0,0.0,0.0,0.0,0.0,0.0,0.0,0.0,0.0,0.0,0.0,0.0,0.0,0.0,0.0,0.0,-0.9479,-1.0076,0.0,0.0,0.0,0.0,0.0,0.0,0.0,0.0,0.0,0.0,0.0,0.0,0.0,0.0,0.0,0.0,0.0,0.0,0.0,0.0,0.0,0.0,0.0,0.0,0.0,0.0,0.0,0.0,0.0,0.0,0.0,0.0,0.0,0.0,0.9706,0.9569,0.9484,0.9484,0.9439,0.9439,0.9542,0.9487,0.9126,0.8507,0.0,0.0,0.0,0.0,0.0,0.0,0.0,0.0,0.0,0.0,0.0,0.0,0.0,0.0,0.0,0.0,0.0,0.0,0.0,0.0,0.0,0.0,0.0,0.0,0.0,0.0,0.0,0.0,0.0,0.0,0.0,0.0,0.0,0.0,0.0,0.0,0.0,0.0,0.0,0.0,0.0,0.0,0.0,0.0,0.0,0.0,0.0,0.0,0.0,0.0,0.0,0.0,0.0,0.0,0.0,0.0,0.0,0.0,0.0,0.0,0.0,0.0,0.0,0.0,0.0,0.0,0.0,0.0,0.0,0.0,-0.9755,-0.9967,0.0,0.0,0.0,0.0,0.0,0.0,0.0,0.0,0.0,0.0,0.0,0.0,0.0,0.0,0.0,0.0,0.0,0.0,0.0,0.0,0.0,0.0,0.0,0.9647,0.9647,0.9666,0.9666,0.9725,0.9818,0.9851,0.9877,0.9999,0.9895,0.9874,0.9933,0.9833,0.9776,0.9809,0.9782,0.9841,1.0006,1.0165,0.975,0.0,0.0,0.0,0.0,0.0,0.0,0.0,0.0,0.0,0.0,0.0,0.0,0.0,0.0,0.0,0.0,0.0,0.0,0.0,0.0,0.0,0.0,0.0,0.0,0.0,0.0,0.0,0.0,0.0,0.0,0.0,0.0,0.0,0.0,0.0,0.0,0.0,0.0,0.0,0.0,0.0,0.0,0.0,0.0,0.0,0.0,0.0,0.0,0.0,0.0,0.0,0.0,0.0,0.0,0.0,0.0,0.0,0.0,0.0,0.0,0.0,0.0,0.0,0.0,0.0,-0.6988,-0.7154,-0.8406,-0.8864,-0.9163,-0.9403,-1.0072,-0.9799,-0.8912,-0.9467,0.0,0.0,0.0,0.0,0.0,0.0,0.0,0.0,0.0,0.0,0.0,0.0,0.0,0.0,0.0,0.0,0.0,0.0,0.0,0.0,0.0,0.9766,0.9818,0.9947,0.994,0.9947,0.9973,0.9973,0.9973,0.9999,0.9973,1.0128,1.0497,1.047,1.0533,1.0653,1.0519,1.0428,1.0329,1.0344,1.0236,0.9995,0.9829,0.0,0.0,0.0,0.0,0.0,0.0,0.0,0.0,0.0,0.0,0.0,0.0,0.0,0.0,0.0,0.0,0.0,0.0,0.0,0.0,0.0,0.0,0.0,0.0,0.0,0.0,0.0,0.0,0.0,0.0,0.0,0.0,0.0,0.0,0.0,0.0,0.0,0.0,0.0,0.0,0.0,0.0,0.0,-0.3416,-0.3583,0.0,0.0,0.0,0.0,0.0,0.0,0.0,0.0,0.0,0.0,0.0,0.0,0.0,-0.5725,-0.583,-0.5761,-0.5863,-0.6164,-0.6628,-0.6945,-0.7188,-0.8682,-0.9444,-0.9673,-1.0371,0.0,-0.989,-0.9757,0.0,0.0,0.0,0.0,0.0,0.0,0.0,0.0,0.0,0.0,0.0,0.0,0.0,0.0,0.0,0.0,0.0,0.0,0.0,0.0,0.0,0.9921,0.9947,0.9999,0.9999,1.0051,1.0162,1.0339,1.0388,1.0298,1.0399,1.045,1.043,1.0528,1.0479,1.0236,1.0464,1.0329,0.9781,1.0078,1.0168,1.0007,0.9812,0.9914,1.0187,1.0135,0.0,0.0,0.0,0.0,0.0,0.0,0.0,0.0,0.0,0.0,0.0,0.0,0.0,0.0,0.0,0.0,0.0,0.0,0.0,0.0,0.0,0.0,0.0,0.0,0.0,0.0,0.0,0.0,0.0,0.0,0.0,0.0,0.0,0.0,0.0,0.0,0.0,0.0,0.0,-0.3124,-0.3684,-0.3619,-0.3727,-0.3823,0.0,0.0,0.0,0.0,0.0,0.0,0.0,0.0,0.0,-0.5599,-0.561,-0.564,-0.5708,-0.5708,-0.5951,-0.6412,-0.6337,-0.6801,-0.7757,-0.8594,-0.9295,-0.9956,-1.074,-1.0989,-1.0769,-1.018,-0.9624,-0.9198,0.0,0.0,0.0,0.0,-0.8884,-0.9024,0.0,0.0,0.0,0.0,0.0,0.0,0.0,0.0,0.0,0.0,0.0,0.0,1.0076,1.0161,1.0176,1.0136,1.0213,1.0311,1.0475,1.064,1.0682,1.0639,1.0693,1.0695,1.0601,1.0854,1.074,1.0329,1.0634,1.0458,0.9809,1.0223,1.0315,1.0101,0.9934,1.0021,1.0259,1.0217,1.0129,0.0,0.0,0.0,0.0,0.0,0.0,0.0,0.0,0.0,0.0,0.0,0.0,0.0,0.0,0.0,0.0,0.0,0.0,0.0,0.0,0.0,0.0,0.0,0.0,0.0,0.0,0.0,0.0,0.0,0.0,0.0,0.0,0.0,0.0,0.0,0.0,0.0,0.0,-0.3332,-0.3739,-0.3627,-0.386,-0.4019,0.0,0.0,0.0,0.0,0.0,0.0,-0.5433,-0.5453,-0.5573,-0.5793,-0.584,-0.5878,-0.5918,-0.5956,-0.6289,-0.6853,-0.6291,-0.6734,-0.8098,-0.8675,-0.9332,-1.0105,-1.1179,-1.1575,-1.1476,-1.0668,-1.0087,-0.9644,-0.9491,-0.9304,-0.9132,-0.9058,-0.9165,-0.9324,0.0,0.0,0.0,0.0,0.0,0.0,0.0,0.0,0.0,0.0,0.0,1.0265,1.0265,1.0561,1.0676,1.0494,1.078,1.0944,1.0971,1.0677,1.0637,1.0955,1.0695,1.0814,1.1424,1.1759,1.1876,1.1786,1.1451,1.1233,1.1199,1.1225,1.1033,1.0654,1.0642,1.0168,0.9358,0.9162,0.9064,0.9058,0.0,0.0,0.0,0.0,0.0,0.0,0.0,0.0,0.0,0.0,0.0,0.0,0.0,0.0,0.0,0.0,0.0,0.0,0.0,0.0,0.0,0.0,0.0,0.0,0.0,0.0,0.0,0.0,0.0,0.0,0.0,0.0,0.0,0.0,0.0,0.0,0.0,0.0,0.0,-0.3627,-0.3936,0.0,0.0,0.0,0.0,-0.5044,-0.5243,-0.5436,-0.5569,-0.5579,-0.5647,-0.5796,-0.5942,-0.6088,-0.6276,-0.6412,-0.6552,-0.6695,-0.6654,-0.6819,-0.7222,-0.9031,-0.9875,-0.9981,-1.1577,-1.2104,-1.1832,-1.1196,-1.0929,-1.0848,-1.0294,-1.006,-0.999,-0.974,-0.9675,-0.9659,0.0,0.0,0.0,0.0,0.0,0.0,0.0,0.0,1.0419,1.0419,1.0419,1.0506,1.0735,1.087,1.098,1.1122,1.1241,1.1312,1.1312,1.1374,1.1385,1.1304,1.1366,1.1463,1.1638,1.1965,1.1862,1.1335,1.1695,1.1497,1.0714,1.1294,1.1258,1.0713,1.1035,1.0483,0.9383,0.9485,0.9476,0.9365,0.9327,0.878,0.0,0.0,0.0,0.0,0.0,0.0,0.0,0.0,0.0,0.0,0.0,0.0,0.0,0.0,0.0,0.0,0.0,0.0,0.0,0.0,0.0,0.0,0.0,0.0,0.0,0.0,0.0,0.0,0.0,0.0,0.0,0.0,0.0,0.0,0.0,0.0,0.0,-0.3219,-0.4038,0.0,-0.4588,-0.4961,-0.5288,-0.542,-0.5562,-0.5791,-0.6047,-0.6146,-0.6227,-0.6376,-0.6434,-0.6488,-0.6542,-0.6593,-0.6647,-0.6702,-0.6702,-0.7473,-0.8932,-0.9574,-1.0667,-1.2079,-1.2616,-1.2712,-1.2455,-1.2248,-1.1712,-1.0955,-1.0555,-1.0287,-1.008,-0.9793,-0.98,-0.996,0.0,0.0,0.0,0.0,0.0,0.0,0.0,0.0,1.0496,1.0496,1.0496,1.0675,1.1108,1.1261,1.1422,1.164,1.189,1.1906,1.1644,1.1932,1.2074,1.2012,1.2133,1.2147,1.2052,1.2292,1.2228,1.1793,1.2221,1.1928,1.0914,1.1744,1.1662,1.0939,1.1479,1.1029,0.9841,0.9955,0.9667,0.9112,0.9201,0.8712,0.7956,0.0,0.0,0.0,0.0,0.0,0.0,0.0,0.0,0.0,0.0,0.0,0.0,0.0,0.0,0.0,0.0,0.0,0.0,0.0,0.0,0.0,0.0,0.0,0.0,0.0,0.0,0.0,0.0,0.0,0.0,0.0,0.0,0.0,0.0,-0.2166,-0.2754,-0.3039,-0.3866,-0.4603,-0.4994,-0.5354,-0.5654,-0.5874,-0.6023,-0.6193,-0.6436,-0.6538,-0.6597,-0.6698,-0.6753,-0.6776,-0.6776,-0.6824,-0.6848,-0.6848,-0.6848,-0.764,-0.9095,-0.9507,-1.046,-1.1833,-1.2249,-1.2397,-1.2312,-1.2312,-1.1968,-1.1403,-1.1149,-1.0822,-1.0521,-1.0234,-1.0187,-1.0254,0.0,0.0,0.0,0.0,0.0,0.0,0.0,1.0496,1.0496,1.0496,1.0496,1.0735,1.1401,1.1765,1.196,1.1985,1.2603,1.267,1.197,1.2265,1.2623,1.2934,1.2827,1.2754,1.2695,1.2813,1.3045,1.3321,1.3066,1.2624,1.2009,1.2676,1.2437,1.1451,1.2111,1.1772,1.0743,1.0514,0.955,0.8205,0.8672,0.8438,0.787,0.0,0.0,0.0,0.0,0.0,0.0,0.0,0.0,0.0,0.0,0.0,0.0,0.0,0.0,0.0,0.0,0.0,0.0,0.0,0.0,0.0,0.0,0.0,0.0,0.0,0.0,0.0,0.0,0.0,0.0,0.0,0.0,0.0,-0.0775,-0.1523,-0.2276,-0.3083,-0.3482,-0.4201,-0.5401,-0.5758,-0.6087,-0.6468,-0.662,-0.6709,-0.6709,-0.6715,-0.6722,-0.6722,-0.6865,-0.69,-0.69,-0.7031,-0.7095,-0.7095,-0.7095,-0.7279,-0.7595,-0.8671,-0.9173,-0.9203,-1.0428,-1.1109,-1.1426,-1.1459,-1.1797,-1.2271,-1.202,-1.169,-1.1369,-1.1109,-1.0861,-1.0579,0.0,0.0,0.0,0.0,0.0,0.0,0.0,1.0496,1.0496,1.0496,1.0283,1.0377,1.1055,1.1046,1.1183,1.1677,1.2292,1.255,1.2356,1.2401,1.2257,1.1856,1.2123,1.2276,1.2263,1.2788,1.3147,1.3372,1.3581,1.3831,1.4145,1.4831,1.4622,1.3717,1.4229,1.3455,1.1713,1.147,1.0814,0.9942,0.9599,0.9053,0.8439,0.0,0.0,0.0,0.0,0.0,0.0,0.0,0.0,0.0,0.0,0.0,0.0,0.0,0.0,0.0,0.0,0.0,0.0,0.0,0.0,0.0,0.0,0.0,0.0,0.0,0.0,0.0,0.0,0.0,0.0,0.0,0.0,-0.007,-0.0241,-0.0882,-0.1716,-0.2722,-0.3531,-0.4491,-0.5733,-0.6069,-0.6311,-0.6634,-0.678,-0.6865,-0.6865,-0.7068,-0.7187,-0.7187,-0.7227,-0.7248,-0.7248,-0.7132,-0.7095,-0.7095,-0.7095,-0.758,-0.8548,-0.8846,-0.9548,-1.0514,-1.1277,-1.1653,-1.1742,-1.2209,-1.2377,-1.2271,-1.202,-1.1852,-1.171,-1.1416,-1.1256,-1.1176,0.0,0.0,0.0,0.0,0.0,0.0,0.0,1.0496,1.0496,1.0496,1.0146,1.0242,1.1123,1.0937,1.1114,1.2104,1.2469,1.2622,1.2472,1.2438,0.0,0.0,0.0,1.2712,1.3078,1.3439,1.3834,1.4219,1.4436,1.4609,1.4713,1.5377,1.5205,1.4321,1.5198,1.4488,1.2674,1.271,1.2272,1.1488,1.0987,1.0083,0.8969,0.8648,0.8285,0.7911,0.7702,0.7498,0.7318,0.7231,0.0,0.0,0.0,0.0,0.0,0.0,0.0,0.0,0.0,0.0,0.0,0.0,0.0,0.0,0.0,0.0,0.0,0.0,0.0,0.0,0.0,0.0,0.0,0.0,0.0037,0.0,0.0,-0.0379,-0.1171,-0.2598,-0.322,-0.4163,-0.5883,-0.6199,-0.6444,-0.6714,-0.6984,-0.7115,-0.7115,-0.7339,-0.7465,-0.7465,-0.745,-0.7415,-0.7415,-0.7217,-0.7095,-0.7095,-0.7095,-0.7448,-0.8149,-0.8285,-0.8803,-0.9753,-1.0704,-1.1231,-1.1502,-1.2392,-1.2739,-1.2639,0.0,0.0,0.0,0.0,-1.1389,-1.1389,0.0,0.0,0.0,0.0,0.0,0.0,0.0,1.0496,1.0496,1.0496,1.0138,1.0264,1.1276,1.1102,1.143,1.2734,1.2835,1.268,1.2364,1.2463,0.0,1.248,1.2941,1.3554,1.4281,1.437,1.4697,1.5304,1.5304,1.5048,1.4546,1.5172,1.4998,1.4196,1.5535,1.5246,1.3765,1.4267,1.3851,1.2851,1.2589,1.129,0.9483,0.9005,0.8547,0.8153,0.793,0.7713,0.7553,0.7365,0.0,0.0,0.0,0.0,0.0,0.0,0.0,0.0,0.0,0.0,0.0,0.0,0.0,0.0,0.0,0.0,0.0,0.0,0.0,0.0,0.0,0.0,0.0,0.0,0.0116,0.0,0.0,0.0,-0.067,-0.2528,-0.2724,-0.356,-0.5703,-0.6156,-0.6449,-0.6808,-0.716,-0.7426,-0.7443,-0.7526,0.0,0.0,0.0,-0.7415,-0.7415,-0.7217,-0.7095,-0.7095,-0.7095,-0.7095,-0.7095,-0.7323,-0.7635,-0.7992,-0.9305,-1.0178,-1.082,-1.2108,-1.2839,-1.316,-1.2612,-1.2225,-1.1973,-1.167,-1.1515,-1.1489,0.0,0.0,0.0,0.0,0.0,0.0,0.0,1.0496,1.0496,1.0496,1.0377,1.0405,1.0662,1.0822,1.1141,1.1747,1.2155,1.2301,1.2017,0.0,1.2474,1.1682,1.2635,1.3366,1.3755,1.4061,1.4628,1.5396,1.5212,1.547,1.6173,1.6313,1.612,1.5779,1.6675,1.6287,1.5081,1.5768,1.5239,1.3901,1.3623,1.2229,1.0325,0.9894,0.926,0.8533,0.8155,0.8023,0.7983,0.7941,0.7784,0.7586,0.7276,0.0,0.0,0.0,0.0,0.0,0.0,0.0,0.0,0.0,0.0,0.0,0.0,0.0,0.0,0.0,0.0,0.0,0.0,0.0,0.0,0.0349,0.0119,0.0,0.0,0.0,-0.0432,-0.1571,-0.2377,-0.3415,-0.4779,-0.5786,-0.6542,-0.6911,-0.722,-0.7424,-0.755,-0.7584,-0.76,-0.76,-0.7451,-0.7415,-0.7415,-0.7217,-0.7095,-0.7095,-0.7095,0.0,-0.7095,-0.7143,-0.7452,-0.7937,-0.8685,-0.9318,-0.9882,-1.1355,-1.2453,-1.32,-1.308,-1.2846,-1.261,-1.2549,-1.2375,-1.2131,0.0,0.0,0.0,0.0,0.0,0.0,0.0,1.0496,1.0496,1.0496,1.037,1.0392,1.0678,1.0748,1.1107,1.1837,1.2509,1.2589,0.0,1.2534,1.2707,1.2114,1.2946,1.3899,1.4986,1.4855,1.5307,1.635,1.5752,1.5685,1.6204,1.6204,1.6062,1.5859,1.66,1.6568,1.5977,1.6364,1.5871,1.4764,1.421,1.2911,1.1244,1.0673,0.994,0.9154,0.8717,0.8348,0.8101,0.8001,0.7897,0.7729,0.7353,0.7187,0.7036,0.0,0.0,0.0,0.0,0.0,0.0,0.0,0.0,0.0,0.0,0.0,0.0,0.0,0.0,0.1585,0.1183,0.0,0.0703,0.0526,0.0332,0.017,0.0,0.0,-0.0355,-0.1298,-0.1837,-0.2777,-0.4295,-0.5143,-0.5927,-0.6773,-0.7187,-0.7486,-0.7702,-0.7706,-0.7706,-0.7706,-0.7489,-0.7415,-0.7415,-0.7217,-0.7095,-0.7095,-0.7095,-0.7095,-0.7095,-0.7095,-0.7408,-0.7944,-0.8851,-0.9404,-0.9786,-1.102,-1.1851,-1.2312,-1.2766,-1.2965,-1.3018,-1.3018,-1.2824,-1.2563,0.0,0.0,0.0,0.0,0.0,0.0,0.0,1.0496,1.0496,1.0496,1.0395,1.049,1.0852,1.0886,1.1257,1.2178,1.2988,0.0,0.0,1.2713,1.3107,1.3023,1.3507,1.4494,1.6103,1.5641,1.591,1.7005,1.6204,1.5784,1.5784,1.5784,1.573,1.5588,1.6393,1.6756,1.6807,1.6987,1.6568,1.5742,1.4882,1.359,1.2162,1.1409,1.0572,0.9812,0.9243,0.8716,0.8224,0.7992,0.7883,0.7749,0.738,0.7245,0.7144,0.6816,0.6548,0.0,0.0,0.0,0.0,0.0,0.0,0.0,0.0,0.3522,0.3063,0.1446,0.1159,0.1236,0.1287,0.1073,0.0853,0.0716,0.0518,0.0306,0.0044,0.0,-0.0271,-0.1054,-0.1268,-0.2017,-0.3583,-0.4377,-0.5264,-0.6302,-0.6972,-0.7459,-0.7758,-0.7725,-0.774,-0.777,-0.7482,-0.7326,-0.7326,-0.7204,-0.7095,-0.7095,-0.7095,-0.7095,-0.7095,-0.7095,-0.7363,-0.786,-0.8917,-0.9518,-0.9898,-1.0674,-1.1106,-1.137,-1.2143,-1.2612,-1.2879,-1.3154,-1.306,-1.279,0.0,0.0,0.0,0.0,0.0,0.0,0.0,0.0,1.0496,1.0496,1.0693,1.0836,1.0903,1.1302,1.1724,1.2079,0.0,0.0,1.2805,1.3313,1.3677,1.378,1.4186,1.4633,1.5129,1.5335,1.5584,1.5967,1.5879,1.5784,1.5784,1.5784,1.5778,1.5825,1.677,1.7458,1.7948,1.838,1.8043,1.718,1.6044,1.4647,1.3048,1.2153,1.1232,1.037,0.9558,0.9097,0.8828,0.8449,0.8085,0.7777,0.755,0.7234,0.6907,0.6749,0.0,0.6387,0.6387,0.6387,0.6387,0.6383,0.6239,0.5693,0.0,0.3619,0.3076,0.1523,0.1245,0.1288,0.1295,0.1116,0.0905,0.0737,0.0529,0.0313,0.0045,0.0,-0.0045,-0.0135,-0.0899,-0.148,-0.1704,-0.3602,-0.4924,-0.5244,-0.6505,-0.735,-0.7608,-0.7496,-0.7482,-0.7617,-0.7326,-0.7122,-0.7122,-0.7105,-0.7095,-0.7095,-0.7095,-0.7095,-0.7095,-0.7095,-0.7279,-0.7551,-0.7919,-0.8696,-0.9628,-0.9753,-1.0409,-1.1327,-1.1413,-1.1466,-1.1688,-1.3058,-1.3233,-1.2824,0.0,0.0,0.0,0.0,0.0,0.0,0.0,0.0,0.0,1.0496,1.0718,1.0896,1.0896,1.1377,1.1803,1.2076,0.0,0.0,1.3161,1.375,1.4119,1.4117,1.4214,1.4697,1.5552,1.5297,1.5597,1.6433,1.5851,1.5665,1.5825,1.6393,1.6669,1.6709,1.7497,1.8267,1.8975,1.8406,1.7942,1.7445,1.6067,1.4625,1.3214,1.2258,1.1372,1.0484,0.9756,0.9197,0.0,0.0,0.7924,0.7758,0.7569,0.7321,0.7091,0.6878,0.6613,0.0,0.6387,0.6387,0.6444,0.6554,0.6427,0.5984,0.4936,0.415,0.3356,0.2199,0.1605,0.1294,0.1369,0.128,0.1178,0.0972,0.0713,0.0493,0.0269,0.009,0.0,0.0,-0.0353,-0.0797,-0.1344,-0.2326,-0.3285,-0.4059,-0.5376,-0.6261,-0.6557,-0.7097,-0.7446,-0.7465,-0.7255,-0.7095,-0.7095,-0.7095,-0.7095,-0.7095,-0.7095,-0.7142,-0.7275,-0.7275,-0.7458,-0.7728,-0.7998,-0.8405,-0.8852,-0.903,-0.9287,-0.9678,-1.0382,-1.0572,-1.0626,-1.181,-1.2239,-1.2236,0.0,0.0,0.0,0.0,0.0,0.0,0.0,0.0,0.0,0.0,1.0675,1.082,1.0896,1.1377,1.1778,0.0,0.0,0.0,0.0,1.4065,1.4482,1.4645,1.4432,1.4762,1.5766,1.5159,1.538,1.638,1.5629,1.5384,1.5591,1.6554,1.7016,1.7047,1.7709,1.858,1.9442,1.811,1.7618,1.7564,1.5755,1.4345,1.3213,1.211,1.1183,1.0399,0.9803,0.9184,0.0,0.0,0.7773,0.7698,0.7541,0.7366,0.7156,0.6953,0.6651,0.6387,0.6387,0.6423,0.6526,0.666,0.6626,0.633,0.5502,0.4582,0.3635,0.2721,0.1908,0.1339,0.1382,0.1397,0.1322,0.1118,0.0942,0.0718,0.0448,0.0223,0.0089,0.0,0.0,-0.0263,-0.094,-0.1362,-0.1973,-0.2859,-0.4113,-0.5096,-0.5643,-0.6437,-0.7008,-0.737,-0.7221,-0.7095,-0.7095,-0.7095,-0.7119,-0.7204,-0.7204,-0.7285,-0.7434,-0.7434,-0.7585,-0.7828,-0.8016,-0.8153,-0.8196,-0.8383,-0.8498,-0.8573,-0.9427,-0.9719,-0.9671,-1.0313,-1.1153,-1.1942,0.0,0.0,0.0,0.0,0.0,0.0,0.0,0.0,0.0,0.0,0.0,0.0,0.0,1.1377,1.1703,0.0,0.0,0.0,0.0,1.4221,1.4765,1.5515,1.508,1.4931,1.52,1.4763,1.4676,1.5066,1.5022,1.5028,1.5035,1.5901,1.6337,1.6382,1.7239,1.8197,1.9016,1.7762,1.7564,1.7876,1.5327,1.3947,1.3213,1.1684,1.0751,1.0164,0.9743,0.0,0.0,0.0,0.7674,0.7498,0.7493,0.7237,0.0,0.6918,0.6651,0.6387,0.6387,0.655,0.6688,0.6692,0.6805,0.6641,0.5635,0.4724,0.3802,0.2793,0.1975,0.1388,0.139,0.1414,0.1345,0.1121,0.1076,0.0942,0.0448,0.0397,0.0307,0.0045,0.0,0.0,-0.0045,-0.0987,-0.1626,-0.1659,-0.2769,-0.4049,-0.536,-0.5441,-0.6045,-0.7366,-0.7221,-0.7095,-0.7095,-0.7095,-0.7214,-0.7409,-0.7409,-0.7444,-0.7594,-0.7594,-0.7594,-0.76,-0.7597,-0.7738,-0.7922,-0.7919,-0.8243,-0.8699,-0.8746,-0.8782,-0.8837,-0.8718,-1.0195,-1.23,0.0,0.0,0.0,0.0,0.0,0.0,0.0,0.0,0.0,0.0,0.0,0.0,0.0,0.0,0.0,0.0,0.0,0.0,0.0,1.3609,1.3998,1.4774,1.4162,1.3916,1.4187,1.381,1.3794,1.4088,1.4088,1.4188,1.4425,1.5885,1.6545,1.6622,1.7792,1.8385,1.8425,1.7449,1.6781,1.6226,1.443,1.3244,1.2412,1.1285,1.0367,0.961,0.0,0.0,0.0,0.7778,0.755,0.7489,0.7489,0.7232,0.6848,0.6651,0.6572,0.6603,0.6603,0.6733,0.6959,0.7159,0.7159,0.7076,0.6936,0.5537,0.4144,0.3839,0.2501,0.1314,0.1354,0.1354,0.1317,0.1311,0.1143,0.1016,0.0895,0.058,0.0354,0.0264,0.0087,0.0,0.0,-0.0312,-0.054,-0.0544,-0.1675,-0.2539,-0.2967,-0.4365,-0.5419,-0.6045,-0.6589,-0.7015,-0.7292,-0.7292,-0.737,-0.7522,-0.7617,-0.7689,-0.7743,-0.7845,-0.7843,-0.7843,-0.7843,-0.7892,-0.7986,-0.8178,-0.8267,-0.8402,-0.8613,-0.8652,-0.8517,-0.8447,-0.94,-1.0735,0.0,0.0,0.0,0.0,0.0,0.0,0.0,0.0,0.0,0.0,0.0,0.0,0.0,0.0,0.0,0.0,0.0,0.0,0.0,0.0,1.357,1.4195,1.3627,1.345,1.3742,1.3226,1.3061,1.3279,1.3345,1.3467,1.3696,1.5476,1.6333,1.6405,1.7828,1.8232,1.7701,1.6893,1.6025,1.5123,1.3521,1.2551,1.1928,1.0821,0.9915,0.0,0.0,0.0,0.0,0.7635,0.7489,0.7489,0.7489,0.7232,0.6848,0.6581,0.6658,0.6824,0.6824,0.7045,0.7335,0.7563,0.7552,0.7482,0.7481,0.6122,0.4745,0.429,0.2898,0.1685,0.1366,0.1307,0.1306,0.1365,0.1239,0.1117,0.1061,0.0793,0.0571,0.0396,0.0262,0.0087,0.0,0.0,0.0,0.0,-0.0718,-0.1344,-0.179,-0.3127,-0.4121,-0.4739,-0.5827,-0.6479,-0.6747,-0.7217,-0.7529,-0.7678,-0.7824,-0.7892,-0.7896,-0.7944,-0.7988,-0.7988,-0.7988,-0.7988,-0.7988,-0.8187,-0.828,-0.8279,-0.8601,-0.8656,-0.8508,-0.8432,-0.876,-0.9342,0.0,0.0,0.0,0.0,0.0,0.0,0.0,0.0,0.0,0.0,0.0,0.0,0.0,0.0,0.0,0.0,0.0,0.0,0.0,0.0,0.0,1.3828,1.3478,1.3403,1.3733,1.2927,1.2553,1.2684,1.2859,1.2872,1.279,1.4668,1.5553,1.5591,1.7178,1.7506,1.6759,1.6061,1.5333,1.4509,1.2701,1.1975,1.1818,1.0482,0.0,0.0,0.0,0.0,0.0,0.7526,0.7489,0.7493,0.7456,0.7204,0.6852,0.6766,0.6864,0.7008,0.7024,0.7412,0.7816,0.7824,0.7902,0.7849,0.7291,0.6498,0.5516,0.418,0.3176,0.2338,0.1539,0.1353,0.1313,0.1379,0.1324,0.1243,0.104,0.1029,0.0859,0.0446,0.0397,0.0308,0.0045,0.0,0.0,0.0,0.0,-0.0494,-0.1657,-0.1748,-0.2305,-0.3451,-0.4796,-0.5542,-0.5598,-0.6944,-0.7689,-0.7824,-0.7921,-0.7988,-0.7988,-0.7988,-0.7988,-0.7988,-0.7988,-0.7988,-0.7988,-0.7988,-0.8137,-0.8382,-0.8669,-0.8713,-0.8668,-0.8613,-0.8345,-0.823,0.0,0.0,0.0,0.0,0.0,0.0,0.0,0.0,0.0,0.0,0.0,0.0,0.0,0.0,0.0,0.0,0.0,0.0,0.0,0.0,0.0,0.0,0.0,0.0,0.0,0.0,0.0,0.0,0.0,1.2193,1.1791,1.325,1.3688,1.3379,1.4577,1.4852,1.4357,1.3969,1.3461,1.2808,0.0,1.1715,1.1492,0.0,0.0,0.0,0.0,0.0,0.0,0.0,0.7396,0.7265,0.7106,0.6909,0.6767,0.6875,0.7048,0.7216,0.7518,0.7788,0.7983,0.8122,0.8085,0.7995,0.8004,0.6813,0.5665,0.5285,0.3649,0.2429,0.2868,0.2001,0.1453,0.2156,0.1717,0.1315,0.1284,0.1168,0.0948,0.0673,0.0498,0.0272,0.0045,0.0,0.0,0.0,0.0,-0.0135,-0.0449,-0.1136,-0.1744,-0.226,-0.3275,-0.4425,-0.5716,-0.718,-0.7897,-0.7931,-0.7971,-0.7988,-0.7988,-0.7988,-0.7988,-0.7988,-0.7988,-0.7988,-0.7988,-0.7988,-0.8038,-0.8127,-0.8311,-0.8239,-0.8128,-0.8386,-0.8225,-0.8135,0.0,0.0,0.0,0.0,0.0,0.0,0.0,0.0,0.0,0.0,0.0,0.0,0.0,0.0,0.0,0.0,0.0,0.0,0.0,0.0,0.0,0.0,0.0,0.0,0.0,0.0,0.0,0.0,0.0,0.0,0.0,1.2877,1.3274,1.3012,1.3953,1.4055,1.3543,0.0,0.0,0.0,0.0,0.0,0.0,0.0,0.0,0.0,0.0,0.0,0.0,0.0,0.0,0.7307,0.7103,0.6987,0.6975,0.7164,0.7327,0.7521,0.7797,0.8061,0.828,0.8385,0.8272,0.81,0.804,0.717,0.6172,0.551,0.4313,0.3346,0.3413,0.2455,0.1837,0.238,0.1825,0.1328,0.1345,0.1299,0.1136,0.0898,0.0685,0.0459,0.018,0.009,0.0,0.0,0.0,0.0,0.0,-0.0505,-0.0838,-0.0996,-0.2107,-0.3447,-0.4991,-0.5941,-0.6681,-0.7135,-0.7238,-0.7537,-0.7988,-0.7988,-0.7988,-0.7988,-0.7988,-0.7988,-0.7988,-0.7988,-0.7988,-0.8031,-0.8196,-0.8163,-0.8044,-0.8188,-0.8072,-0.7943,0.0,0.0,0.0,0.0,0.0,0.0,0.0,0.0,0.0,0.0,0.0,0.0,0.0,0.0,0.0,0.0,0.0,0.0,0.0,0.0,0.0,0.0,0.0,0.0,0.0,0.0,0.0,0.0,0.0,0.0,0.0,0.0,0.0,0.0,0.0,0.0,0.0,0.0,0.0,0.0,0.0,0.0,0.0,0.0,0.0,0.0,0.0,0.0,0.0,0.0,0.7863,0.7441,0.7227,0.7181,0.7239,0.7479,0.7667,0.7849,0.8028,0.8321,0.8612,0.8612,0.841,0.8165,0.7781,0.7415,0.6757,0.543,0.4947,0.4548,0.3767,0.2943,0.2396,0.2448,0.1901,0.1445,0.1345,0.1357,0.1345,0.1121,0.0959,0.0734,0.0449,0.018,0.0045,0.0,0.0,0.0,0.0,0.0,0.0,0.0,-0.1278,-0.2571,-0.3715,-0.4117,-0.482,-0.5727,-0.6032,-0.6684,-0.7739,-0.7789,-0.7889,-0.7988,-0.7988,-0.7988,-0.7988,-0.7988,-0.7988,-0.8038,-0.8237,-0.8245,-0.8131,-0.816,-0.7963,-0.7705,0.0,0.0,0.0,0.0,0.0,0.0,0.0,0.0,0.0,0.0,1.0727,1.0659,0.0,0.0,0.0,0.0,0.0,0.0,0.0,0.0,0.0,0.0,0.0,0.0,0.0,0.0,0.0,0.0,0.0,0.0,0.0,0.0,0.0,0.0,0.0,0.0,0.0,0.0,0.0,0.0,0.0,0.0,0.0,0.0,0.0,0.0,0.0,0.0,0.0,0.0,0.7688,0.7227,0.7027,0.698,0.7118,0.7602,0.7791,0.7906,0.8384,0.8563,0.8612,0.8612,0.8312,0.8016,0.7805,0.7263,0.6633,0.6119,0.5263,0.476,0.5149,0.4159,0.3304,0.3354,0.2817,0.2132,0.146,0.1413,0.1345,0.1121,0.105,0.0872,0.0449,0.0359,0.0226,0.0,0.0,0.0,0.0,0.0,0.0,0.0,-0.1303,-0.2107,-0.2363,-0.3516,-0.4166,-0.4368,-0.462,-0.5325,-0.6331,-0.6584,-0.7135,-0.7988,-0.7988,-0.7988,-0.7988,-0.7988,-0.7988,-0.7988,-0.8038,-0.7996,-0.7918,-0.8237,-0.8016,-0.7598,0.0,0.0,0.0,0.0,0.0,0.0,0.0,1.0346,1.0728,1.1057,1.125,1.1234,1.0888,1.0411,0.0,0.0,0.0,0.0,0.0,0.0,0.0,0.0,0.0,0.0,0.0,0.0,0.0,0.0,0.0,0.0,0.0,0.0,0.0,0.0,0.0,0.0,0.0,0.0,0.0,0.0,0.0,0.0,0.0,0.0,0.0,0.0,0.0,0.0,0.0,0.0,0.7845,0.7421,0.6954,0.6941,0.7183,0.7669,0.7865,0.7992,0.8486,0.8612,0.8612,0.8612,0.8261,0.7858,0.782,0.7231,0.6615,0.636,0.5768,0.5346,0.5551,0.4772,0.4065,0.4126,0.3226,0.2431,0.2078,0.1653,0.1373,0.1254,0.1142,0.101,0.0764,0.0538,0.0362,0.0231,0.0093,0.0,0.0,0.0,0.0,0.0,-0.0605,-0.0958,-0.0958,-0.1712,-0.2414,-0.2964,-0.3217,-0.3919,-0.497,-0.5225,-0.5627,-0.6176,-0.6883,-0.7185,-0.7188,-0.7789,-0.7988,-0.7988,-0.7988,-0.7944,-0.7929,-0.8017,-0.7883,-0.7656,0.0,0.0,0.0,0.0,0.0,0.0,0.0,1.0626,1.1174,1.135,1.1626,1.1619,1.0981,1.0454,1.0205,0.0,0.0,0.0,0.0,0.0,0.0,0.0,0.0,0.0,0.0,0.0,0.0,1.1099,0.0,0.0,0.0,0.0,0.0,0.0,0.0,0.0,0.0,0.0,0.0,0.0,0.0,0.0,0.0,0.0,0.0,0.0,0.0,0.0,0.0,0.0,0.8082,0.7582,0.6968,0.6948,0.7236,0.7637,0.7821,0.804,0.8449,0.858,0.8604,0.8563,0.8175,0.778,0.7702,0.7184,0.6634,0.6393,0.6145,0.5921,0.5686,0.5227,0.4797,0.4681,0.3699,0.2885,0.2649,0.2039,0.1612,0.1431,0.1274,0.1144,0.1085,0.0767,0.0501,0.0418,0.0143,0.0,0.0,0.0,0.0,0.0,0.0,0.0,0.0,-0.0202,-0.0757,-0.1561,-0.1863,-0.2515,-0.3565,-0.3867,-0.4119,-0.447,-0.5527,-0.5982,-0.6132,-0.6983,-0.7335,-0.7335,-0.7335,-0.7437,-0.7624,-0.756,-0.7644,-0.776,0.0,0.0,0.0,0.0,0.0,0.0,0.0,1.104,1.1719,1.2446,1.1644,1.1242,1.1902,1.1108,1.0633,0.0,0.0,0.0,0.0,0.0,0.0,0.0,0.0,0.0,0.0,0.0,0.0,1.0393,1.0211,0.0,0.0,0.0,0.0,0.0,0.0,1.0116,0.0,0.0,0.0,0.0,0.0,0.0,0.0,0.0,0.0,0.0,0.0,0.0,0.0,0.0,0.0,0.723,0.7041,0.6991,0.7086,0.7441,0.7677,0.7902,0.8219,0.8438,0.8571,0.8357,0.8077,0.7714,0.735,0.6972,0.6609,0.6269,0.6189,0.6115,0.5921,0.5762,0.5501,0.4875,0.4678,0.4115,0.2788,0.2531,0.2225,0.1473,0.1393,0.1313,0.1105,0.1061,0.0837,0.0427,0.0148,0.0,0.0,0.0,0.0,0.0,0.0,0.0,0.0,0.0,-0.0101,-0.0202,-0.0454,-0.116,-0.2213,-0.2466,-0.3268,-0.442,-0.452,-0.4722,-0.4974,-0.5074,-0.5074,-0.5074,-0.5074,-0.5679,-0.6534,-0.6523,-0.7088,-0.7804,0.0,0.0,0.0,0.0,0.0,0.0,1.0466,1.1049,1.1619,1.1952,1.1902,1.1977,1.2308,1.1694,1.1267,1.1251,0.0,0.0,0.0,0.0,0.0,0.0,0.0,0.0,0.0,0.0,0.0,1.0136,1.0025,0.0,0.0,0.0,0.0,0.0,0.0,0.987,0.987,0.0,0.0,0.0,0.0,0.0,0.0,0.0,0.0,0.0,0.0,0.0,0.932,0.8846,0.0,0.0,0.6895,0.6621,0.0,0.0,0.7456,0.771,0.8028,0.8178,0.8215,0.8142,0.7776,0.7403,0.7219,0.6832,0.6472,0.6366,0.6247,0.6181,0.6083,0.5917,0.5766,0.5597,0.0,0.0,0.4094,0.363,0.3266,0.3149,0.2597,0.2213,0.2304,0.1589,0.095,0.0436,0.0298,0.0152,0.0,0.0,0.0,0.0,0.0,0.0,0.0,0.0,0.0,0.0,-0.0101,-0.0404,-0.0807,-0.1059,-0.1512,-0.2015,-0.2868,-0.3369,-0.3621,-0.4271,-0.4672,-0.4824,-0.4824,-0.5074,-0.5427,-0.5427,-0.565,-0.6098,0.0,0.0,0.0,0.0,0.0,1.0466,1.0626,1.1225,1.1694,1.1719,1.2101,1.2397,1.2505,1.2126,1.1852,1.1803,1.1141,0.0,0.0,0.0,0.0,0.0,0.0,0.0,0.0,0.0,0.0,0.9947,0.9888,0.9888,0.0,0.0,0.9888,0.9888,0.0,0.0,0.0,0.0,0.0,0.0,0.0,0.0,0.0,0.0,0.0,0.0,0.0,0.0,0.0,0.0,0.0,0.0,0.0,0.0,0.0,0.0,0.7188,0.7472,0.7776,0.7931,0.7988,0.7882,0.7537,0.7159,0.709,0.6729,0.6387,0.6387,0.6317,0.6247,0.6247,0.6078,0.594,0.0,0.0,0.5074,0.4956,0.4471,0.414,0.4134,0.3468,0.3108,0.3372,0.2297,0.1445,0.1135,0.0752,0.0404,0.0152,0.0101,0.0101,0.0,0.0,0.0,0.0,0.0,0.0,0.0,0.0,0.0,0.0,-0.0202,-0.0303,-0.0454,-0.1412,-0.1965,-0.2267,-0.3019,-0.347,-0.3723,-0.3723,-0.3972,-0.4325,-0.4325,-0.4508,-0.487,0.0,0.0,0.0,0.0,0.0,0.0,1.1192,1.1753,1.215,1.2274,1.2175,1.22,1.248,1.2382,1.2357,1.248,1.1619,0.0,0.0,0.0,0.0,0.0,0.0,0.0,0.0,0.0,0.0,0.9799,0.9673,0.9614,0.9614,0.9614,0.9614,0.9614,0.0,0.0,0.0,0.0,0.0,0.0,0.0,0.0,0.0,0.0,0.0,0.0,0.0,0.0,0.0,0.0,0.0,0.0,0.0,0.7007,0.6671,0.0,0.6771,0.7227,0.7439,0.7744,0.7927,0.7577,0.7358,0.7131,0.6765,0.6546,0.6387,0.6387,0.6387,0.6387,0.6387,0.6284,0.6174,0.6116,0.6103,0.0,0.492,0.4914,0.4697,0.3891,0.3775,0.3883,0.4049,0.3112,0.2563,0.276,0.1564,0.0657,0.0404,0.0404,0.0253,0.0,0.0,0.0,0.0,0.0,0.0,0.0,0.0,0.0,0.0,0.0,-0.0152,-0.0404,-0.0404,-0.0556,-0.0808,-0.0808,-0.101,-0.1212,-0.1212,-0.2068,-0.3224,-0.3224,-0.3879,-0.4776,0.0,0.0,0.0,0.0,0.0,0.0,0.0,1.1753,1.2126,1.215,1.2126,1.2126,1.2224,1.2175,1.2224,1.2348,1.1852,0.0,0.0,0.0,0.0,0.0,0.0,0.0,0.0,0.0,0.0,0.9673,0.9614,0.9744,0.9991,0.9647,0.9673,0.9991,0.9621,0.951,0.0,0.0,0.0,0.0,0.0,0.0,0.0,0.0,0.0,0.0,0.0,0.0,0.0,0.0,0.0,0.0,0.0,0.0,0.0,0.7305,0.7119,0.6903,0.711,0.7241,0.7298,0.7184,0.6993,0.6834,0.6717,0.655,0.6387,0.6387,0.6387,0.6387,0.6387,0.628,0.6174,0.6112,0.6103,0.0,0.5669,0.5774,0.5928,0.6036,0.5702,0.5144,0.4376,0.4103,0.3892,0.3744,0.3446,0.2818,0.1813,0.1612,0.1059,0.0051,0.0,0.0,0.0,0.0,0.0,0.0,0.0,0.0,0.0,0.0,-0.0051,-0.0152,-0.0152,-0.0303,-0.0505,-0.0505,-0.0707,-0.096,-0.1111,-0.1464,-0.1867,-0.2019,-0.2312,-0.2691,0.0,0.0,0.0,0.0,0.0,0.0,0.0,1.1902,1.2101,1.2101,1.2101,1.2101,1.2101,1.2101,1.2126,1.2224,1.2002,0.0,0.0,0.0,0.0,0.0,0.0,0.0,0.0,0.0,0.9769,0.9829,1.001,1.0216,1.0462,1.012,1.0146,1.0454,1.0113,0.0,0.0,0.0,0.0,0.0,0.0,0.0,0.9439,0.0,0.0,0.0,0.0,0.0,0.0,0.0,0.0,0.0,0.0,0.0,0.0,0.0,0.7412,0.727,0.7575,0.7702,0.7743,0.7706,0.7596,0.7419,0.7076,0.6897,0.6745,0.6449,0.6387,0.6387,0.6387,0.6317,0.625,0.6161,0.6235,0.6237,0.6045,0.6239,0.6532,0.6837,0.6618,0.6213,0.547,0.519,0.5036,0.4977,0.4644,0.4091,0.3217,0.2616,0.1813,0.0807,0.0252,0.0,0.0,0.0,0.0,0.0,0.0,0.0,0.0,0.0,0.0,0.0,0.0,-0.01,0.0,-0.0247,-0.0445,-0.0841,-0.0997,-0.1149,-0.135,-0.155,-0.16,-0.1691,0.0,0.0,0.0,0.0,0.0,0.0,0.0,1.2101,1.2101,1.2101,1.2101,1.2101,1.2101,1.2101,1.2101,1.2101,0.0,0.0,0.0,0.0,0.0,0.0,0.0,0.0,0.0,0.9865,1.0131,1.0249,1.0717,1.0963,1.0989,1.0988,1.0988,1.0989,1.0963,0.0,0.0,0.0,0.0,0.0,0.9413,0.9309,0.0,0.0,0.0,0.0,0.0,0.0,0.0,0.0,0.0,0.0,0.0,0.0,0.0,0.0,0.0,0.0,0.0,0.8935,0.8949,0.8815,0.8762,0.8569,0.7761,0.0,0.0,0.6613,0.6515,0.6515,0.6416,0.6453,0.642,0.623,0.6414,0.6495,0.6147,0.6403,0.6577,0.6497,0.6759,0.696,0.7068,0.6367,0.6037,0.6259,0.5363,0.472,0.4549,0.3557,0.2757,0.2155,0.0904,0.0151,0.0,0.0,0.0,0.0,0.0,0.0,0.0,0.0,0.0,0.0,0.0,0.0,0.0,0.0,-0.0286,-0.0764,-0.0778,-0.1078,-0.1519,-0.1566,-0.1566,-0.1555,0.0,0.0,0.0,0.0,0.0,0.0,0.0,0.0,0.0,0.0,1.2101,1.2101,1.2101,1.2101,1.2101,0.0,0.0,0.0,0.0,0.0,0.0,0.0,0.0,0.0,0.0,1.0549,1.071,1.0744,1.1143,1.1512,1.1835,1.1718,1.172,1.18,1.1381,0.0,0.0,0.0,0.0,0.0,0.9413,0.9237,0.0,0.0,0.0,0.0,0.929,0.9237,0.0,0.0,0.0,0.0,0.0,0.0,0.0,0.0,0.8821,0.9048,0.9635,0.0,0.8608,0.8587,0.8576,0.8527,0.0,0.0,0.0,0.0,0.0,0.0,0.0,0.0,0.7052,0.6459,0.6495,0.6533,0.6287,0.6589,0.6736,0.6535,0.6943,0.719,0.6953,0.6994,0.7031,0.7095,0.6967,0.6513,0.5671,0.519,0.452,0.3562,0.3034,0.1858,0.0,0.0,0.0,0.0,0.0,0.0,0.0,0.0,0.0,0.0,0.0,0.0,0.0,0.0,-0.0095,-0.0191,-0.0431,-0.0576,-0.0719,-0.1086,-0.1232,-0.1285,0.0,0.0,0.0,0.0,0.0,0.0,0.0,0.0,0.0,0.0,0.0,0.0,0.0,0.0,0.0,0.0,0.0,0.0,0.0,0.0,0.0,0.0,0.0,0.0,0.0,1.1105,1.1395,1.1447,1.2034,1.244,1.2663,1.2569,1.2482,1.2341,1.1618,0.0,0.0,0.0,0.0,0.9891,0.9588,0.0,0.0,0.0,0.0,0.0,0.9133,0.9113,0.0,0.9035,0.8903,0.8804,0.0,0.0,0.0,0.0,0.9159,0.9311,0.9793,0.9572,0.9273,0.9424,0.9454,0.9364,0.9037,0.0,0.0,0.0,0.0,0.0,0.0,0.0,0.7654,0.669,0.6939,0.7138,0.6836,0.6979,0.708,0.7019,0.7245,0.7385,0.7178,0.7218,0.7295,0.7412,0.7448,0.7286,0.6782,0.6117,0.5452,0.4744,0.4129,0.3023,0.1473,0.1474,0.1185,0.0648,0.0642,0.0393,0.0,0.0,0.0,0.0,0.0,0.0,0.0,0.0,-0.0092,-0.0183,-0.0323,-0.0461,-0.0594,-0.0859,-0.1003,-0.1013,0.0,0.0,0.0,0.0,0.0,0.0,0.0,0.0,0.0,0.0,0.0,0.0,0.0,0.0,0.0,0.0,0.0,0.0,0.0,0.0,0.0,0.0,0.0,1.1242,1.0829,1.1601,1.2088,1.2193,1.3014,1.3387,1.3387,1.3451,1.3249,1.2745,1.1822,0.0,0.0,0.0,1.0438,1.002,0.9943,0.0,0.0,0.0,0.0,0.0,0.0,0.0,0.0,0.8982,0.891,0.8857,0.8956,0.0,0.0,0.0,0.0,0.0,0.9593,0.9889,1.0164,1.0506,1.0593,1.0428,0.9811,0.0,0.0,0.0,0.0,0.0,0.0,0.8199,0.0,0.7035,0.7416,0.7782,0.7631,0.75,0.7458,0.755,0.7563,0.754,0.7515,0.7309,0.7241,0.742,0.7381,0.7394,0.7522,0.6656,0.6035,0.5797,0.49,0.4196,0.3687,0.339,0.272,0.1698,0.1618,0.1235,0.0482,0.0332,0.0232,0.0228,0.0091,0.0045,0.0,0.0,-0.0132,-0.0347,-0.0353,-0.0484,-0.0693,-0.0733,-0.0742,-0.0751,0.0,0.0,0.0,0.0,0.0,0.0,0.0,0.0,0.0,0.0,0.0,0.0,0.0,0.0,0.0,0.0,0.0,0.0,0.0,0.0,0.0,0.0,0.0,1.1952,1.1877,1.2333,1.2585,1.2611,1.3424,1.3819,1.3828,1.4157,1.3919,1.3167,1.2364,1.1977,1.1977,1.1418,1.1141,1.104,1.0499,0.0,0.0,0.0,0.0,0.0,0.0,0.0,0.0,0.8857,0.8883,0.8982,0.8982,0.0,0.0,0.0,0.0,0.0,0.9539,0.98,1.005,1.0483,1.0593,1.0561,0.0,0.0,0.0,0.0,0.0,0.0,0.0,0.8909,0.8955,0.774,0.7277,0.7418,0.8356,0.7866,0.742,0.7443,0.767,0.7756,0.7612,0.7508,0.7469,0.7494,0.7269,0.7142,0.7166,0.6916,0.6723,0.672,0.6429,0.6153,0.5817,0.4146,0.3197,0.3019,0.2734,0.2597,0.2605,0.1764,0.135,0.132,0.0555,0.0171,0.0,0.0,-0.0042,-0.0042,-0.0042,-0.0085,-0.0127,-0.0331,-0.0417,-0.0467,0.0,0.0,0.0,0.0,0.0,0.0,0.0,0.0,0.0,0.0,0.0,0.0,0.0,0.0,0.0,0.0,0.0,0.0,0.0,0.0,0.0,0.0,1.2101,1.2101,1.2101,1.2716,1.3029,1.3029,1.3818,1.4222,1.4222,1.3965,1.3653,1.3259,1.2468,1.2101,1.2076,1.1852,1.1553,1.1276,0.0,0.0,0.0,0.0,0.0,0.0,0.0,0.0,0.0,0.0,0.914,0.9008,0.9087,0.0,0.0,0.0,0.0,0.0,0.9633,0.9795,0.9937,1.0532,1.0776,1.087,0.0,0.0,0.0,0.0,0.0,0.0,0.0,0.0,1.0106,0.9418,0.886,0.8803,0.9627,0.8932,0.8462,0.8709,0.8324,0.8038,0.7914,0.7807,0.7643,0.7425,0.7288,0.7116,0.6905,0.6841,0.6807,0.6807,0.6736,0.666,0.6539,0.554,0.4697,0.4007,0.3836,0.3542,0.3072,0.261,0.2413,0.2387,0.1971,0.1469,0.0882,0.0882,0.0543,0.0,0.0,0.0,0.0,-0.012,-0.0161,-0.0203,0.0,0.0,0.0,0.0,0.0,0.0,0.0,0.0,0.0,0.0,0.0,0.0,0.0,0.0,0.0,0.0,0.0,0.0,0.0,0.0,1.2101,1.2101,1.2101,1.2147,1.2239,1.2955,1.3341,1.3433,1.4157,1.4515,1.4467,1.3681,1.3296,1.3259,1.2468,1.2101,1.2101,1.2101,1.1852,1.1502,0.0,0.0,0.0,0.0,0.0,0.0,0.0,0.0,0.0,0.0,0.0,0.0,0.0,0.0,0.0,0.9361,0.9286,0.9281,0.9818,0.9959,1.0114,1.0764,0.0,0.0,0.0,0.0,0.0,0.0,0.0,0.0,0.0,1.0328,1.0787,1.0833,1.0338,1.0182,1.0787,1.0131,0.9775,1.0202,0.9244,0.8592,0.8592,0.8165,0.7788,0.7446,0.736,0.7158,0.6788,0.675,0.6692,0.6647,0.6614,0.6597,0.6597,0.6521,0.5981,0.5027,0.4958,0.4532,0.3846,0.3571,0.3462,0.3462,0.3254,0.272,0.1938,0.1938,0.143,0.0645,0.0645,0.0518,0.0275,0.0079,0.0,0.0,0.0,0.0,0.0,0.0,0.0,0.0,0.0,0.0,0.0,0.0,0.0,0.0,0.0,0.0,0.0,0.0,0.0,0.0,0.0,0.0,1.2101,1.2101,1.2101,1.2275,1.2643,1.3093,1.3479,1.3865,1.4295,1.4515,1.4467,1.3681,1.3296,1.3259,1.2468,1.2101,1.2101,1.2101,1.2076,1.2051,1.2051,0.0,0.0,0.0,0.0,0.0,0.0,0.0,0.0,0.0,0.0,0.0,0.0,0.0,0.9387,0.9387,0.9521,0.9715,1.0016,1.0433,1.0888,1.1193,1.1052,0.0,1.1059,1.109,0.0,1.109,0.0,0.0,0.0,1.036,1.0348,1.1198,1.0629,1.0455,1.1557,1.121,1.0947,1.1166,1.0376,0.9772,0.9772,0.8617,0.7881,0.7866,0.751,0.721,0.6985,0.6854,0.6696,0.6528,0.6402,0.633,0.633,0.632,0.6313,0.6341,0.5998,0.5899,0.6032,0.5031,0.4592,0.4555,0.373,0.3219,0.2982,0.2982,0.2826,0.2589,0.2589,0.204,0.1097,0.0314,0.0,0.0,0.0,0.0,0.0,0.0,0.0,0.0,0.0,0.0,0.0,0.0,0.0,0.0,0.0,0.0,0.0,0.0,0.0,0.0,0.0,0.0,1.248,1.248,1.248,1.2545,1.2706,1.3075,1.3488,1.3911,1.4304,1.4515,1.4467,1.3681,1.3296,1.3259,1.2468,1.2101,1.2101,1.2101,1.2101,1.2101,1.2101,1.2101,0.0,0.0,0.0,0.0,0.0,0.0,0.0,0.0,1.0668,1.049,1.0372,1.0174,1.001,1.001,0.9935,0.9874,1.0158,1.0477,1.0826,1.1193,1.1209,0.0,0.0,1.1555,1.1578,1.1283,1.1588,0.0,0.0,1.1182,1.1186,1.165,1.1752,1.1986,1.2587,1.2178,1.1896,1.2157,1.1198,1.0519,1.0519,0.9433,0.8606,0.8404,0.7765,0.7239,0.6936,0.6874,0.6841,0.6762,0.6705,0.6676,0.6676,0.6563,0.6514,0.657,0.6281,0.6219,0.63,0.5867,0.5709,0.567,0.5354,0.4766,0.41,0.41,0.3671,0.3013,0.3059,0.2918,0.2563,0.2317,0.1768,0.1206,0.0,0.0,0.0,0.0,0.0,0.0,0.0,0.0,0.0,0.0,0.0,0.0,0.0,0.0,0.0,0.0,0.0,0.0,0.0,1.2861,1.2813,1.27,1.27,1.2694,1.2706,1.2974,1.3387,1.3911,1.4304,1.4515,1.4467,1.3681,1.336,1.3442,1.2523,1.2174,1.2275,1.2156,1.2101,1.2101,1.2101,1.2101,0.0,0.0,0.0,0.0,0.0,0.0,0.0,0.0,1.1343,1.1133,0.0,1.083,1.065,1.0574,1.0478,1.0407,1.0538,1.0737,1.0977,0.0,0.0,0.0,1.1684,1.1875,1.1934,1.1721,1.1941,1.2102,1.1985,0.0,1.1875,1.2071,1.2668,1.3153,1.3291,1.3121,1.3002,1.3112,1.2162,1.1464,1.1464,1.0347,0.954,0.9309,0.8624,0.8065,0.7783,0.751,0.7357,0.728,0.7015,0.6903,0.6903,0.6753,0.6676,0.6676,0.649,0.6377,0.63,0.63,0.63,0.63,0.63,0.5867,0.5198,0.5198,0.4748,0.4032,0.3748,0.3714,0.381,0.3594,0.3054,0.2462,0.0,0.0,0.0,0.0,0.0,0.0,0.0,0.0,0.0,0.0,0.0,0.0,0.0,0.0,0.0,0.0,0.0,0.0,0.0,1.3194,1.306,1.27,1.27,1.2694,1.2706,1.2715,1.3093,1.3911,1.4304,1.4476,1.4488,1.3681,1.3506,1.3847,1.2643,1.2321,1.2661,1.2266,1.2101,1.2101,1.2101,1.2101,1.2101,0.0,0.0,0.0,0.0,0.0,0.0,0.0,1.1703,1.1794,1.12,0.0,0.0,1.0976,1.1138,1.1381,1.116,1.1372,1.1622,0.0,0.0,0.0,1.1937,1.2003,1.2098,1.2426,1.2137,1.1943,1.2438,1.2228,1.2115,1.2466,1.3215,1.3738,1.3535,1.4015,1.4321,1.4124,1.3264,1.2699,1.2693,1.1423,1.06,1.06,1.0164,0.982,0.9599,0.8836,0.8304,0.8118,0.7361,0.6938,0.6938,0.6938,0.6938,0.6903,0.6714,0.6486,0.63,0.63,0.63,0.63,0.63,0.63,0.63,0.63,0.6267,0.6101,0.4888,0.4583,0.4719,0.3757,0.3501,0.3595,0.0,0.0,0.0,0.0,0.0,0.0,0.0,0.0,0.0,0.0,0.0,0.0,0.0,0.0,0.0,0.0,0.0,0.0,0.0,1.3194,1.306,1.27,1.27,1.2709,1.271,1.2985,1.3387,1.3911,1.4011,1.4075,1.4066,1.3818,0.0,1.3038,0.0,1.2432,1.2266,1.2147,1.2101,1.2101,1.2101,1.2101,1.2101,0.0,0.0,0.0,0.0,0.0,0.0,0.0,0.0,0.0,1.2363,0.0,1.1874,1.2095,1.2135,1.215,1.2373,1.2348,1.2243,1.2243,0.0,0.0,0.0,1.2171,0.0,0.0,1.2538,1.2376,1.2656,1.2578,1.2473,1.2501,1.3215,1.3777,1.3738,1.4219,1.4524,1.4321,1.3694,1.3205,1.3056,1.1784,1.0959,1.0959,1.0317,0.9857,0.982,0.9593,0.9442,0.9367,0.914,0.9026,0.9026,0.8874,0.8533,0.7965,0.774,0.7249,0.6486,0.6377,0.63,0.63,0.63,0.63,0.63,0.63,0.6285,0.6254,0.5984,0.5934,0.5975,0.5782,0.5275,0.4755,0.0,0.0,0.0,0.0,0.0,0.0,0.0,0.0,0.0,0.0,1.29,1.2973,0.0,0.0,0.0,1.3362,1.3552,0.0,1.36,1.3647,1.3515,1.3152,1.3128,1.3055,1.29,1.3016,1.3249,1.3652,1.3654,1.3644,1.3644,0.0,1.3488,1.3156,0.0,1.2663,1.2557,1.224,1.2101,1.2101,1.2101,1.2101,1.2101,0.0,0.0,0.0,0.0,0.0,0.0,0.0,0.0,0.0,1.2881,0.0,0.0,1.2491,1.241,1.2352,1.2408,1.2308,0.0,1.2128,1.2073,1.2091,1.2412,0.0,0.0,0.0,1.2943,1.2777,1.3041,1.2955,1.2791,1.2727,1.3233,1.3601,1.3398,1.3776,1.4006,1.38,1.3397,1.3108,1.2968,1.2039,1.1431,1.1431,1.0846,1.0489,1.0489,1.0199,1.0022,1.0022,0.9725,0.9542,0.9542,0.9432,0.9102,0.8623,0.8444,0.8037,0.7418,0.6809,0.649,0.6409,0.6231,0.6169,0.6166,0.6143,0.6153,0.6173,0.6196,0.632,0.6429,0.642,0.6078,0.5655,0.0,0.0,1.3194,1.3194,0.0,0.0,0.0,0.0,0.0,1.3242,1.3266,1.3266,0.0,0.0,0.0,1.3692,1.4116,1.4326,1.4176,1.428,1.4163,1.3763,1.3773,1.3621,1.3266,1.2958,1.2983,1.3345,1.3296,1.3295,0.0,0.0,1.3538,1.3755,0.0,1.2964,1.3189,1.2457,1.215,1.215,1.2101,1.2101,1.2101,1.2101,0.0,0.0,0.0,0.0,0.0,0.0,0.0,0.0,1.2905,1.2905,1.284,1.2493,1.2382,1.2321,1.2011,1.1895,1.1864,1.1864,1.2039,0.0,1.2453,1.3037,1.3557,1.3484,1.3214,1.3097,1.3397,1.3184,1.2965,1.2965,1.3243,1.3273,1.2798,1.3028,1.3119,1.2886,1.2682,1.2595,1.2595,1.2184,1.1901,1.1901,1.1611,1.1423,1.1423,1.0736,1.0321,1.0321,0.9614,0.9225,0.9225,0.9225,0.919,0.912,0.891,0.881,0.8684,0.7497,0.682,0.6548,0.618,0.6044,0.6033,0.5893,0.5921,0.603,0.5893,0.6009,0.6242,0.6061,0.6105,0.6279,0.0,0.0,1.3194,1.3194,0.0,0.0,0.0,0.0,1.3314,1.3621,1.3668,1.3787,1.4106,1.421,0.0,1.4233,1.4326,1.4257,1.3905,1.3905,1.3763,1.3348,1.3634,1.3763,1.3668,1.3597,1.3601,1.3704,1.3428,0.0,0.0,0.0,0.0,1.298,0.0,1.3285,1.2835,1.2641,1.2578,1.2529,1.2224,1.2101,1.2101,1.2101,1.2101,0.0,0.0,0.0,0.0,0.0,0.0,0.0,1.2905,1.2905,1.2998,1.3535,1.3683,1.3817,1.4406,1.4243,0.0,1.3893,1.3976,1.3778,1.2732,1.3252,1.382,1.321,1.306,1.3031,1.3104,1.2848,1.2594,1.2594,1.2899,1.3089,1.2946,1.3215,1.3346,1.3156,1.2863,1.2607,1.2458,1.211,1.1895,1.1895,1.1833,1.1765,1.1635,1.1464,1.132,1.1149,1.097,1.0867,1.0867,1.0867,1.0557,0.9933,0.9898,0.9544,0.891,0.7798,0.6945,0.6368,0.6263,0.6248,0.6245,0.6208,0.6216,0.6208,0.6072,0.6067,0.6124,0.59,0.5949,0.6078,0.0,0.0,0.0,0.0,0.0,0.0,0.0,0.0,1.3847,1.4069,1.4104,1.4174,1.4384,1.4396,0.0,0.0,1.435,1.428,1.3999,1.4046,1.3999,1.3766,1.3975,1.4104,1.4104,1.3905,1.3797,0.0,0.0,0.0,0.0,0.0,0.0,1.3244,0.0,1.3477,1.2924,1.2774,1.2578,1.2397,1.2175,1.2101,1.2101,1.2101,1.215,1.22,1.2357,0.0,0.0,0.0,0.0,0.0,0.0,0.0,1.326,1.3575,1.3816,1.4016,1.4383,0.0,0.0,1.4223,0.0,1.4151,1.3578,1.3887,1.4084,1.3378,1.2974,1.2775,1.2775,1.2636,1.2434,1.228,1.2397,1.2489,1.2336,1.2494,1.257,1.2468,1.2174,1.1973,1.1873,1.1659,1.1535,1.1535,1.1535,1.1502,1.1404,1.1404,1.1371,1.1272,1.1272,1.1272,1.1272,1.1174,1.0903,1.0506,1.0406,1.0001,0.9198,0.8389,0.7646,0.6971,0.678,0.6674,0.6666,0.6613,0.6783,0.7121,0.7022,0.6787,0.6482,0.6375,0.6159,0.5955,0.0,0.0,0.0,0.0,0.0,0.0,0.0,0.0,0.0,1.4396,1.4396,1.4396,1.4396,1.4396,1.435,0.0,0.0,0.0,1.4246,1.435,1.4396,1.4396,1.4396,1.4396,1.4396,1.4069,0.0,0.0,0.0,0.0,0.0,0.0,0.0,1.3808,0.0,1.3679,1.329,1.3007,1.2666,1.2289,1.2224,1.215,1.2101,1.2126,1.22,1.2323,1.248,1.2603,1.2725,1.2856,0.0,0.0,0.0,0.0,1.3501,1.3484,1.3719,1.3956,1.3847,0.0,1.3882,1.4051,1.4212,0.0,1.4328,1.4463,1.4391,1.3664,1.3012,1.2565,1.2438,1.2394,1.2237,1.1967,1.1923,1.186,1.1628,1.1591,1.1591,1.1591,1.1466,1.1334,1.1334,1.1247,1.1192,1.1192,1.1192,1.1185,1.1153,1.1122,1.1122,1.109,1.109,1.109,1.109,1.0933,1.0839,1.0839,1.0744,1.0358,0.976,0.9327,0.8656,0.7822,0.748,0.734,0.7326,0.7221,0.754,0.8091,0.8059,0.767,0.712,0.7088,0.6732,0.6247,0.0,0.0,0.0,0.0,0.0,0.0,0.0,0.0,0.0,0.0,1.4396,1.4396,1.4396,1.4396,1.4396,1.4373,1.4384,1.4396,1.4373,0.0,0.0,1.4396,1.4396,1.4396,1.4396,1.4361,0.0,0.0,0.0,0.0,0.0,0.0,0.0,1.3821,0.0,0.0,1.3716,1.3678,1.342,1.3025,1.274,1.2397,1.2101,1.2224,1.2274,1.2323,1.2578,1.2676,1.2725,1.2856,1.2905,0.0,0.0,0.0,1.3636,1.4381,1.4625,1.4732,1.5061,0.0,1.504,0.0,1.5121,1.5451,0.0,0.0,1.4728,1.3725,1.3185,1.2761,1.2159,1.1875,1.1709,1.1665,1.1657,1.1643,1.1599,1.1591,1.1591,1.1591,1.1591,1.156,1.156,1.1529,1.1529,1.1529,1.1529,1.1466,1.1272,1.1272,1.1216,1.109,1.109,1.109,1.109,1.1059,1.1059,1.1059,1.1028,1.0965,1.087,1.0819,0.9911,0.8385,0.8321,0.8305,0.8305,0.8306,0.8361,0.8425,0.8231,0.8102,0.8004,0.7897,0.78,0.7702,0.0,0.0,0.0,0.0,0.0,0.0,0.0,0.0,0.0,0.0,0.0,1.4396,1.4396,1.4396,1.4396,1.4396,1.4396,1.4396,1.4396,1.4396,1.4396,1.4396,1.4396,1.4396,1.4396,0.0,0.0,0.0,0.0,0.0,0.0,1.4569,1.4466,0.0,0.0,0.0,0.0,1.4299,1.3979,1.3298,1.3664,1.3651,1.3407,1.3749,1.4003,1.4169,1.3962,1.3912,1.3947,1.3661,1.3584,1.3588,1.3773,0.0,0.0,0.0,1.4951,1.5176,1.5361,1.541,1.5323,0.0,1.535,1.5496,1.4743,1.4926,1.504,1.4237,1.3935,1.3518,1.2468,1.2196,1.1973,1.1654,1.1591,1.1591,1.1591,1.1591,1.1591,1.1591,1.1591,1.1591,1.1591,1.1591,1.1591,1.1591,1.1591,1.156,1.1466,1.1466,1.1435,1.1373,1.1373,1.1373,1.1373,1.1279,1.1185,1.109,1.109,1.109,1.109,1.109,1.0446,0.9346,0.9256,0.923,0.923,0.9102,0.9358,0.9773,0.9678,0.9422,0.9102,0.9032,0.8705,0.8258,0.0,0.0,0.0,0.0,0.0,0.0,0.0,0.0,0.0,0.0,0.0,1.4396,1.4396,0.0,0.0,0.0,1.4396,1.4396,1.4396,1.4396,1.4396,1.4396,1.4396,1.4396,1.4396,0.0,0.0,0.0,0.0,0.0,1.4708,1.4846,1.4903,0.0,1.4971,1.4833,0.0,0.0,1.4605,1.3965,1.4748,1.4903,0.0,0.0,1.5453,1.5658,1.5221,1.5153,1.5153,1.472,1.4572,1.4592,1.4703,1.4867,0.0,0.0,0.0,1.541,0.0,0.0,1.541,1.541,1.541,1.541,0.0,1.541,1.5264,1.4824,1.4736,1.4401,1.3274,1.2879,1.2551,1.1919,1.1825,1.1802,1.1685,1.174,1.1864,1.1895,1.1864,1.1825,1.1825,1.1685,1.1591,1.1591,1.1591,1.1591,1.1591,1.1591,1.1591,1.1591,1.1591,1.1591,1.1591,1.1466,1.1341,1.1216,1.1216,1.1216,1.1216,1.1216,1.0926,1.0401,1.0218,1.0129,1.0123,0.9964,1.0288,1.087,1.087,1.0579,1.0129,1.0129,0.9678,0.9069,0.0,0.0,0.0,0.0,0.0,0.0,0.0,0.0,0.0,0.0,0.0,1.4396,1.4396,1.4396,1.4396,1.4396,1.4396,1.4396,1.4396,1.4396,1.4396,1.4396,1.4396,0.0,1.4396,1.4396,0.0,0.0,0.0,0.0,1.4708,1.5221,1.5468,1.5446,1.4949,1.4988,1.5424,0.0,0.0,1.5592,1.5909,1.5796,1.5468,0.0,1.5683,1.5709,1.5822,1.5847,1.5847,1.5822,1.5796,1.5873,1.6343,1.6079,1.5732,0.0,0.0,0.0,0.0,1.541,0.0,1.541,1.541,1.541,1.541,1.541,1.5381,1.5352,1.5352,1.5206,1.4677,1.3953,1.323,1.2573,1.2451,1.2305,1.1864,1.2158,1.2512,1.2704,1.2581,1.2451,1.2451,1.195,1.1591,1.1591,1.1591,1.1591,1.1591,1.1591,1.1591,1.1591,1.1591,1.1591,1.1591,1.1591,1.1591,1.156,1.156,1.156,1.156,1.156,1.156,1.1498,1.1185,1.1028,1.1028,1.1028,1.1028,1.109,1.109,1.1059,1.1028,1.1028,1.087,1.0674,0.0,0.0,0.0,0.0,0.0,0.0,0.0,0.0,0.0,0.0,0.0,0.0,0.0,1.4396,1.4396,1.4396,1.4396,1.4396,1.4396,1.4396,1.4396,1.4396,1.4396,1.4396,1.4396,1.4396,0.0,0.0,0.0,1.4891,1.5221,1.5401,1.5758,1.6204,1.602,1.5951,1.6067,1.6703,0.0,1.6405,1.7108,1.7258,1.7075,0.0,1.767,1.7763,1.7421,1.7315,1.7262,1.685,1.6742,1.6775,1.6923,1.6841,1.6625,0.0,0.0,0.0,0.0,0.0,0.0,1.541,1.5507,1.5575,1.5575,1.5662,1.573,1.573,1.573,1.5672,1.5498,1.4804,1.4103,1.3545,1.3455,1.3394,1.3252,1.3364,1.3485,1.3545,1.3515,1.3455,1.3455,1.3274,1.31,1.297,1.2962,1.2909,1.2812,1.2917,1.2726,1.2182,1.2313,1.2104,1.1622,1.1591,1.1591,1.1591,1.1591,1.1591,1.1591,1.1591,1.1591,1.1591,1.1466,1.1341,1.1216,1.1153,1.1153,1.1216,1.1216,1.1216,1.1216,1.1216,1.1122,1.0996,0.0,0.0,0.0,0.0,0.0,0.0,0.0,0.0,0.0,0.0,0.0,0.0,0.0,0.0,1.4396,1.4396,1.4396,1.4396,1.4396,1.4396,1.4396,1.4396,1.4396,1.4419,1.4489,1.4489,0.0,0.0,0.0,0.0,0.0,1.558,1.5955,1.6607,1.6787,1.6836,0.0,0.0,1.7618,1.741,1.8124,1.8344,1.8306,1.8614,1.8827,1.8934,1.8536,1.8402,1.8348,1.7984,1.7875,1.7875,1.7875,1.7699,0.0,0.0,0.0,0.0,1.5997,0.0,0.0,0.0,1.5778,1.5769,1.5769,1.5827,1.5885,1.5885,1.5885,1.5914,1.5961,1.5536,1.4991,1.4382,1.4293,1.4264,1.4085,1.4204,1.4323,1.4392,1.4323,1.4293,1.4293,1.4115,1.3936,1.3807,1.3807,1.3756,1.3674,1.3756,1.3567,1.3031,1.3122,1.2948,1.2405,1.2135,1.2019,1.2081,1.2011,1.2019,1.2073,1.222,1.2189,1.1988,1.1988,1.1771,1.1404,1.131,1.131,1.1404,1.1404,1.1404,1.1404,1.1404,1.131,1.1185,0.0,0.0,0.0,0.0,0.0,0.0,0.0,0.0,0.0,0.0,0.0,0.0,0.0,0.0,0.0,1.4396,1.4396,1.4396,1.4396,1.4396,1.4396,1.4396,1.4396,1.4489,1.4708,1.4708,1.4834,0.0,0.0,0.0,0.0,0.0,1.6104,1.6655,1.7171,1.7575,1.7845,1.7845,1.8128,1.864,1.8907,1.8987,1.8987,1.8987,1.8987,1.8987,1.8987,1.8987,1.9025,1.9143,1.9208,1.9196,1.9208,0.0,0.0,0.0,0.0,0.0,0.0,0.0,0.0,0.0,1.6296,1.5943,1.5943,1.5943,1.5943,1.5914,1.5914,1.5933,1.6085,1.6114,1.5835,1.506,1.4943,1.4796,1.4323,1.4649,1.5011,1.5196,1.507,1.4943,1.4943,1.4412,1.4064,1.4055,1.4055,1.4055,1.4055,1.4025,1.4025,1.4025,1.3995,1.3995,1.3995,1.3221,1.2887,1.3039,1.2887,1.2887,1.3039,1.3507,1.3386,1.2826,1.2826,1.2374,1.1654,1.1622,1.1622,1.1622,1.1591,1.1622,1.1622,1.1622,1.1498,1.1365,0.0,0.0,0.0,0.0,0.0,0.0,0.0,0.0,0.0,0.0,0.0,0.0,0.0,0.0,0.0,1.4616,1.4489,1.4396,1.4396,1.4396,1.4466,1.4616,1.4616,1.472,1.4971,1.4994,1.5131,0.0,0.0,0.0,0.0,0.0,0.0,0.0,1.7748,1.8226,1.8665,1.8665,1.8749,1.8907,1.896,1.8987,1.8987,1.8987,1.8987,1.8987,1.8987,1.8987,1.9025,1.9143,1.9143,1.9078,1.917,0.0,0.0,0.0,0.0,0.0,1.7468,0.0,0.0,0.0,0.0,0.0,1.6786,1.6786,1.6719,1.6335,1.6259,1.6259,1.6306,1.6316,1.6249,1.6009,1.598,1.5951,1.5797,1.5894,1.6009,1.6048,1.6009,1.598,1.598,1.5836,1.5681,1.5517,1.5517,1.5468,1.5362,1.4923,1.4708,1.4874,1.4302,1.3995,1.3995,1.3786,1.3704,1.3726,1.3704,1.3704,1.3734,1.3876,1.3816,1.3674,1.3674,1.3282,1.2558,1.1988,1.1747,1.1747,1.1654,1.1856,1.2182,1.1771,1.2143,1.2834,0.0,0.0,0.0,0.0,0.0,0.0,0.0,0.0,0.0,0.0,0.0,0.0,0.0,0.0,0.0,1.5526,1.5431,1.5269,1.5044,1.5033,1.4979,1.4869,1.4857,1.4994,1.5266,1.5266,1.5379,0.0,0.0,0.0,0.0,0.0,0.0,0.0,1.8061,1.8494,1.8987,1.8987,1.8987,1.8987,1.9052,1.9078,1.9078,1.9158,1.9172,1.9172,1.9172,1.9131,1.9105,1.9289,1.9316,1.9251,1.9342,1.9146,0.0,0.0,0.0,0.0,0.0,0.0,0.0,1.8081,0.0,0.0,1.7213,1.7157,1.7045,1.6506,1.6413,1.6413,1.6413,1.6413,1.6413,1.6413,1.6413,1.6413,1.6413,1.6413,1.6413,1.6413,1.6413,1.6413,1.6413,1.6413,1.6345,1.622,1.622,1.6192,1.6116,1.5739,1.5584,1.571,1.5264,1.4991,1.4991,1.4658,1.454,1.4569,1.454,1.454,1.4599,1.4805,1.4746,1.451,1.451,1.4115,1.3455,1.2978,1.2474,1.1934,1.2112,1.2374,1.2604,1.2612,1.3009,1.3545,0.0,0.0,1.6876,1.6833,1.7027,0.0,0.0,0.0,0.0,0.0,0.0,0.0,0.0,0.0,0.0,0.0,1.6711,1.6502,1.6017,1.5994,1.5798,1.5349,1.5326,1.544,1.5713,1.5713,0.0,0.0,0.0,0.0,0.0,0.0,0.0,0.0,1.8265,1.8554,1.8987,1.8987,1.9025,1.9013,1.9143,1.9208,1.9208,1.9342,1.9394,1.9394,1.9394,1.9328,1.9249,1.9486,1.9617,1.9604,1.9617,1.9539,1.9447,1.9447,1.942,0.0,0.0,0.0,0.0,0.0,1.8617,0.0,1.7534,1.7396,1.724,1.6694,1.6602,1.6573,1.6506,1.6488,1.6459,1.6402,1.6413,1.6413,1.6413,1.6413,1.6413,1.6413,1.6413,1.6413,1.6413,1.6413,1.6413,1.6413,1.6413,1.6413,1.6413,1.6413,1.6413,1.6413,1.6413,1.6413,1.6413,1.5681,1.5381,1.5507,1.5381,1.541,1.5536,1.5941,1.5855,1.5323,1.5323,1.4962,1.4323,1.4323,1.3524,1.239,1.2926,1.307,1.31,1.3756,1.3995,1.3957,1.7206,1.7031,1.6812,1.6475,0.0,0.0,0.0,0.0,0.0,0.0,0.0,0.0,0.0,0.0,0.0,0.0,0.0,1.6665,1.6548,1.6537,1.6576,1.6701,1.6725,1.6811,1.7027,1.7027,1.7063,0.0,0.0,0.0,0.0,0.0,0.0,0.0,1.865,1.8891,1.8987,1.8987,1.9052,1.917,1.9182,1.9208,1.9208,1.9342,1.9394,1.9394,1.9394,1.9368,1.9368,1.942,1.9591,1.9734,1.963,1.9656,1.9734,1.9734,1.9656,1.9591,0.0,0.0,0.0,1.9566,1.954,0.0,1.8777,1.8655,1.8483,1.7886,1.7776,1.7628,1.7129,1.7045,1.6888,1.6459,1.6413,1.6413,1.6413,1.6413,1.6413,1.6413,1.6413,1.6413,1.6413,1.6413,1.6413,1.6413,1.6413,1.6413,1.6413,1.6413,1.6413,1.6413,1.6413,1.6413,1.6413,1.623,1.6163,1.6202,1.6163,1.6163,1.6202,1.6316,1.6288,1.6173,1.6173,1.5778,1.5177,1.5177,1.4628,1.3795,1.3786,1.4085,1.4462,1.4115,1.4638,1.5391,1.774,1.7632,1.7581,1.7679,0.0,0.0,0.0,0.0,0.0,0.0,0.0,0.0,0.0,0.0,0.0,0.0,0.0,0.0,0.0,0.0,1.739,1.7252,1.7265,1.7302,1.7387,1.7387,1.7387,0.0,0.0,0.0,0.0,0.0,0.0,0.0,0.0,1.9131,1.921,1.921,1.9395,1.9704,1.9704,1.9587,1.9445,1.9874,1.9865,1.9617,1.9617,1.9617,1.9591,1.9512,1.963,1.9798,1.9734,1.9759,1.9798,1.9798,1.9759,1.9708,1.9773,1.9759,1.9734,1.9773,1.9798,0.0,0.0,1.8987,1.8815,1.8228,1.8093,1.8011,1.7699,1.7396,1.7101,1.6842,1.6563,1.6413,1.6413,1.6413,1.6413,1.6413,1.6413,1.6413,1.6413,1.6413,1.6413,1.6413,1.6413,1.6413,1.6413,1.6413,1.6413,1.6413,1.6413,1.6413,1.6413,1.6413,1.6413,1.6413,1.6413,1.6413,1.6413,1.6413,1.6413,1.6413,1.6413,1.6202,1.5894,1.5894,1.5652,1.5264,1.4874,1.4835,1.507,1.5167,1.5536,1.598,1.8526,1.8554,1.8761,1.9183,0.0,0.0,0.0,0.0,0.0,0.0,0.0,0.0,0.0,0.0,0.0,0.0,0.0,0.0,0.0,0.0,1.8195,1.7736,1.7724,1.7724,1.7724,1.7724,1.7724,1.7724,0.0,0.0,0.0,0.0,0.0,0.0,0.0,0.0,0.0,1.9431,1.9728,2.0259,2.0259,2.013,1.9977,2.05,2.0402,1.9962,1.9849,1.9798,1.9773,1.9682,1.9708,1.9798,1.9798,1.9798,1.9798,1.9798,1.9798,1.9798,1.9798,1.9798,1.9798,1.9798,1.9798,1.9708,0.0,0.0,0.0,1.8525,1.8444,1.839,1.8282,1.7875,1.7473,1.7247,1.6957,1.6701,1.6634,1.6698,1.6666,1.6441,1.6413,1.6413,1.6413,1.6413,1.6413,1.6413,1.6413,1.6413,1.6413,1.6413,1.6413,1.6413,1.6413,1.6413,1.6413,1.6413,1.6402,1.6431,1.6431,1.6431,1.6431,1.6431,1.6431,1.6431,1.6431,1.6459,1.6488,1.6488,1.6459,1.6374,1.5797,1.5536,1.5507,1.6163,1.6306,1.6181,2.0197,2.0147,2.0076,1.9846,0.0,0.0,0.0,0.0,0.0,0.0,0.0,0.0,0.0,0.0,2.0064,0.0,0.0,0.0,1.9782,1.9354,0.0,1.8845,1.8806,1.8806,1.8806,1.8806,1.8806,1.8806,0.0,0.0,0.0,0.0,0.0,0.0,1.9368,0.0,0.0,1.9591,1.982,2.0461,2.0461,2.071,2.1073,2.0801,2.0654,2.0528,1.9987,1.9798,1.9798,1.9773,1.9798,1.9798,1.9798,1.9798,1.9798,1.9798,1.9798,1.9798,1.9798,1.9798,1.9798,1.9798,1.9798,1.9773,1.9721,0.0,1.9695,1.9618,0.0,1.9462,1.8987,0.0,0.0,1.7443,1.7645,1.777,1.742,1.7794,1.7683,1.6534,1.6413,1.6413,1.6413,1.6413,1.6413,1.6413,1.6413,1.6413,1.6413,1.6413,1.6413,1.6413,1.6413,1.6413,1.6413,1.6413,1.6459,1.6581,1.6581,1.6581,1.6581,1.6581,1.6581,1.6581,1.6581,1.6637,1.6761,1.6761,1.6666,1.6552,1.6363,1.6288,1.6259,1.6384,1.6374,1.6374,2.0918,2.0641,2.0628,2.0851,0.0,0.0,0.0,0.0,0.0,0.0,0.0,0.0,2.0848,2.0669,2.073,2.1201,2.0918,2.0853,2.1134,2.0957,0.0,1.9738,1.9699,1.9553,1.9237,1.9237,1.9237,1.9237,1.9237,0.0,0.0,0.0,0.0,0.0,2.0033,2.0211,2.049,2.0254,2.0318,2.0648,2.0934,2.1209,2.1347,2.0878,2.0478,2.0125,1.9886,1.9798,1.9798,1.9798,1.9798,1.9798,1.9798,1.9798,1.9798,1.9798,1.9798,1.9798,1.9798,1.9798,1.9798,1.9798,1.9798,1.9798,1.9798,1.9798,1.9798,1.9798,0.0,0.0,0.0,0.0,0.0,0.0,1.8304,1.819,1.8087,1.8265,1.8093,1.7262,1.705,1.6835,1.6431,1.6413,1.6413,1.6413,1.6413,1.6413,1.6413,1.6413,1.6413,1.6413,1.6413,1.6431,1.6534,1.6534,1.6591,1.6722,1.6722,1.6722,1.6722,1.6722,1.6722,1.6722,1.6722,1.6761,1.6818,1.6818,1.6761,1.6694,1.6648,1.6591,1.6534,1.6534,1.6534,1.6534,2.1692,2.1391,2.1442,2.1878,0.0,0.0,0.0,0.0,0.0,0.0,0.0,2.2114,2.2269,2.2082,2.2116,2.253,2.2489,2.2434,2.253,2.2373,2.1883,2.0974,2.0784,2.0501,2.0129,1.9943,1.9875,1.9875,1.9875,0.0,0.0,0.0,0.0,0.0,0.0,2.0897,2.1119,2.0817,2.086,2.1159,2.1428,2.1599,2.1629,2.0964,2.0406,2.0029,2.0029,2.0118,2.0245,2.0245,2.0257,2.0295,2.0245,2.0257,2.0283,2.0283,2.0283,2.0283,2.0283,2.0283,2.0245,2.008,2.0029,1.9978,1.9824,1.9798,1.9798,1.9798,1.9837,0.0,0.0,0.0,0.0,0.0,0.0,1.8826,1.8799,1.8933,1.8765,1.8011,1.7655,1.7279,1.6807,1.6476,1.6328,1.6328,1.6328,1.6328,1.6328,1.6443,1.6516,1.6516,1.6516,1.6563,1.6655,1.6655,1.6722,1.6864,1.6864,1.6864,1.6864,1.6864,1.6864,1.6864,1.6864,1.6892,1.6931,1.6931,1.6892,1.6864,1.6931,1.6835,1.6712,1.6666,1.6655,1.6655,2.2844,2.283,0.0,2.2859,2.2836,0.0,0.0,2.3838,2.3827,2.3848,2.4348,2.4259,2.3185,2.4152,2.4632,2.4069,2.415,2.4109,2.3865,2.3352,2.3002,2.283,2.2269,2.1915,2.1929,2.1331,2.1047,2.1047,2.1047,0.0,0.0,0.0,0.0,0.0,2.1455,2.1757,2.2184,2.1144,2.1291,2.2214,2.1773,2.1874,2.2152,2.1092,2.0642,2.0585,2.0585,2.0919,2.1345,2.1345,2.1441,2.1513,2.1393,2.1441,2.1537,2.1537,2.1537,2.1537,2.1537,2.1537,2.1393,2.0734,2.0585,2.0434,1.9927,1.9798,1.9798,1.9798,1.9901,1.9952,1.9837,0.0,0.0,0.0,0.0,0.0,0.0,2.0074,1.9952,1.8632,1.8011,1.7694,1.7667,1.671,1.6099,1.6099,1.6099,1.6099,1.6099,1.6535,1.679,1.679,1.679,1.679,1.6779,1.6779,1.6864,1.6983,1.6983,1.6983,1.6983,1.6983,1.6983,1.6983,1.6983,1.7106,1.7278,1.7278,1.7172,1.7011,1.7211,1.7172,1.6983,1.6835,1.6779,1.6779,2.4148,2.4148,2.4041,2.3621,2.3896,2.4221,2.4462,2.4491,2.4819,2.5684,2.5645,2.5705,2.6162,2.6114,2.618,2.6523,2.6106,2.5828,2.5814,2.5272,2.4598,2.3717,2.35,2.3232,2.2871,2.2658,2.255,2.255,2.2145,0.0,0.0,0.0,0.0,0.0,0.0,2.235,2.2876,2.2517,2.2323,2.2241,2.1676,2.1558,2.1667,2.1311,2.1141,2.1126,2.1224,2.1369,2.1537,2.1582,2.1629,2.1653,2.1615,2.1615,2.1677,2.1677,2.1677,2.1677,2.1677,2.1677,2.1605,2.1345,2.0993,2.0646,2.0384,2.0118,1.9926,1.9926,2.0029,2.0131,2.0067,0.0,0.0,0.0,0.0,0.0,0.0,2.0506,2.0473,2.0016,1.9018,1.8158,1.769,1.7017,1.6488,1.6144,1.5805,1.5759,1.6084,1.6254,1.6488,1.6797,1.6818,1.6835,1.6937,1.7329,1.7595,1.7738,1.8131,1.8321,1.8306,1.7913,1.7738,1.7722,1.7357,1.7239,1.7334,1.7689,1.7776,1.7738,1.7815,1.7776,1.7655,1.7123,1.6937,1.6937,2.4995,2.5146,2.5077,2.4365,2.4549,2.4897,2.5114,2.5346,2.5883,2.6982,2.7005,2.7214,2.8025,2.7844,2.7783,2.8096,2.784,2.7598,2.7499,2.71,2.6424,2.5437,2.5177,2.4805,2.4239,2.4012,2.3784,2.3581,2.3185,2.288,0.0,0.0,0.0,0.0,0.0,2.2792,2.3156,2.3199,2.2978,2.2597,2.2215,2.2348,2.2708,2.225,2.1941,2.1752,2.187,2.2035,2.2221,2.2253,2.2308,2.2331,2.2285,2.2308,2.2331,2.2331,2.2331,2.2331,2.2331,2.2331,2.2262,2.1988,2.1657,2.1345,2.1053,2.0782,2.0597,2.0597,2.0721,2.0795,2.0733,0.0,0.0,0.0,0.0,0.0,0.0,2.0699,2.0699,2.0699,1.9734,1.8827,1.813,1.7471,1.6839,1.6285,1.5966,1.6014,1.6532,1.6732,1.7055,1.7567,1.7579,1.7623,1.7722,1.8088,1.8333,1.8429,1.8815,1.8987,1.8987,1.8602,1.8429,1.8402,1.8045,1.7893,1.792,1.8278,1.8429,1.8429,1.8429,1.8429,1.8321,1.7429,1.7234,1.739,2.5387,2.5894,2.6006,2.513,2.4979,2.5207,2.5818,2.6442,2.707,2.771,2.8347,2.8767,2.8796,2.9319,2.9435,2.8854,2.929,2.9377,2.8796,2.8723,2.8405,2.7782,2.7199,2.6623,2.6004,2.5439,2.485,2.4234,2.4205,0.0,0.0,0.0,0.0,0.0,2.3185,2.3207,2.321,2.3295,2.3352,2.3358,2.3381,2.4123,2.5059,2.3858,2.2984,2.2402,2.2526,2.2889,2.3319,2.3319,2.3385,2.3487,2.3363,2.3407,2.3509,2.3509,2.3509,2.3509,2.3509,2.3509,2.3363,2.2694,2.2535,2.2383,2.1852,2.172,2.171,2.171,2.1819,2.1856,2.1734,2.1561,0.0,0.0,0.0,0.0,0.0,2.0699,2.0699,2.0699,2.0195,1.9598,1.8957,1.8019,1.7195,1.6548,1.6476,1.6739,0.0,1.782,1.8334,1.8975,1.8987,1.8987,1.8987,1.904,1.904,1.904,1.9093,1.9093,1.9093,1.9066,1.9066,1.9066,1.904,1.9013,1.9013,1.904,1.9066,1.9066,1.9066,1.904,1.8881,1.7783,1.7717,1.8174,2.6705,2.7237,2.762,2.7365,2.6927,2.6773,2.7284,2.7506,2.7977,2.8985,2.9247,2.9566,3.006,3.0263,3.0292,3.0133,2.9798,2.9523,2.9392,2.8942,2.8636,2.8448,2.8279,2.7893,2.7246,2.7081,2.6701,2.6111,2.566,0.0,2.5175,0.0,0.0,0.0,0.0,2.4541,2.4608,2.5133,2.5374,2.5404,2.4952,2.4988,2.5254,2.497,2.4471,2.3885,2.3407,2.3319,2.3466,2.3501,2.3545,2.3566,2.353,2.3545,2.3566,2.3566,2.3566,2.3566,2.3566,2.3566,2.3523,2.3297,2.2934,2.2581,2.236,2.2067,2.1856,2.1856,2.1964,2.2035,2.1997,2.1964,2.1789,0.0,0.0,0.0,0.0,2.0699,2.0699,2.0699,2.0574,2.0072,1.9001,1.8347,1.759,1.6578,1.6183,1.6402,1.734,1.752,1.8013,1.8963,1.8987,1.8987,1.8987,1.9488,1.9734,1.9747,2.0245,2.0485,2.0472,2.0067,1.9888,1.9863,1.9475,1.9305,1.9331,1.9734,1.9888,1.9888,1.9888,1.9657,1.9253,1.8869,1.8857,1.9083,2.8248,2.8545,2.8824,2.8824,2.85,2.8287,2.8427,2.8611,2.8994,2.9653,2.9959,3.0381,3.1037,3.111,3.1257,3.1611,3.0965,3.0541,3.0541,2.9973,2.9478,2.9102,2.9187,2.8779,2.7819,2.7871,2.7484,2.6592,2.6231,0.0,2.5674,0.0,0.0,0.0,0.0,2.5189,2.5197,2.5632,2.6163,2.6663,2.5788,2.5604,0.0,2.5563,2.5274,2.4939,2.4552,2.403,2.356,2.3588,2.3595,2.3595,2.3595,2.3595,2.3595,2.3595,2.3595,2.3595,2.3595,2.3595,2.3588,2.3545,2.3326,2.3076,2.3009,2.2815,2.2643,2.2643,2.2748,2.2838,2.2838,2.2694,2.2351,0.0,0.0,0.0,2.1275,2.1204,2.1082,2.1082,2.1155,2.0721,1.9592,1.8892,1.8022,1.6897,1.6561,1.6885,1.8008,1.807,1.8607,1.9798,1.9836,1.9823,1.9862,2.0232,2.0434,2.0434,2.0835,2.0997,2.0997,2.0684,2.056,2.0535,2.0232,2.0105,2.0131,2.0434,2.056,2.056,2.056,2.0396,2.0169,2.0105,1.994,1.976,2.9606,2.9666,2.9726,2.9726,2.9849,2.9871,2.9607,2.9851,3.0118,3.0162,3.0705,3.1319,3.1907,3.1965,3.2247,3.2946,3.2366,3.1965,3.1965,3.1334,3.063,2.9944,3.0017,2.9444,2.8098,2.8231,2.7747,2.6545,2.6474,0.0,0.0,0.0,0.0,0.0,0.0,0.0,2.5577,2.5565,2.6282,2.7333,2.6284,2.6213,2.6686,2.6078,2.5809,2.5734,2.5734,2.4926,2.3864,2.3864,2.3804,2.3729,2.3729,2.367,2.3595,2.3595,2.3595,2.3595,2.3595,2.3595,2.3595,2.3595,2.3595,2.3595,2.3595,2.3595,2.3616,2.3616,2.3739,2.3839,2.3839,2.3436,2.2912,2.2314,2.1837,2.1684,2.2105,2.1898,2.1722,2.1722,2.1817,0.0,2.0409,1.9549,1.859,1.7416,1.7424,1.7895,1.8858,1.8999,1.9633,2.0861,2.0913,2.0949,2.0997,2.1008,2.1033,2.1033,2.1033,2.1033,2.1033,2.1033,2.1033,2.1033,2.1033,2.1033,2.1033,2.1033,2.1033,2.1033,2.1033,2.1106,2.1229,2.1229,2.0858,2.0358,2.9606,2.9998,3.0342,3.0342,3.127,3.1974,3.19,3.1426,3.119,3.1589,3.2222,3.2665,3.2783,3.2797,3.2842,3.2976,3.2856,3.2797,3.2797,3.2162,3.172,3.1602,3.1146,3.0263,2.8937,2.8935,2.8584,2.7856,2.7313,0.0,0.0,0.0,0.0,0.0,0.0,0.0,2.7011,2.6569,2.6847,2.756,2.732,2.733,2.7405,2.73,2.6926,2.6422,2.6422,2.5914,2.5255,2.5255,2.4874,2.4425,2.4425,2.4059,2.3595,2.3595,2.3595,2.3595,2.3595,2.3595,2.3595,2.3595,2.3595,2.3595,2.3595,2.3696,2.376,2.376,2.3861,2.3961,2.3961,2.353,2.312,2.2957,2.2581,2.2328,2.242,2.2374,2.2328,2.2328,2.2351,2.1972,2.0864,2.028,1.9459,1.8196,1.8605,1.8918,1.8898,1.9578,2.0258,0.0,2.0936,2.0997,0.0,2.1106,2.1155,2.118,2.1277,2.1326,2.1326,2.1326,2.1326,2.1326,2.1326,2.1326,2.1326,2.1326,2.1326,2.1326,2.1326,2.135,2.135,2.135,2.1288,2.1191,3.1031,3.1345,3.1659,3.2003,3.2587,3.3021,3.3021,3.299,3.2899,3.2686,3.2967,3.3263,3.3589,3.3619,3.3799,3.4265,3.389,3.3619,3.3619,3.2685,3.2107,3.1987,3.1486,3.0569,2.9224,2.9305,2.9047,2.8393,2.8081,0.0,0.0,0.0,0.0,2.7397,0.0,2.7448,0.0,2.7245,2.73,2.76,2.76,2.76,2.76,2.76,2.7405,2.7121,2.7121,2.6926,2.6512,2.5839,2.5382,2.5113,2.5113,2.471,2.4221,2.4221,2.4025,2.3818,2.3818,2.3818,2.3818,2.3818,2.3818,2.3818,2.3818,2.3861,2.3903,2.3903,2.4003,2.4103,2.4103,2.3882,2.3674,2.3566,2.3179,2.2965,2.3246,2.3098,2.2965,2.2965,2.3031,2.2767,2.2016,2.1729,2.0831,1.8968,1.9119,1.9389,1.9552,0.0,2.0457,0.0,0.0,0.0,2.1204,0.0,2.1302,2.1302,2.1375,2.1399,2.1399,2.1399,2.1399,2.1399,2.1399,2.1399,2.1399,2.1399,2.1399,2.1399,2.1399,2.1399,2.1399,2.1399,2.1399,2.1399,3.2617,3.2721,3.2886,3.341,3.3604,3.3709,3.3709,3.4262,3.4425,3.3658,3.3672,3.394,3.4431,3.449,3.4746,3.5459,3.4867,3.4416,3.4267,3.3196,3.2421,3.2122,3.1634,3.08,2.9597,2.9585,2.9352,2.8801,2.8667,2.8607,0.0,0.0,0.0,0.0,0.0,0.0,0.0,2.76,2.76,2.76,2.76,2.76,2.76,2.76,2.76,2.76,2.7625,2.765,2.75,2.645,2.5991,2.5809,2.5809,2.5445,2.501,2.501,2.4638,2.4216,2.4216,2.411,2.4003,2.4003,2.4003,2.4003,2.4003,2.4024,2.4024,2.4024,2.4145,2.4208,2.4187,2.4208,2.4187,2.4061,2.3696,2.358,2.3988,2.3782,2.3595,2.3595,2.3681,2.3551,2.3091,2.3046,2.2224,2.0216,1.998,1.9992,2.0201,0.0,0.0,0.0,2.1229,2.1302,2.1399,0.0,2.1399,2.1399,2.1399,2.1399,2.1399,2.1399,2.1399,2.1399,2.1399,2.1399,2.1399,2.1399,2.1399,2.1399,2.1399,2.1423,2.1496,2.1496,2.152,2.1568,3.3395,3.341,3.3425,3.3484,3.3978,3.4414,3.4414,3.4966,3.516,3.4472,3.4936,3.5307,3.5367,3.5367,3.5397,3.5504,3.5412,3.5113,3.4517,3.3799,3.311,3.2482,3.1825,3.1123,3.0404,2.9864,2.9577,2.9517,2.8891,2.8607,0.0,0.0,0.0,0.0,0.0,0.0,0.0,2.76,2.76,2.76,2.76,2.76,2.76,2.76,2.76,2.7625,2.774,2.779,2.7775,2.7794,2.7203,2.6497,2.6497,2.6129,2.5704,2.5704,2.5342,2.4915,2.4915,2.4459,2.4003,2.4003,2.4003,2.4003,2.4003,2.4103,2.4166,2.4166,2.4234,2.4276,2.4208,2.4234,2.4276,2.4187,2.4193,2.4219,2.4261,2.424,2.4219,2.4219,2.4219,2.4051,2.3573,2.353,2.3252,2.2603,2.2186,2.142,2.0264,0.0,0.0,2.1204,2.1326,2.1399,2.1399,2.1399,2.1399,2.1399,2.1399,2.1399,2.1399,2.1399,2.1399,2.1399,2.1399,2.1399,2.1399,2.1399,2.1399,2.1399,2.1399,2.1544,2.1746,2.1746,2.1926,2.2091,3.4008,3.4114,3.4249,3.4637,3.4921,3.51,3.51,3.5325,3.54,3.513,3.5325,3.5504,3.5504,3.5504,3.5504,3.5504,3.5504,3.522,3.4548,3.3858,3.32,3.2542,3.1854,3.1182,3.0507,3.0253,2.9953,2.9606,2.9684,2.9564,2.919,0.0,0.0,0.0,0.0,2.7854,2.76,2.76,2.76,2.76,2.76,2.765,2.7715,2.7715,2.7765,2.784,2.7905,2.793,2.793,2.798,2.7748,2.7448,2.7448,2.7076,2.6648,2.6648,2.626,2.5831,2.5831,2.5326,2.479,2.479,2.4484,2.4193,2.4193,2.4213,2.4255,2.4255,2.4276,2.4297,2.4255,2.4472,2.4574,2.4297,2.4487,2.4574,2.4323,2.4302,2.4302,2.4302,2.4302,2.4261,2.4135,2.4073,2.3867,2.348,2.2934,2.2403,2.1851,0.0,0.0,2.2226,0.0,2.2337,2.2296,2.2296,2.2296,2.2296,2.2006,2.1935,2.2049,2.1769,2.164,2.164,2.164,2.1544,2.1399,2.1399,2.1399,2.1423,2.1592,2.1712,2.1817,2.1996,2.2114,2.2184,3.4681,3.4771,3.4936,3.5429,3.5504,3.5504,3.5504,3.5504,3.5504,3.5504,3.5504,3.5504,3.5504,3.5504,3.5504,3.5504,3.5504,3.522,3.4548,3.4038,3.341,3.2557,3.2049,3.1481,3.0821,3.0612,3.0283,2.9849,3.0283,3.0088,2.9322,0.0,0.0,0.0,2.786,2.787,2.7715,2.7715,2.7715,2.7715,2.7715,2.7765,2.7855,2.7855,2.793,2.802,2.8054,2.8054,2.8054,2.8103,2.8118,2.8103,2.8005,2.7783,2.7507,2.7507,2.7103,2.6688,2.6688,2.626,2.5805,2.5669,2.5209,2.4761,2.4631,2.4441,2.4364,2.4564,2.4699,2.4766,2.4766,2.4997,2.508,2.471,2.4883,2.4942,2.4589,2.4492,2.4446,2.438,2.4359,2.44,2.4498,2.4441,2.4281,2.4057,2.3638,2.3253,2.2942,0.0,0.0,0.0,0.0,0.0,2.2987,2.2987,2.2987,2.2965,2.264,2.2572,2.268,2.2273,2.2077,2.2077,2.2077,2.2016,2.1931,2.1931,2.1874,2.1803,2.1992,2.2053,2.2067,2.2254,2.2402,2.2526,3.5489,3.5489,3.5489,3.5504,3.5504,3.5504,3.5504,3.5504,3.5504,3.5504,3.5504,3.5504,3.5504,3.5504,3.5504,3.5504,3.5504,3.522,3.4548,3.4503,3.3873,3.2572,3.2497,3.2168,3.1511,3.0823,3.0507,3.0492,3.0507,2.9849,2.8607,0.0,2.8325,2.7821,2.8484,2.8485,2.7995,2.7995,2.7995,2.7995,2.7995,2.7995,2.7995,2.7995,2.7995,2.8005,2.8137,2.821,2.821,2.8348,2.8411,2.8348,2.8094,2.8103,2.8195,2.8195,2.7808,2.738,2.738,2.7241,2.6961,2.6499,2.618,2.5863,2.5373,2.4795,2.4502,2.5142,2.5591,2.5888,2.5888,2.5888,2.5794,2.554,2.5484,2.5406,2.513,2.4977,2.4799,2.4539,2.4498,2.4498,2.4498,2.4564,2.4589,2.4589,2.4589,2.4126,2.3047,0.0,0.0,2.3194,2.3194,0.0,2.3194,2.3194,2.3194,2.3194,2.3194,2.3194,2.3172,2.2852,2.2694,2.2694,2.2694,2.2875,2.3172,2.3172,2.2972,2.2672,2.2694,2.2655,2.2592,2.2592,2.2926,2.3363,3.5504,3.5504,3.5504,3.5504,3.5504,3.5504,3.5504,3.5504,3.5504,3.5504,3.5504,3.5504,3.5504,3.5504,3.5504,3.5504,3.5504,3.522,3.4548,3.4503,3.3888,3.2572,3.2512,3.2183,3.1511,3.1286,3.0943,3.0507,3.0943,3.0733,2.9894,3.0045,2.9753,2.9173,2.9474,2.9522,2.9366,2.9366,2.9366,2.9366,2.9366,2.9144,2.8824,2.8824,2.8599,2.829,2.8323,2.8348,2.8348,2.8387,2.8411,2.8387,2.8314,2.8299,2.8348,2.8348,2.8233,2.8088,2.8088,2.7944,2.7737,2.7598,2.715,2.6714,2.6561,2.6366,2.6377,2.6896,2.7109,2.7109,2.6778,2.6752,2.6549,2.5871,2.5937,2.5923,2.557,2.5519,2.5389,2.5017,2.4974,2.491,2.4722,2.4645,2.463,2.4726,2.4666,2.4451,0.0,0.0,0.0,0.0,2.4245,0.0,2.4168,2.4147,2.4147,2.4147,2.3837,2.3601,2.3486,2.3566,2.3501,2.3312,2.3312,2.3275,2.3194,2.3194,2.3128,2.3061,2.3231,2.3157,2.2949,2.3091,2.3253,2.3384,3.5572,3.5522,3.5537,3.5587,3.5572,3.5604,3.5683,3.5683,3.5683,3.5683,3.5683,3.5683,3.5683,3.5683,3.5619,3.5504,3.5504,3.5325,3.4891,3.4861,3.4277,3.2946,3.2886,3.2422,3.1525,3.1568,3.1416,3.0996,3.1161,3.1054,3.0689,3.0503,3.0238,2.9951,3.0042,3.0094,3.0162,3.0162,3.0162,3.0162,3.0162,3.0084,2.9927,2.9715,2.9554,2.943,2.9225,2.9166,2.9095,2.8873,2.8781,2.8759,2.8698,2.8525,2.8411,2.8411,2.8411,2.8411,2.8411,2.856,2.871,2.8532,2.8233,2.7888,2.7469,2.7488,2.7712,2.809,2.8302,2.8323,2.8045,2.7801,2.7455,2.6836,2.662,2.6435,2.6101,2.6033,2.589,2.5538,2.55,2.5384,2.5068,2.4974,2.4914,2.4882,2.4806,2.4751,0.0,0.0,2.4766,2.4751,2.4826,2.4826,2.4751,2.4751,2.4751,2.4746,2.4451,2.4168,2.3931,2.4109,2.4109,2.3931,2.3931,2.3915,2.3879,2.3879,2.3794,2.3702,2.3867,2.3739,2.3458,2.3588,2.3717,2.3809,3.572,3.5636,3.5587,3.5703,3.572,3.5784,3.5973,3.6005,3.6005,3.6005,3.6005,3.6005,3.6005,3.6005,3.5861,3.5554,3.5537,3.5537,3.5504,3.5537,3.4953,3.365,3.3545,3.2931,3.1629,3.1742,3.1813,3.1813,3.1207,3.0945,3.1055,3.031,3.0114,3.0405,3.0379,3.0431,3.0577,3.0551,3.054,3.054,3.054,3.0839,3.1214,3.0732,3.0838,3.12,3.0654,3.049,3.0423,2.9739,2.9549,2.9549,2.9367,2.8991,2.8616,2.8499,2.8436,2.8411,2.8444,2.9106,2.9705,2.9303,2.9394,2.9314,2.8245,2.8277,2.8632,2.8927,2.9264,2.9526,2.9573,2.901,2.8462,2.8168,2.7554,2.6976,2.6691,2.6555,2.6366,2.6085,2.6049,2.5888,2.5481,2.5465,2.5368,2.5064,2.5005,2.5005,0.0,0.0,2.4882,2.5001,2.5005,2.5005,2.5005,2.5005,2.5005,2.5005,2.5005,2.4842,2.4539,2.4539,2.4539,2.4539,2.4539,2.4706,2.5005,2.5005,2.4822,2.4539,2.4539,2.4333,2.4024,2.4024,2.4234,2.4498,3.5941,3.591,3.5893,3.5926,3.5941,3.5941,3.6005,3.6005,3.6005,3.6005,3.6005,3.6005,3.6005,3.6005,3.5973,3.5893,3.5893,3.5814,3.5671,3.5782,3.5514,3.4682,3.4167,3.3501,3.2654,3.2197,3.194,3.194,3.1773,3.1726,3.1754,3.167,3.1878,3.2304,3.2014,3.2106,3.2515,3.2095,3.1921,3.1921,3.1921,3.1944,3.1966,3.1813,3.1792,3.1726,3.1184,3.1258,3.1542,3.0961,3.1045,3.1381,3.1322,3.1227,3.0854,2.9382,2.8677,2.8468,2.885,2.9348,2.9859,3.0102,3.0245,3.0264,3.0017,3.0008,3.0199,3.0622,3.0791,3.0771,3.0537,3.0184,2.959,2.8575,2.8168,2.7756,2.7091,2.7039,2.6941,2.659,2.6522,2.6384,2.5962,2.567,2.5465,2.5387,2.513,2.5005,2.5005,2.4982,2.4982,2.5005,2.5005,2.5005,2.5005,2.5005,2.5005,2.5005,2.5005,2.4946,2.4866,2.4866,2.4866,2.4866,2.4866,2.4926,2.5005,2.5005,2.4946,2.4866,2.4866,2.4666,2.4395,2.4395,2.4436,2.4498,3.6085,3.6037,3.6037,3.6085,3.6085,3.6116,3.6195,3.6241,3.6241,3.6241,3.6241,3.6241,3.6241,3.6241,3.6305,3.6492,3.6179,3.5941,3.5831,3.5941,3.5701,3.5033,3.4379,3.3711,3.2998,3.2416,3.2122,3.2163,3.2122,3.2247,3.2547,3.2574,3.2868,3.3459,3.324,3.3293,3.3537,3.3251,3.3135,3.3135,3.3135,3.3236,3.3354,3.312,3.3128,3.3221,3.2667,3.2667,3.2838,3.2224,3.2208,3.243,3.2361,3.2171,3.1823,3.0998,3.0012,2.9233,2.9375,2.9595,2.9968,3.0703,3.0925,3.1001,3.1001,3.1001,3.1081,3.1349,3.1387,3.1349,3.1181,3.0776,3.0134,2.9117,2.8613,2.8078,2.7304,2.725,2.7218,2.699,2.6974,2.6825,2.6402,2.6192,2.589,2.5521,2.55,0.0,2.5025,2.5146,2.5166,2.5005,2.5005,2.5005,2.5005,2.5302,2.546,2.546,2.546,2.546,2.546,2.5128,2.5005,2.5005,2.5005,2.5005,2.5005,2.5005,2.5005,2.5005,2.5005,2.4902,2.4742,2.4742,2.4742,2.4742,3.6395,3.6224,3.61,3.6242,3.6242,3.6305,3.646,3.6492,3.6492,3.6492,3.6492,3.6492,3.6492,3.6569,3.6754,3.7101,3.6677,3.629,3.6179,3.61,3.5779,3.5094,3.4531,3.3862,3.3086,3.2514,3.2302,3.2398,3.2302,3.2574,3.3182,3.3093,3.3433,3.4136,3.4036,3.4045,3.4111,3.4036,3.4011,3.4011,3.4011,3.4333,3.4745,3.4309,3.4456,3.484,3.4309,3.4185,3.4137,3.3486,3.3323,3.3368,3.3222,3.2888,3.2626,3.2934,3.1984,3.0708,3.0204,3.0049,3.0246,3.1123,3.1426,3.1517,3.1517,3.1517,3.1517,3.1517,3.1517,3.1538,3.1634,3.1016,3.0348,2.9765,2.8954,2.8178,2.754,2.7368,2.7299,2.7299,2.7299,2.717,2.6825,2.6742,2.6419,2.5726,2.5944,2.5834,2.5204,2.5368,2.5368,2.5088,2.5025,2.5005,2.5005,2.555,2.5851,2.5851,2.5945,2.6009,2.5977,2.5412,2.5144,2.5144,2.5033,2.5005,2.5005,2.5005,2.5005,2.5005,2.5005,2.5005,2.5005,2.5005,2.5005,2.5005,3.7306,3.6813,3.6429,3.646,3.646,3.646,3.6492,3.6492,3.6492,3.6492,3.6492,3.6492,3.6492,3.6952,3.7298,3.7342,3.7722,3.7648,3.6981,3.6616,3.6122,3.5446,3.5323,3.4662,3.3387,3.2696,3.237,3.2398,3.237,3.2641,3.3182,3.3198,3.37,3.4649,3.421,3.426,3.4649,3.421,3.4011,3.4011,3.4011,3.4333,3.4793,3.4697,3.4998,3.5402,3.488,3.4975,3.5276,3.4724,3.4832,3.52,3.5295,3.5284,3.5126,3.4691,3.4088,3.3251,3.1725,3.1208,3.1142,3.1468,3.156,3.1579,3.1579,3.1579,3.1579,3.1579,3.1579,3.1634,3.1746,3.1178,3.0627,3.0524,2.9317,2.8368,2.8247,2.7678,2.7299,2.7299,2.7299,2.7283,2.7218,2.6891,2.6657,2.6522,2.6263,2.605,2.5943,2.5652,2.5484,2.5408,2.515,2.5005,2.5005,2.5096,2.5144,2.5159,2.5724,2.6009,2.6009,2.5882,2.5851,2.5803,2.5254,2.5005,2.5005,2.5005,2.5005,2.5005,2.5005,2.5005,2.5005,2.5005,2.5005,2.5005,3.8046,3.76,3.7292,3.7538,3.7369,3.7292,3.7538,3.7584,3.7584,3.7584,3.7584,3.7728,3.8076,3.8009,3.8223,3.889,3.8561,3.8278,3.8222,3.746,3.6535,3.5537,3.5152,3.445,3.333,3.3266,3.3266,3.3266,3.3266,3.3537,3.4053,3.4053,3.4488,3.5224,3.4975,3.4998,3.5224,3.4975,3.4857,3.4857,3.4857,3.5021,3.5224,3.5224,3.5362,3.5577,3.5316,3.5402,3.5577,3.5316,3.5402,3.5622,3.5773,3.5795,3.5749,3.5544,3.4793,3.366,3.2173,3.1925,3.2034,3.1682,3.1635,3.1709,3.1709,3.2018,3.219,3.1795,3.2018,3.2209,3.1869,3.1524,3.1007,3.0196,2.9455,2.8851,2.8454,2.8109,2.804,2.8437,2.8127,2.7885,2.7885,2.7377,2.6941,2.6725,2.6725,2.6556,2.6122,2.6139,2.605,2.5835,2.5285,2.5278,2.5858,2.6036,2.6314,2.6678,2.6972,2.6941,2.6577,2.6182,2.5803,2.5444,2.5128,2.5005,2.5005,2.5005,2.5005,2.5005,2.5005,2.5005,2.5005,2.5005,2.5005,2.5005,3.9197,3.8777,3.8543,3.8886,3.8668,3.8479,3.8691,3.8738,3.8688,3.8508,3.8508,3.8753,3.9424,3.9104,3.9312,4.0459,3.9753,3.9303,3.9471,3.8582,3.7435,3.5984,3.5268,3.4603,3.3916,3.4114,3.4156,3.4011,3.4011,3.4284,3.4793,3.4793,3.5108,3.56,3.56,3.56,3.56,3.56,3.56,3.56,3.56,3.56,3.56,3.56,3.56,3.56,3.56,3.56,3.56,3.56,3.5622,3.5667,3.5817,3.5861,3.5927,3.6041,3.5278,3.4117,3.2949,3.2828,3.287,3.2099,3.2123,3.2283,3.2093,3.2645,3.3024,3.2438,3.2783,3.2955,3.2179,3.1921,3.1403,3.0231,2.973,2.9368,2.8989,2.8765,2.8868,2.9437,2.9006,2.8661,2.8661,2.8144,2.7684,2.7368,2.7481,2.7279,2.667,2.6674,2.6573,2.628,2.561,2.5616,2.6341,2.6602,2.6952,2.7367,2.7525,2.7336,2.683,2.6261,2.5724,2.5223,2.5084,2.5005,2.5005,2.5005,2.5005,2.5005,2.5005,2.5005,2.5005,2.5045,2.5064,2.51,4.1295,4.076,4.0291,4.034,4.0307,4.0098,3.9502,3.9424,3.9188,3.8573,3.8508,3.8753,3.9424,3.9946,4.0557,4.1264,4.173,4.1493,4.0287,4.0128,3.9226,3.7263,3.6519,3.6098,3.5974,3.5347,3.4667,3.4011,3.4011,3.4284,3.4793,3.4793,3.5108,3.56,3.56,3.56,3.56,3.56,3.56,3.56,3.56,3.56,3.56,3.56,3.56,3.56,3.56,3.56,3.56,3.56,3.5667,3.5817,3.5932,3.6079,3.6187,3.6276,3.6194,3.5931,3.5012,3.4308,3.3645,3.2969,3.3369,3.3751,3.299,3.3438,3.401,3.3941,3.3955,3.3785,3.2972,3.2265,3.1765,3.1645,3.0437,2.9748,3.042,2.9886,2.9455,2.9506,2.9455,2.942,2.942,2.9368,2.9334,2.93,2.8696,2.83,2.8233,2.7266,2.6725,2.6741,2.628,2.5886,2.5584,2.561,2.5484,2.5238,2.5851,2.6135,2.6088,2.6024,2.5977,2.5882,2.527,2.5005,2.5005,2.5005,2.5005,2.5005,2.5005,2.5005,2.5025,2.5217,2.5275,2.5314,4.2116,4.215,4.2092,4.1803,4.2001,4.2001,4.1433,4.1339,4.1261,4.1008,4.0976,4.1229,4.1894,4.1789,4.1923,4.2579,4.2449,4.2088,4.1554,4.109,3.9797,3.74,3.6977,3.6567,3.6098,3.6124,3.5771,3.4998,3.4998,3.5108,3.531,3.531,3.5402,3.56,3.56,3.56,3.56,3.56,3.56,3.56,3.56,3.56,3.56,3.56,3.56,3.56,3.56,3.56,3.5622,3.5706,3.5773,3.5839,3.6058,3.6144,3.6208,3.628,3.6301,3.6232,3.5914,3.56,3.5225,3.4507,3.4904,3.5249,3.449,3.4921,3.5197,3.4303,3.4456,3.4542,3.3783,3.3007,3.2334,3.1869,3.13,3.0869,3.0731,3.0817,3.092,3.092,3.0524,3.0231,3.0231,2.9799,2.9506,2.9506,2.9248,2.8885,2.842,2.7598,2.7153,2.7168,2.7037,2.6843,2.6619,2.6578,2.6461,2.6314,2.6769,2.6636,2.6009,2.6009,2.5772,2.5365,2.5112,2.5005,2.5005,2.5005,2.5005,2.5005,2.5139,2.5197,2.5201,2.5413,2.5489,2.5508,4.3152,4.341,4.3545,4.3229,4.3426,4.3439,4.2892,4.2831,4.2738,4.252,4.252,4.2769,4.3423,4.3035,4.3032,4.372,4.3301,4.2895,4.2658,4.1745,4.0301,3.8282,3.8083,3.7603,3.661,3.6946,3.6637,3.56,3.56,3.5718,3.5994,3.5994,3.609,3.6309,3.6096,3.5994,3.596,3.5701,3.56,3.56,3.56,3.5622,3.5667,3.5667,3.5667,3.5667,3.5711,3.5711,3.5689,3.5817,3.5883,3.5949,3.6122,3.6208,3.6251,3.628,3.6301,3.6301,3.6301,3.6473,3.6439,3.5439,3.5939,3.6473,3.5714,3.6128,3.6387,3.539,3.5373,3.5318,3.4596,3.399,3.3386,3.2628,3.2507,3.2248,3.1489,3.1817,3.2059,3.1834,3.1351,3.1041,3.1041,3.0541,3.0231,3.0231,3.0006,2.9558,2.8849,2.8411,2.8197,2.8197,2.8225,2.8161,2.7952,2.7371,2.6907,2.6591,2.6832,2.6607,2.6009,2.6009,2.5781,2.5397,2.5397,2.533,2.5201,2.5201,2.5329,2.5556,2.5692,2.5731,2.577,2.5981,2.5875,2.5733,4.4615,4.4615,4.4615,4.4615,4.4615,4.4338,4.3617,4.3512,4.3257,4.2614,4.252,4.2769,4.3453,4.3512,4.381,4.4542,4.4615,4.4248,4.3443,4.2033,4.0882,4.0146,4.0096,3.9419,3.7939,3.7922,3.7178,3.5616,3.5616,3.6028,3.6812,3.6812,3.7218,3.7872,3.7151,3.6812,3.6761,3.596,3.5616,3.56,3.56,3.5684,3.5795,3.5795,3.5795,3.5817,3.5954,3.591,3.5817,3.5971,3.6101,3.6204,3.6204,3.6251,3.6301,3.6301,3.6301,3.6301,3.6301,3.6887,3.7133,3.5594,3.6374,3.7305,3.649,3.6939,3.7512,3.7512,3.6853,3.6094,3.5335,3.5197,3.4956,3.4234,3.4113,3.3837,3.3024,3.2904,3.2645,3.1903,3.18,3.18,3.18,3.18,3.18,3.18,3.111,3.0404,2.9728,2.9825,2.9889,2.9889,2.9889,2.9742,2.9403,2.7691,2.6401,2.5519,2.5538,2.5696,2.6009,2.6009,2.6111,2.6294,2.6294,2.6033,2.5621,2.5621,2.6043,2.6727,2.6711,2.6711,2.6747,2.6937,2.6538,2.5934,4.4615,4.4615,4.4615,4.4615,4.4615,4.4542,4.431,4.4281,4.4207,4.3989,4.396,4.4047,4.4236,4.4281,4.4367,4.457,4.4615,4.4248,4.3443,4.2987,4.2185,4.0933,4.0383,3.9656,3.8684,3.8667,3.8193,3.7229,3.7229,3.7347,3.7567,3.7567,3.7702,3.7889,3.7669,3.7567,3.755,3.733,3.6924,3.6457,3.6491,3.6231,3.5817,3.5888,3.5932,3.5949,3.5975,3.5975,3.5971,3.6101,3.6182,3.6225,3.6255,3.628,3.6404,3.6973,3.6732,3.6422,3.6995,3.7323,3.7392,3.6943,3.7564,3.8198,3.7956,3.8116,3.8272,3.8272,3.7685,3.7081,3.6857,3.5921,3.5128,3.4904,3.4869,3.4594,3.3835,3.3731,3.3438,3.2662,3.211,3.18,3.18,3.18,3.18,3.18,3.1165,3.0699,3.0542,3.0137,2.9889,2.9889,2.999,2.9941,2.9758,2.9191,2.8511,2.7759,2.7981,2.7914,2.7515,2.6854,2.6581,2.6574,2.6431,2.6362,2.6399,2.6938,2.7263,2.7494,2.7613,2.7689,2.7709,2.7904,2.7522,2.696,4.4615,4.4615,4.4615,4.4615,4.4615,4.4615,4.4615,4.4615,4.4615,4.4615,4.4615,4.4615,4.4615,4.4615,4.4615,4.4615,4.4615,4.4384,4.391,4.3589,4.2987,4.2117,4.1356,4.0367,3.9022,3.8988,3.8633,3.7905,3.7905,3.8058,3.8345,3.8345,3.8481,3.8751,3.8464,3.8345,3.8311,3.8072,3.7729,3.7329,3.7404,3.7183,3.6841,3.693,3.6764,3.6507,3.6573,3.6362,3.6135,3.6569,3.6715,3.6737,3.6745,3.6766,3.6801,3.6973,3.7111,3.7249,3.7461,3.7719,3.7944,3.7944,3.8474,3.8957,3.8663,3.8819,3.8939,3.8646,3.8254,3.7858,3.7564,3.6753,3.6011,3.568,3.5628,3.537,3.4648,3.4565,3.4187,3.3041,3.2545,3.2183,3.1817,3.18,3.1818,3.1838,3.1531,3.1377,3.1411,3.1078,3.0883,3.0883,3.0968,3.0968,3.0883,3.085,3.0179,2.8891,2.9107,2.9062,2.8769,2.8221,2.7965,2.7979,2.7758,2.7614,2.7558,2.7902,2.8187,2.8432,2.8569,2.8609,2.8629,2.8748,2.8359,2.7796,4.4801,4.475,4.4699,4.4699,4.4649,4.4615,4.4615,4.4615,4.4615,4.4615,4.4615,4.4615,4.4615,4.4615,4.4615,4.4615,4.4615,4.4615,4.4615,4.391,4.3477,4.3392,4.276,4.1407,3.9326,3.9225,3.8836,3.8108,3.8108,3.8447,3.9114,3.9114,3.9469,4.0104,3.9486,3.9216,3.9189,3.87,3.8459,3.8414,3.8549,3.8596,3.8608,3.8608,3.8219,3.7617,3.7676,3.7189,3.6603,3.7348,3.7599,3.7599,3.7599,3.7599,3.7478,3.6801,3.7542,3.8456,3.7875,3.8203,3.8703,3.8703,3.925,3.9612,3.887,3.9163,3.9439,3.8905,3.8703,3.8405,3.7823,3.765,3.734,3.6542,3.6404,3.6146,3.5425,3.5351,3.4837,3.3304,3.3173,3.2898,3.2077,3.2008,3.2045,3.212,3.23,3.2371,3.2319,3.2494,3.2564,3.2493,3.2564,3.2564,3.2493,3.2493,3.1481,2.9505,2.9505,2.9634,2.9888,2.9782,2.9859,3.0025,2.9716,2.9329,2.8878,2.8696,2.8976,2.9496,2.9496,2.9496,2.9496,2.9496,2.9069,2.8475,4.6312,4.5855,4.5466,4.5466,4.4976,4.4615,4.4615,4.4615,4.4615,4.4615,4.4615,4.4615,4.4615,4.4615,4.4615,4.4615,4.4615,4.4615,4.4615,4.4445,4.4062,4.3426,4.3267,4.2675,4.1593,4.1018,4.0358,3.9622,3.9622,3.9773,4.0,4.0,4.016,4.0429,4.0755,4.0942,4.106,4.1393,4.1265,4.0861,4.0977,4.069,4.0223,4.03,4.0261,4.0037,3.9439,3.9112,3.8882,3.8491,3.8353,3.8353,3.8353,3.8353,3.8444,3.8836,3.8784,3.8681,3.9112,3.9336,3.9457,3.9457,4.0066,4.0446,3.9629,3.9129,3.9152,4.0204,3.9445,3.8715,3.9146,3.8732,3.8134,3.7353,3.7254,3.6999,3.6305,3.5758,3.5295,3.497,3.4453,3.4,3.3711,3.3694,3.3751,3.3923,3.3978,3.3771,3.3266,3.3845,3.3915,3.3283,3.3863,3.3898,3.3266,3.3266,3.2739,3.1725,3.1725,3.162,3.1382,3.043,3.0117,3.0282,2.9813,2.9616,2.9703,3.0213,3.0369,3.0257,3.0257,3.0257,3.0257,3.0257,2.9794,2.9118,4.6786,4.6481,4.6227,4.6227,4.5602,4.5111,4.5111,4.4835,4.4615,4.4615,4.4615,4.4615,4.4615,4.4615,4.4615,4.4615,4.4615,4.4615,4.4615,4.4615,4.4401,4.3995,4.4044,4.3688,4.2844,4.2552,4.1824,4.0612,4.0282,4.0163,4.0305,4.0305,4.0362,4.0527,4.0846,4.1016,4.1125,4.1852,4.1988,4.1738,4.2257,4.2221,4.1901,4.1974,4.1757,4.1378,4.094,4.056,4.017,3.937,3.9112,3.9112,3.9112,3.9112,3.9129,3.9163,3.9405,3.9704,3.9698,3.9974,4.0267,4.0267,4.0601,4.0687,3.9871,3.9698,3.9825,4.0233,3.9997,3.9704,3.9698,3.937,3.8893,3.8234,3.8113,3.788,3.721,3.6838,3.6374,3.5588,3.5209,3.4826,3.4347,3.4314,3.4391,3.4485,3.456,3.4439,3.4091,3.446,3.4512,3.4091,3.4477,3.4495,3.4091,3.4073,3.3705,3.2915,3.2564,3.2319,3.2126,3.1495,3.1161,3.1088,3.0681,3.0468,3.044,3.0667,3.0671,3.0506,3.0506,3.0506,3.0506,3.0506,3.0257,2.981,4.7175,4.7073,4.6989,4.6989,4.638,4.5889,4.5889,4.5246,4.4801,4.4801,4.4682,4.4615,4.4615,4.4615,4.4615,4.4615,4.4615,4.4615,4.4615,4.4615,4.4598,4.4626,4.4737,4.4459,4.3677,4.3712,4.2964,4.139,4.0646,4.0375,4.0517,4.0381,4.0412,4.0558,4.0695,4.0747,4.0822,4.165,4.2001,4.212,4.3019,4.3379,4.3396,4.3534,4.3147,4.2543,4.2447,4.1843,4.0998,4.0319,4.0008,3.9905,3.9905,3.9905,3.9767,3.9163,3.9911,4.0756,4.0077,4.0388,4.0912,4.0912,4.0912,4.0739,4.0043,4.0325,4.0573,4.0032,4.0342,4.0573,4.0008,3.9905,3.9709,3.9096,3.8997,3.8764,3.8098,3.8115,3.7665,3.631,3.6125,3.576,3.4934,3.4868,3.4888,3.4944,3.5037,3.504,3.4898,3.5004,3.504,3.4881,3.5004,3.504,3.4881,3.4881,3.4495,3.3704,3.309,3.2722,3.2599,3.2669,3.2511,3.2175,3.1824,3.1451,3.1055,3.0716,3.0568,3.0506,3.0506,3.0506,3.0506,3.0506,3.0506,3.0406,4.8697,4.8189,4.7736,4.7736,4.7141,4.665,4.665,4.6024,4.5551,4.5551,4.4993,4.4615,4.4615,4.4615,4.4615,4.4615,4.4615,4.4615,4.4615,4.4615,4.4654,4.4776,4.4776,4.478,4.477,4.4182,4.3326,4.2151,4.1407,4.118,4.1409,4.0768,4.0607,4.0858,4.1391,4.169,4.1839,4.248,4.2849,4.3078,4.3845,4.4156,4.4225,4.4872,4.5018,4.4846,4.4225,4.3086,4.1843,4.1716,4.1274,4.0739,4.0739,4.0739,4.0722,4.0618,4.0739,4.0877,4.0774,4.0825,4.0912,4.0912,4.0912,4.0877,4.0774,4.0377,4.0181,4.0642,4.036,4.0176,4.0636,4.0739,4.0521,3.9858,3.9759,3.9549,3.8984,3.8944,3.8895,3.8803,3.8149,3.7411,3.672,3.6554,3.6554,3.6652,3.6671,3.6392,3.5706,3.6303,3.6355,3.5669,3.632,3.6338,3.5652,3.5652,3.5285,3.453,3.4424,3.4021,3.3353,3.3763,3.3712,3.3247,3.2693,3.2064,3.1406,3.1075,3.0773,3.0506,3.0506,3.0506,3.0506,3.0506,3.0506,3.0489,4.9001,4.8748,4.8528,4.8528,4.7919,4.7411,4.7411,4.6447,4.5703,4.5703,4.5043,4.4615,4.4615,4.4615,4.4615,4.4615,4.4615,4.4615,4.4615,4.4615,4.4654,4.4776,4.4886,4.4923,4.5005,4.4761,4.4356,4.3827,4.2643,4.2185,4.2389,4.2046,4.1751,4.1533,4.1788,4.1719,4.1464,4.258,4.3122,4.3258,4.4,4.4544,4.4906,4.482,4.5044,4.5294,4.4544,4.3862,4.3155,4.2292,4.1792,4.1447,4.1032,4.0912,4.0912,4.0912,4.0912,4.0912,4.0912,4.0912,4.0912,4.0912,4.0912,4.0912,4.0912,4.0758,4.0712,4.096,4.0706,4.0568,4.0954,4.0959,4.0838,4.066,4.0631,4.0443,3.9935,3.9873,3.9754,3.9336,3.8965,3.8614,3.8322,3.8225,3.8032,3.7637,3.7602,3.7268,3.6513,3.6814,3.6849,3.6478,3.6814,3.6831,3.6461,3.6461,3.6075,3.532,3.5778,3.5337,3.4196,3.4383,3.4274,3.3869,3.3623,3.296,3.21,3.1944,3.1568,3.1038,3.0838,3.0654,3.0506,3.0506,3.0506,3.0506]}]]